[[{"header":{"parameterUnit":"m.s-1","parameterCategory":1,"la1":31.0,"la2":29.5877,"lo1":-88.7671,"lo2":-86.6584,"dy":0.0162,"dx":0.0185,"nx":115,"ny":88,"refTime":"2024-02-12T12:00:00:Z","depth":0,"parameterNumber":2,"parameterNumberName":"U-component_of_WINDS"},"data":[0.0,0.0,0.0,0.0,0.0,0.0,0.0,0.0,0.0,0.0,0.0,0.0,0.0,0.0,0.0,0.0,0.0,0.0,0.0,0.0,0.0,0.0,0.0,0.0,0.0,0.0,0.0,0.0,0.0,0.0,0.0,0.0,0.0,0.0,0.0,0.0,0.0,0.0,0.0,0.0,0.0,0.0,0.0,0.0,0.0,0.0,0.0,0.0,0.0,0.0,0.0,0.0,0.0,0.0,0.0,0.0,0.0,0.0,0.0,0.0,0.0,0.0,0.0,0.0,0.0,0.0,0.0,0.0,0.0,0.0,0.0,0.0,0.0,0.0,0.0,0.0,0.0,0.0,0.0,0.0,0.0,0.0,0.0,0.0,0.0,0.0,0.0,0.0,0.0,0.0,0.0,0.0,0.0,0.0,0.0,0.0,0.0,0.0,0.0,0.0,0.0,0.0,0.0,0.0,0.0,0.0,0.0,0.0,0.0,0.0,0.0,0.0,0.0,0.0,0.0,0.0,0.0,0.0,0.0,0.0,0.0,0.0,0.0,0.0,0.0,0.0,0.0,0.0,0.0,0.0,0.0,0.0,0.0,0.0,0.0,0.0,0.0,0.0,0.0,0.0,0.0,0.0,0.0,0.0,0.0,0.0,0.0,0.0,0.0,0.0,0.0,0.0,0.0,0.0,0.0,0.0,0.0,0.0,0.0,0.0,0.0,0.0,0.0,0.0,0.0,0.0,0.0,0.0,0.0,0.0,0.0,0.0,0.0,0.0,0.0,0.0,0.0,0.0,0.0,0.0,0.0,0.0,0.0,0.0,0.0,0.0,0.0,0.0,0.0,0.0,0.0,0.0,0.0,0.0,0.0,0.0,0.0,0.0,0.0,0.0,0.0,0.0,0.0,0.0,0.0,0.0,0.0,0.0,0.0,0.0,0.0,0.0,0.0,0.0,0.0,0.0,0.0,0.0,0.0,0.0,0.0,0.0,0.0,0.0,0.0,0.0,0.0,0.0,0.0,0.0,0.0,0.0,0.0,0.0,0.0,0.0,0.0,0.0,0.0,0.0,0.0,0.0,0.0,0.0,0.0,0.0,0.0,0.0,0.0,0.0,0.0,0.0,0.0,0.0,0.0,0.0,0.0,0.0,0.0,0.0,0.0,0.0,0.0,0.0,0.0,0.0,0.0,0.0,0.0,0.0,0.0,0.0,0.0,0.0,0.0,0.0,0.0,0.0,0.0,0.0,0.0,0.0,0.0,0.0,0.0,0.0,0.0,0.0,0.0,0.0,0.0,0.0,0.0,0.0,0.0,0.0,0.0,0.0,0.0,0.0,0.0,0.0,0.0,0.0,0.0,0.0,0.0,0.0,0.0,0.0,0.0,0.0,0.0,0.0,0.0,0.0,0.0,0.0,0.0,0.0,0.0,0.0,0.0,0.0,0.0,0.0,0.0,0.0,0.0,0.0,0.0,0.0,0.0,0.0,0.0,0.0,0.0,0.0,0.0,0.0,0.0,0.0,0.0,0.0,0.0,0.0,0.0,0.0,0.0,0.0,0.0,0.0,0.0,0.0,0.0,0.0,0.0,0.0,0.0,0.0,0.0,0.0,0.0,0.0,0.0,0.0,0.0,0.0,0.0,0.0,0.0,0.0,0.0,0.0,0.0,0.0,0.0,0.0,0.0,0.0,0.0,0.0,0.0,0.0,0.0,0.0,0.0,0.0,0.0,0.0,0.0,0.0,0.0,0.0,0.0,0.0,0.0,0.0,0.0,0.0,0.0,0.0,0.0,0.0,0.0,0.0,0.0,0.0,0.0,0.0,0.0,0.0,0.0,0.0,0.0,0.0,0.0,0.0,0.0,0.0,0.0,0.0,0.0,0.0,0.0,0.0,0.0,0.0,0.0,0.0,0.0,0.0,0.0,0.0,0.0,0.0,0.0,0.0,0.0,0.0,0.0,0.0,0.0,0.0,0.0,0.0,0.0,0.0,0.0,0.0,0.0,0.0,0.0,0.0,0.0,0.0,0.0,0.0,0.0,0.0,0.0,0.0,0.0,0.0,0.0,0.0,0.0,0.0,0.0,0.0,0.0,0.0,0.0,0.0,0.0,0.0,0.0,0.0,0.0,0.0,0.0,0.0,0.0,0.0,0.0,0.0,0.0,0.0,0.0,0.0,0.0,0.0,0.0,0.0,0.0,0.0,0.0,0.0,0.0,0.0,0.0,0.0,0.0,0.0,0.0,0.0,0.0,0.0,0.0,0.0,0.0,0.0,0.0,0.0,0.0,0.0,0.0,0.0,0.0,0.0,0.0,0.0,0.0,0.0,0.0,0.0,0.0,0.0,0.0,0.0,0.0,0.0,0.0,0.0,0.0,0.0,0.0,0.0,0.0,0.0,0.0,0.0,0.0,0.0,0.0,0.0,0.0,0.0,0.0,0.0,0.0,0.0,0.0,0.0,0.0,0.0,0.0,0.0,0.0,0.0,0.0,0.0,0.0,0.0,0.0,0.0,0.0,0.0,0.0,0.0,0.0,0.0,0.0,0.0,0.0,0.0,0.0,0.0,0.0,0.0,0.0,0.0,0.0,0.0,0.0,0.0,0.0,0.0,0.0,0.0,0.0,0.0,0.0,0.0,0.0,0.0,0.0,0.0,0.0,0.0,0.0,0.0,0.0,0.0,0.0,0.0,0.0,0.0,0.0,0.0,0.0,0.0,0.0,0.0,0.0,0.0,0.0,0.0,0.0,0.0,0.0,0.0,0.0,0.0,0.0,0.0,0.0,0.0,0.0,0.0,0.0,0.0,0.0,0.0,0.0,0.0,0.0,0.0,0.0,0.0,0.0,0.0,0.0,0.0,0.0,0.0,0.0,0.0,0.0,0.0,0.0,0.0,0.0,0.0,0.0,0.0,0.0,0.0,0.0,0.0,0.0,0.0,0.0,0.0,0.0,0.0,0.0,0.0,0.0,0.0,0.0,0.0,0.0,0.0,0.0,0.0,0.0,0.0,0.0,0.0,0.0,0.0,0.0,0.0,0.0,0.0,0.0,0.0,0.0,0.0,0.0,0.0,0.0,0.0,0.0,0.0,0.0,0.0,0.0,0.0,0.0,0.0,0.0,0.0,0.0,0.0,0.0,0.0,0.0,0.0,0.0,0.0,0.0,0.0,0.0,0.0,0.0,0.0,0.0,0.0,0.0,0.0,0.0,0.0,0.0,0.0,0.0,0.0,0.0,0.0,0.0,0.0,0.0,0.0,0.0,0.0,0.0,0.0,0.0,0.0,0.0,0.0,0.0,0.0,0.0,0.0,0.0,0.0,0.0,0.0,0.0,0.0,0.0,0.0,0.0,0.0,0.0,0.0,0.0,0.0,0.0,0.0,0.0,0.0,0.0,0.0,0.0,0.0,0.0,0.0,0.0,0.0,0.0,0.0,0.0,0.0,0.0,0.0,0.0,0.0,0.0,0.0,0.0,0.0,0.0,0.0,0.0,0.0,0.0,0.0,0.0,0.0,0.0,0.0,0.0,0.0,0.0,0.0,0.0,0.0,0.0,0.0,0.0,0.0,0.0,0.0,0.0,0.0,0.0,0.0,0.0,0.0,0.0,0.0,0.0,0.0,0.0,0.0,0.0,0.0,0.0,0.0,0.0,0.0,0.0,0.0,0.0,0.0,0.0,0.0,0.0,0.0,0.0,0.0,0.0,0.0,0.0,0.0,0.0,0.0,0.0,0.0,0.0,0.0,0.0,0.0,0.0,0.0,0.0,0.0,0.0,0.0,0.0,0.0,0.0,0.0,0.0,0.0,0.0,0.0,0.0,0.0,0.0,0.0,0.0,0.0,0.0,0.0,0.0,0.0,0.0,0.0,0.0,0.0,0.0,0.0,0.0,0.0,0.0,0.0,0.0,0.0,0.0,0.0,0.0,0.0,0.0,0.0,0.0,0.0,0.0,0.0,0.0,0.0,0.0,0.0,0.0,0.0,0.0,0.0,0.0,0.0,0.0,0.0,0.0,0.0,0.0,0.0,0.0,0.0,0.0,0.0,0.0,0.0,0.0,0.0,0.0,0.0,0.0,0.0,0.0,0.0,0.0,0.0,0.0,0.0,0.0,0.0,0.0,0.0,0.0,0.0,0.0,0.0,0.0,0.0,0.0,0.0,0.0,0.0,0.0,0.0,0.0,0.0,0.0,0.0,0.0,0.0,0.0,0.0,0.0,0.0,0.0,0.0,0.0,0.0,0.0,0.0,0.0,0.0,0.0,0.0,0.0,0.0,0.0,0.0,4.0512,0.0,0.0,0.0,0.0,0.0,0.0,0.0,0.0,0.0,0.0,0.0,0.0,0.0,0.0,0.0,0.0,0.0,0.0,0.0,0.0,0.0,0.0,0.0,0.0,0.0,0.0,0.0,0.0,0.0,0.0,0.0,0.0,0.0,0.0,0.0,0.0,0.0,0.0,0.0,0.0,0.0,0.0,0.0,0.0,0.0,0.0,0.0,0.0,0.0,0.0,0.0,0.0,0.0,0.0,0.0,0.0,0.0,0.0,0.0,0.0,0.0,0.0,0.0,0.0,0.0,0.0,0.0,0.0,0.0,0.0,0.0,0.0,0.0,0.0,0.0,0.0,0.0,0.0,0.0,0.0,0.0,0.0,0.0,0.0,0.0,0.0,0.0,0.0,0.0,0.0,0.0,0.0,0.0,0.0,0.0,0.0,0.0,0.0,0.0,0.0,0.0,0.0,0.0,0.0,0.0,0.0,0.0,0.0,0.0,0.0,4.1619,4.12,4.12,4.0969,4.0516,0.0,0.0,0.0,0.0,0.0,0.0,0.0,0.0,0.0,0.0,0.0,0.0,0.0,0.0,0.0,0.0,0.0,0.0,0.0,0.0,0.0,0.0,0.0,0.0,0.0,0.0,0.0,0.0,0.0,0.0,0.0,0.0,0.0,0.0,0.0,0.0,0.0,0.0,0.0,0.0,0.0,0.0,0.0,0.0,0.0,0.0,0.0,0.0,0.0,0.0,0.0,0.0,0.0,0.0,0.0,0.0,0.0,0.0,0.0,0.0,0.0,0.0,0.0,0.0,0.0,0.0,0.0,0.0,0.0,0.0,0.0,0.0,0.0,0.0,0.0,0.0,0.0,0.0,0.0,0.0,0.0,0.0,0.0,0.0,0.0,0.0,0.0,0.0,0.0,0.0,0.0,0.0,0.0,0.0,0.0,0.0,0.0,0.0,0.0,0.0,0.0,0.0,0.0,0.0,0.0,0.0,0.0,0.0,0.0,0.0,0.0,0.0,4.1889,4.1393,4.055,0.0,0.0,0.0,0.0,0.0,0.0,0.0,0.0,0.0,0.0,0.0,0.0,0.0,0.0,0.0,0.0,0.0,0.0,0.0,0.0,0.0,0.0,0.0,0.0,0.0,0.0,0.0,0.0,0.0,0.0,0.0,0.0,0.0,0.0,0.0,0.0,0.0,0.0,0.0,0.0,0.0,0.0,0.0,0.0,0.0,0.0,0.0,0.0,0.0,0.0,0.0,0.0,0.0,0.0,0.0,0.0,0.0,0.0,0.0,0.0,0.0,0.0,0.0,0.0,0.0,0.0,0.0,0.0,0.0,0.0,0.0,0.0,0.0,0.0,0.0,0.0,0.0,0.0,0.0,0.0,0.0,0.0,0.0,0.0,0.0,0.0,0.0,0.0,0.0,0.0,0.0,0.0,0.0,0.0,0.0,0.0,0.0,0.0,0.0,0.0,0.0,0.0,0.0,0.0,0.0,0.0,0.0,0.0,0.0,0.0,4.2966,4.297,4.2196,0.0,4.0627,0.0,0.0,0.0,0.0,0.0,0.0,0.0,0.0,0.0,0.0,0.0,0.0,0.0,0.0,0.0,0.0,0.0,0.0,0.0,0.0,0.0,0.0,0.0,0.0,0.0,0.0,0.0,0.0,0.0,0.0,0.0,0.0,0.0,0.0,0.0,0.0,0.0,0.0,0.0,0.0,0.0,0.0,0.0,0.0,0.0,0.0,0.0,0.0,0.0,0.0,0.0,0.0,0.0,0.0,0.0,0.0,0.0,0.0,0.0,0.0,0.0,0.0,0.0,0.0,0.0,0.0,0.0,0.0,0.0,0.0,0.0,0.0,0.0,0.0,0.0,0.0,0.0,0.0,0.0,0.0,0.0,0.0,0.0,0.0,0.0,0.0,0.0,0.0,0.0,0.0,0.0,0.0,0.0,0.0,0.0,0.0,0.0,0.0,0.0,0.0,0.0,0.0,0.0,0.0,0.0,0.0,0.0,0.0,0.0,0.0,4.382,4.382,4.2504,4.1662,0.0,0.0,0.0,0.0,0.0,0.0,0.0,0.0,0.0,0.0,0.0,0.0,0.0,0.0,0.0,0.0,0.0,0.0,0.0,0.0,0.0,0.0,0.0,0.0,0.0,0.0,0.0,0.0,0.0,0.0,0.0,0.0,0.0,0.0,0.0,0.0,0.0,0.0,0.0,0.0,0.0,0.0,0.0,0.0,0.0,0.0,0.0,0.0,0.0,0.0,0.0,0.0,0.0,0.0,0.0,0.0,0.0,0.0,0.0,0.0,0.0,0.0,0.0,0.0,0.0,0.0,0.0,0.0,0.0,0.0,0.0,0.0,0.0,0.0,0.0,0.0,0.0,0.0,0.0,0.0,0.0,0.0,0.0,0.0,0.0,0.0,0.0,0.0,0.0,0.0,0.0,0.0,0.0,0.0,0.0,0.0,0.0,0.0,0.0,0.0,0.0,0.0,0.0,0.0,0.0,0.0,0.0,0.0,0.0,0.0,4.4509,4.4551,4.4239,4.3124,4.2273,4.1812,0.0,0.0,0.0,0.0,0.0,0.0,0.0,0.0,0.0,0.0,0.0,0.0,0.0,0.0,0.0,0.0,0.0,0.0,0.0,0.0,0.0,0.0,0.0,0.0,0.0,0.0,0.0,0.0,0.0,0.0,0.0,0.0,0.0,0.0,0.0,0.0,0.0,0.0,0.0,0.0,0.0,0.0,0.0,0.0,0.0,0.0,0.0,0.0,0.0,0.0,0.0,0.0,0.0,0.0,0.0,0.0,0.0,0.0,0.0,0.0,0.0,0.0,0.0,0.0,0.0,0.0,0.0,0.0,0.0,0.0,0.0,0.0,0.0,0.0,0.0,0.0,0.0,0.0,0.0,0.0,0.0,0.0,0.0,0.0,0.0,0.0,0.0,0.0,0.0,0.0,0.0,0.0,0.0,0.0,0.0,0.0,0.0,0.0,0.0,0.0,0.0,0.0,0.0,0.0,0.0,0.0,0.0,0.0,4.4355,4.509,4.5128,4.4355,4.4244,4.3431,0.0,0.0,0.0,0.0,0.0,0.0,0.0,0.0,0.0,0.0,0.0,0.0,0.0,0.0,0.0,0.0,0.0,0.0,0.0,0.0,0.0,0.0,0.0,0.0,0.0,0.0,0.0,0.0,0.0,0.0,0.0,0.0,0.0,0.0,0.0,0.0,0.0,0.0,0.0,0.0,0.0,0.0,0.0,0.0,0.0,0.0,0.0,0.0,0.0,0.0,0.0,0.0,0.0,0.0,0.0,0.0,0.0,0.0,0.0,0.0,0.0,0.0,0.0,0.0,0.0,0.0,0.0,0.0,0.0,0.0,0.0,0.0,0.0,0.0,0.0,0.0,0.0,0.0,0.0,0.0,0.0,0.0,0.0,0.0,0.0,0.0,0.0,0.0,0.0,0.0,0.0,0.0,0.0,0.0,0.0,0.0,0.0,0.0,0.0,0.0,0.0,0.0,0.0,0.0,0.0,0.0,0.0,0.0,0.0,4.5133,4.5441,4.5441,4.5128,4.4624,4.4008,0.0,0.0,0.0,0.0,0.0,0.0,0.0,0.0,0.0,0.0,0.0,0.0,0.0,0.0,0.0,0.0,0.0,0.0,0.0,0.0,0.0,0.0,0.0,0.0,0.0,0.0,0.0,0.0,0.0,0.0,0.0,0.0,0.0,0.0,0.0,0.0,0.0,0.0,0.0,0.0,0.0,0.0,0.0,0.0,0.0,0.0,0.0,0.0,0.0,0.0,0.0,0.0,0.0,0.0,0.0,0.0,0.0,0.0,0.0,0.0,0.0,0.0,0.0,0.0,0.0,0.0,0.0,0.0,0.0,0.0,0.0,0.0,0.0,0.0,0.0,0.0,0.0,0.0,0.0,0.0,0.0,0.0,0.0,0.0,0.0,0.0,0.0,0.0,0.0,0.0,0.0,0.0,0.0,0.0,0.0,0.0,0.0,0.0,0.0,0.0,0.0,0.0,0.0,0.0,0.0,0.0,0.0,0.0,0.0,4.5556,0.0,4.5594,4.5556,4.5056,4.459,0.0,0.0,0.0,0.0,0.0,0.0,0.0,0.0,0.0,0.0,0.0,0.0,0.0,0.0,0.0,0.0,0.0,0.0,0.0,0.0,0.0,0.0,0.0,0.0,0.0,0.0,0.0,0.0,0.0,0.0,0.0,0.0,0.0,0.0,0.0,0.0,0.0,0.0,0.0,0.0,0.0,0.0,0.0,0.0,0.0,0.0,0.0,0.0,0.0,0.0,0.0,0.0,0.0,0.0,0.0,0.0,0.0,0.0,0.0,0.0,0.0,0.0,0.0,0.0,0.0,0.0,0.0,0.0,0.0,0.0,0.0,0.0,0.0,0.0,0.0,0.0,0.0,0.0,0.0,0.0,0.0,0.0,0.0,0.0,0.0,0.0,0.0,0.0,0.0,0.0,0.0,0.0,0.0,0.0,0.0,0.0,0.0,0.0,0.0,0.0,0.0,0.0,0.0,0.0,0.0,0.0,0.0,0.0,4.5667,4.5633,4.5667,4.571,4.5633,4.5629,4.5205,0.0,0.0,0.0,0.0,0.0,0.0,0.0,0.0,0.0,0.0,0.0,0.0,0.0,0.0,0.0,0.0,0.0,0.0,0.0,0.0,0.0,0.0,0.0,0.0,0.0,0.0,0.0,0.0,0.0,0.0,0.0,0.0,0.0,0.0,0.0,0.0,0.0,0.0,0.0,0.0,0.0,0.0,0.0,0.0,0.0,0.0,0.0,0.0,0.0,0.0,0.0,0.0,0.0,0.0,0.0,0.0,0.0,0.0,0.0,0.0,0.0,0.0,0.0,0.0,0.0,0.0,0.0,0.0,0.0,0.0,0.0,0.0,0.0,0.0,0.0,0.0,0.0,0.0,0.0,0.0,0.0,0.0,0.0,0.0,0.0,0.0,0.0,0.0,0.0,0.0,0.0,0.0,0.0,0.0,0.0,0.0,0.0,0.0,0.0,0.0,0.0,0.0,0.0,0.0,0.0,0.0,0.0,0.0,0.0,4.7355,4.7317,4.7317,4.7317,4.6778,4.6355,0.0,0.0,0.0,0.0,0.0,0.0,0.0,0.0,0.0,0.0,0.0,0.0,0.0,0.0,0.0,0.0,0.0,0.0,0.0,0.0,0.0,0.0,0.0,0.0,0.0,0.0,0.0,0.0,0.0,0.0,0.0,0.0,0.0,0.0,0.0,0.0,0.0,0.0,0.0,0.0,0.0,0.0,0.0,0.0,0.0,0.0,0.0,0.0,0.0,0.0,0.0,0.0,0.0,0.0,0.0,0.0,0.0,0.0,0.0,0.0,0.0,0.0,0.0,0.0,0.0,0.0,0.0,0.0,0.0,0.0,0.0,0.0,0.0,0.0,0.0,0.0,0.0,0.0,0.0,0.0,0.0,0.0,0.0,0.0,0.0,0.0,0.0,0.0,0.0,0.0,0.0,0.0,0.0,0.0,0.0,0.0,0.0,0.0,0.0,0.0,0.0,0.0,0.0,0.0,0.0,0.0,0.0,0.0,0.0,5.0433,4.9548,4.8933,4.8586,4.8086,4.7543,4.6889,0.0,0.0,0.0,0.0,0.0,0.0,0.0,0.0,0.0,0.0,0.0,0.0,0.0,0.0,0.0,0.0,0.0,0.0,0.0,0.0,0.0,0.0,0.0,0.0,0.0,0.0,0.0,0.0,0.0,0.0,0.0,0.0,0.0,0.0,0.0,0.0,0.0,0.0,0.0,0.0,0.0,0.0,0.0,0.0,0.0,0.0,0.0,0.0,0.0,0.0,0.0,0.0,0.0,0.0,0.0,0.0,0.0,0.0,0.0,0.0,0.0,0.0,0.0,0.0,0.0,0.0,0.0,0.0,0.0,0.0,0.0,0.0,0.0,0.0,0.0,0.0,0.0,0.0,0.0,0.0,0.0,0.0,0.0,0.0,0.0,0.0,0.0,0.0,0.0,0.0,0.0,0.0,0.0,0.0,0.0,0.0,0.0,0.0,0.0,0.0,0.0,0.0,0.0,0.0,0.0,0.0,0.0,0.0,5.4544,5.2323,5.0707,4.9745,4.9625,4.8779,0.0,0.0,0.0,0.0,0.0,0.0,0.0,0.0,0.0,0.0,0.0,0.0,0.0,0.0,0.0,0.0,0.0,0.0,0.0,0.0,0.0,0.0,0.0,0.0,0.0,0.0,0.0,0.0,0.0,0.0,0.0,0.0,0.0,0.0,0.0,0.0,0.0,0.0,0.0,0.0,0.0,0.0,0.0,0.0,0.0,0.0,0.0,0.0,0.0,0.0,0.0,0.0,0.0,0.0,0.0,0.0,0.0,0.0,0.0,0.0,0.0,0.0,0.0,0.0,0.0,0.0,0.0,0.0,0.0,0.0,0.0,0.0,0.0,0.0,0.0,0.0,0.0,0.0,0.0,0.0,0.0,0.0,0.0,0.0,0.0,0.0,0.0,0.0,0.0,0.0,0.0,0.0,0.0,0.0,0.0,0.0,0.0,0.0,0.0,0.0,0.0,0.0,0.0,0.0,0.0,0.0,0.0,0.0,0.0,5.5253,5.5951,5.5318,5.3241,5.1928,5.0774,0.0,0.0,0.0,0.0,0.0,0.0,0.0,0.0,0.0,0.0,0.0,0.0,0.0,0.0,0.0,0.0,0.0,0.0,0.0,0.0,0.0,0.0,0.0,0.0,0.0,0.0,0.0,0.0,0.0,0.0,0.0,0.0,0.0,0.0,0.0,0.0,0.0,0.0,0.0,0.0,0.0,0.0,0.0,0.0,0.0,0.0,0.0,0.0,0.0,0.0,0.0,0.0,0.0,0.0,0.0,0.0,0.0,0.0,0.0,0.0,0.0,0.0,0.0,0.0,0.0,0.0,0.0,0.0,0.0,0.0,0.0,0.0,0.0,0.0,0.0,0.0,0.0,0.0,0.0,0.0,0.0,0.0,0.0,0.0,0.0,0.0,0.0,0.0,0.0,0.0,0.0,0.0,0.0,0.0,0.0,0.0,0.0,0.0,0.0,0.0,0.0,0.0,0.0,0.0,0.0,0.0,0.0,0.0,5.541,5.6618,5.8081,5.8127,5.6626,5.4587,5.2626,0.0,0.0,0.0,0.0,0.0,0.0,0.0,0.0,0.0,0.0,0.0,0.0,0.0,0.0,0.0,0.0,0.0,0.0,0.0,0.0,0.0,0.0,0.0,0.0,0.0,0.0,0.0,0.0,0.0,0.0,0.0,0.0,0.0,0.0,0.0,0.0,0.0,0.0,0.0,0.0,0.0,0.0,0.0,0.0,0.0,0.0,0.0,0.0,0.0,0.0,0.0,0.0,0.0,0.0,0.0,0.0,0.0,0.0,0.0,0.0,0.0,0.0,0.0,0.0,0.0,0.0,0.0,0.0,0.0,0.0,0.0,0.0,0.0,0.0,0.0,0.0,0.0,0.0,0.0,0.0,0.0,0.0,0.0,0.0,0.0,0.0,0.0,0.0,0.0,0.0,0.0,0.0,0.0,0.0,0.0,0.0,0.0,0.0,0.0,0.0,0.0,0.0,0.0,0.0,0.0,0.0,0.0,0.0,5.6352,5.8112,5.911,5.956,5.9435,5.7126,5.4362,0.0,0.0,0.0,0.0,0.0,0.0,0.0,0.0,0.0,0.0,0.0,0.0,0.0,0.0,0.0,0.0,0.0,0.0,0.0,0.0,0.0,0.0,0.0,0.0,0.0,0.0,0.0,0.0,0.0,0.0,0.0,0.0,0.0,0.0,0.0,0.0,0.0,0.0,0.0,0.0,0.0,0.0,0.0,0.0,0.0,0.0,0.0,0.0,0.0,0.0,0.0,0.0,0.0,0.0,0.0,0.0,0.0,0.0,0.0,0.0,0.0,0.0,0.0,0.0,0.0,0.0,0.0,0.0,0.0,0.0,0.0,0.0,0.0,0.0,0.0,0.0,0.0,0.0,0.0,0.0,0.0,0.0,0.0,0.0,0.0,0.0,0.0,0.0,0.0,0.0,0.0,0.0,0.0,0.0,0.0,0.0,0.0,0.0,0.0,0.0,0.0,0.0,0.0,0.0,0.0,0.0,0.0,0.0,5.6913,5.8679,5.9654,5.992,5.9506,5.7703,5.5785,0.0,0.0,0.0,0.0,0.0,0.0,0.0,0.0,0.0,0.0,0.0,0.0,0.0,0.0,0.0,0.0,0.0,0.0,0.0,0.0,0.0,0.0,0.0,0.0,0.0,0.0,0.0,0.0,0.0,0.0,0.0,0.0,0.0,0.0,0.0,0.0,0.0,0.0,0.0,0.0,0.0,0.0,0.0,0.0,0.0,0.0,0.0,0.0,4.5762,0.0,0.0,0.0,0.0,0.0,0.0,0.0,0.0,0.0,0.0,0.0,0.0,0.0,0.0,0.0,0.0,0.0,0.0,0.0,0.0,0.0,0.0,0.0,0.0,0.0,0.0,0.0,0.0,0.0,0.0,0.0,0.0,0.0,0.0,0.0,0.0,0.0,0.0,0.0,0.0,0.0,0.0,0.0,0.0,0.0,0.0,0.0,0.0,0.0,0.0,0.0,0.0,0.0,0.0,0.0,0.0,0.0,0.0,0.0,5.7665,5.8637,6.0081,6.0554,5.9862,5.8762,5.7209,0.0,0.0,0.0,0.0,0.0,0.0,0.0,0.0,0.0,0.0,0.0,0.0,0.0,0.0,0.0,0.0,0.0,0.0,0.0,0.0,0.0,0.0,0.0,0.0,0.0,0.0,0.0,0.0,0.0,0.0,0.0,0.0,0.0,0.0,0.0,0.0,0.0,0.0,0.0,0.0,0.0,0.0,0.0,0.0,0.0,0.0,0.0,0.0,0.0,0.0,0.0,0.0,0.0,0.0,0.0,0.0,0.0,0.0,0.0,0.0,0.0,0.0,0.0,0.0,0.0,0.0,0.0,0.0,0.0,0.0,0.0,0.0,0.0,0.0,0.0,0.0,0.0,0.0,0.0,0.0,0.0,0.0,0.0,0.0,0.0,0.0,0.0,0.0,0.0,0.0,0.0,0.0,0.0,0.0,0.0,0.0,0.0,0.0,0.0,0.0,0.0,0.0,0.0,0.0,0.0,0.0,0.0,5.741,5.8627,5.8693,6.0525,6.1127,6.0339,5.9753,5.8417,5.6154,0.0,0.0,0.0,0.0,0.0,0.0,0.0,0.0,0.0,0.0,0.0,0.0,0.0,0.0,0.0,0.0,0.0,0.0,0.0,0.0,0.0,0.0,0.0,0.0,0.0,0.0,0.0,0.0,0.0,0.0,0.0,0.0,0.0,0.0,0.0,0.0,0.0,0.0,4.1971,4.3971,0.0,0.0,0.0,0.0,0.0,0.0,0.0,0.0,4.8335,0.0,0.0,0.0,0.0,0.0,0.0,0.0,0.0,0.0,0.0,0.0,0.0,0.0,0.0,0.0,0.0,0.0,0.0,0.0,0.0,0.0,0.0,0.0,0.0,0.0,0.0,0.0,0.0,0.0,0.0,0.0,0.0,0.0,0.0,0.0,0.0,0.0,0.0,0.0,0.0,0.0,0.0,0.0,0.0,0.0,0.0,0.0,0.0,0.0,0.0,0.0,0.0,0.0,0.0,0.0,0.0,5.7384,5.8803,5.9688,6.0135,6.101,6.1141,6.03,5.9709,5.8898,5.7784,0.0,0.0,0.0,0.0,0.0,0.0,0.0,0.0,0.0,0.0,0.0,0.0,0.0,0.0,0.0,0.0,0.0,0.0,0.0,0.0,0.0,0.0,0.0,0.0,0.0,0.0,0.0,0.0,0.0,0.0,0.0,0.0,0.0,0.0,0.0,0.0,0.0,0.0,0.0,4.5671,4.7097,0.0,0.0,0.0,0.0,0.0,0.0,0.0,0.0,5.0435,0.0,0.0,0.0,0.0,0.0,0.0,0.0,0.0,0.0,0.0,0.0,0.0,0.0,0.0,0.0,0.0,0.0,0.0,0.0,0.0,0.0,0.0,0.0,0.0,0.0,0.0,0.0,0.0,0.0,0.0,0.0,0.0,0.0,0.0,0.0,0.0,0.0,0.0,0.0,0.0,0.0,0.0,0.0,0.0,0.0,0.0,0.0,0.0,0.0,0.0,0.0,0.0,0.0,0.0,0.0,5.792,5.9452,6.0488,6.1131,6.2211,6.2093,6.0731,6.0698,5.9855,0.0,0.0,0.0,0.0,0.0,0.0,0.0,0.0,0.0,0.0,0.0,0.0,0.0,0.0,0.0,0.0,0.0,0.0,0.0,0.0,0.0,0.0,0.0,0.0,0.0,0.0,0.0,0.0,0.0,0.0,0.0,0.0,0.0,0.0,0.0,0.0,0.0,0.0,0.0,0.0,4.7737,4.8869,5.0618,0.0,0.0,0.0,0.0,0.0,0.0,5.1682,5.1404,0.0,0.0,0.0,0.0,0.0,0.0,0.0,0.0,0.0,0.0,0.0,0.0,0.0,0.0,0.0,0.0,0.0,0.0,0.0,0.0,0.0,0.0,0.0,0.0,0.0,0.0,0.0,0.0,0.0,0.0,0.0,0.0,0.0,0.0,0.0,0.0,0.0,0.0,0.0,0.0,0.0,0.0,0.0,0.0,0.0,0.0,0.0,0.0,0.0,0.0,0.0,0.0,0.0,0.0,0.0,5.8474,6.015,6.1185,6.1751,6.3302,6.3062,6.0979,6.1548,6.0591,0.0,0.0,0.0,0.0,0.0,0.0,0.0,0.0,0.0,0.0,0.0,0.0,0.0,0.0,0.0,0.0,0.0,0.0,0.0,0.0,0.0,0.0,0.0,0.0,0.0,0.0,0.0,0.0,0.0,0.0,0.0,0.0,0.0,0.0,0.0,0.0,0.0,0.0,0.0,0.0,0.0,5.0701,5.3202,5.275,0.0,0.0,0.0,0.0,5.3303,5.2756,0.0,0.0,0.0,0.0,0.0,0.0,0.0,0.0,0.0,0.0,0.0,0.0,0.0,0.0,0.0,0.0,0.0,0.0,0.0,0.0,0.0,0.0,0.0,0.0,0.0,0.0,0.0,0.0,0.0,0.0,0.0,0.0,0.0,0.0,0.0,0.0,0.0,0.0,0.0,0.0,0.0,0.0,0.0,0.0,0.0,0.0,0.0,0.0,0.0,0.0,0.0,0.0,0.0,0.0,0.0,0.0,6.0135,6.151,6.201,6.1788,6.3566,6.3225,6.0487,6.1256,6.0571,0.0,0.0,0.0,0.0,0.0,0.0,0.0,0.0,0.0,0.0,0.0,0.0,0.0,0.0,0.0,0.0,0.0,0.0,0.0,0.0,0.0,0.0,0.0,0.0,0.0,0.0,0.0,0.0,0.0,0.0,0.0,0.0,0.0,0.0,0.0,0.0,0.0,0.0,0.0,0.0,0.0,5.1862,5.3308,5.3986,5.4055,0.0,0.0,5.3938,5.3439,5.49,0.0,0.0,0.0,0.0,0.0,0.0,0.0,0.0,0.0,0.0,0.0,0.0,0.0,0.0,0.0,0.0,0.0,0.0,0.0,0.0,0.0,0.0,0.0,0.0,0.0,0.0,0.0,0.0,0.0,0.0,0.0,0.0,0.0,0.0,0.0,0.0,0.0,0.0,0.0,0.0,0.0,0.0,0.0,0.0,0.0,0.0,0.0,0.0,0.0,0.0,0.0,0.0,0.0,0.0,0.0,5.8136,6.0387,6.192,6.2897,6.3406,6.4428,6.4176,6.2531,6.2449,6.1388,0.0,0.0,0.0,0.0,0.0,0.0,0.0,0.0,0.0,0.0,0.0,0.0,0.0,0.0,0.0,0.0,0.0,0.0,0.0,0.0,0.0,0.0,0.0,0.0,0.0,0.0,0.0,0.0,0.0,0.0,0.0,0.0,0.0,0.0,0.0,0.0,0.0,0.0,0.0,0.0,0.0,0.0,5.4627,5.5401,0.0,0.0,0.0,5.6878,5.6118,0.0,0.0,0.0,0.0,0.0,0.0,0.0,0.0,0.0,0.0,0.0,0.0,0.0,0.0,0.0,0.0,0.0,0.0,0.0,0.0,0.0,0.0,0.0,0.0,0.0,0.0,0.0,0.0,0.0,0.0,0.0,0.0,0.0,0.0,0.0,0.0,0.0,0.0,0.0,0.0,0.0,0.0,0.0,0.0,0.0,0.0,0.0,0.0,0.0,0.0,0.0,0.0,0.0,0.0,0.0,0.0,0.0,6.0693,6.217,6.3371,6.4358,6.4975,6.4847,6.3939,6.343,0.0,0.0,0.0,0.0,0.0,0.0,0.0,0.0,0.0,0.0,0.0,0.0,0.0,0.0,0.0,0.0,0.0,0.0,0.0,0.0,0.0,0.0,0.0,0.0,0.0,0.0,0.0,4.3909,0.0,0.0,0.0,0.0,0.0,0.0,0.0,0.0,0.0,0.0,0.0,0.0,0.0,0.0,5.4886,5.6209,5.7264,5.7809,0.0,0.0,5.8905,5.8389,5.829,5.7902,0.0,0.0,0.0,0.0,0.0,0.0,0.0,0.0,0.0,0.0,0.0,0.0,0.0,0.0,0.0,0.0,0.0,0.0,0.0,0.0,0.0,0.0,0.0,0.0,0.0,0.0,0.0,0.0,0.0,0.0,0.0,0.0,0.0,0.0,0.0,0.0,0.0,0.0,0.0,0.0,0.0,0.0,0.0,0.0,0.0,0.0,0.0,0.0,0.0,0.0,0.0,0.0,0.0,0.0,0.0,6.1452,6.2433,6.3126,6.3574,6.47,6.4666,6.3386,6.3594,6.2666,0.0,0.0,0.0,0.0,0.0,0.0,0.0,0.0,0.0,0.0,0.0,0.0,0.0,0.0,0.0,0.0,0.0,0.0,0.0,0.0,0.0,0.0,0.0,0.0,0.0,0.0,0.0,0.0,0.0,0.0,0.0,0.0,0.0,0.0,0.0,0.0,0.0,0.0,0.0,0.0,0.0,5.6995,5.7908,5.9671,6.0497,0.0,0.0,5.8884,5.9087,5.9159,5.8527,5.6707,0.0,0.0,0.0,0.0,0.0,0.0,0.0,0.0,0.0,0.0,0.0,0.0,0.0,0.0,0.0,0.0,0.0,0.0,0.0,0.0,0.0,0.0,0.0,0.0,0.0,0.0,0.0,0.0,0.0,0.0,0.0,0.0,0.0,0.0,0.0,0.0,0.0,0.0,0.0,0.0,0.0,0.0,0.0,0.0,0.0,0.0,0.0,0.0,0.0,0.0,0.0,0.0,0.0,5.9983,6.1257,6.255,6.3424,6.3811,6.4538,6.4808,6.4541,6.4062,6.3404,0.0,0.0,0.0,0.0,0.0,0.0,0.0,0.0,0.0,0.0,0.0,0.0,0.0,0.0,0.0,0.0,0.0,0.0,0.0,0.0,0.0,0.0,0.0,0.0,0.0,0.0,0.0,0.0,4.9422,4.9933,5.0026,0.0,0.0,0.0,0.0,0.0,0.0,0.0,0.0,0.0,0.0,5.8559,5.9666,6.0432,0.0,0.0,6.0657,6.0673,6.12,6.0736,5.9987,5.9087,5.8218,0.0,0.0,0.0,0.0,0.0,0.0,0.0,0.0,0.0,0.0,0.0,0.0,0.0,0.0,0.0,0.0,0.0,0.0,0.0,0.0,0.0,0.0,0.0,0.0,0.0,0.0,0.0,0.0,0.0,0.0,0.0,0.0,0.0,0.0,0.0,0.0,0.0,0.0,0.0,0.0,0.0,0.0,0.0,0.0,0.0,0.0,0.0,0.0,0.0,0.0,0.0,0.0,6.0623,6.1473,6.269,6.3527,6.3946,6.4292,6.4681,6.5153,6.4297,6.376,0.0,0.0,0.0,0.0,0.0,0.0,0.0,0.0,0.0,0.0,0.0,0.0,0.0,0.0,0.0,0.0,0.0,0.0,0.0,0.0,0.0,0.0,0.0,0.0,0.0,0.0,0.0,0.0,5.1017,5.1337,5.1582,0.0,0.0,0.0,0.0,0.0,0.0,0.0,0.0,0.0,0.0,5.9968,6.0952,6.1388,6.1707,6.1996,6.186,6.1975,6.2839,6.1782,6.0779,6.0532,0.0,0.0,0.0,0.0,0.0,0.0,0.0,0.0,0.0,0.0,0.0,0.0,0.0,0.0,0.0,0.0,0.0,0.0,0.0,0.0,0.0,0.0,0.0,0.0,0.0,0.0,0.0,0.0,0.0,0.0,5.016,0.0,0.0,0.0,0.0,0.0,0.0,0.0,0.0,0.0,0.0,0.0,0.0,0.0,0.0,0.0,0.0,0.0,0.0,0.0,0.0,0.0,0.0,0.0,6.2253,6.2868,6.3391,6.3782,6.3825,6.4215,6.4959,6.4207,6.3671,6.3394,0.0,0.0,0.0,0.0,0.0,0.0,0.0,0.0,0.0,0.0,0.0,0.0,0.0,0.0,0.0,0.0,0.0,0.0,0.0,0.0,0.0,0.0,0.0,0.0,0.0,0.0,5.1785,5.1568,5.1448,0.0,0.0,0.0,0.0,0.0,0.0,0.0,0.0,0.0,0.0,6.0348,6.1284,6.1743,6.2832,6.3305,6.2685,6.2273,6.2459,6.3534,6.1932,6.0496,0.0,0.0,0.0,0.0,0.0,0.0,0.0,0.0,0.0,0.0,0.0,0.0,0.0,0.0,0.0,0.0,0.0,0.0,0.0,0.0,0.0,0.0,0.0,0.0,0.0,0.0,0.0,5.0914,5.2681,0.0,0.0,0.0,0.0,0.0,0.0,0.0,0.0,0.0,0.0,0.0,6.0433,6.0433,0.0,0.0,0.0,0.0,0.0,0.0,0.0,0.0,0.0,0.0,0.0,0.0,6.1752,6.2253,6.2896,6.3312,6.3527,6.3798,6.4053,6.4321,6.3992,6.3377,6.2502,0.0,0.0,0.0,0.0,0.0,0.0,0.0,0.0,0.0,0.0,0.0,0.0,0.0,0.0,0.0,0.0,0.0,0.0,0.0,0.0,0.0,0.0,0.0,0.0,0.0,5.3079,0.0,0.0,0.0,0.0,0.0,0.0,0.0,0.0,0.0,0.0,0.0,5.6989,5.9597,6.1016,6.1983,6.252,6.2672,6.2717,0.0,0.0,0.0,0.0,0.0,0.0,0.0,0.0,0.0,0.0,0.0,0.0,0.0,0.0,5.1151,4.9018,4.8565,4.8071,4.6766,0.0,0.0,0.0,0.0,0.0,0.0,0.0,0.0,0.0,0.0,0.0,0.0,0.0,0.0,0.0,0.0,5.5945,0.0,0.0,0.0,0.0,0.0,0.0,0.0,0.0,6.1806,6.2313,6.2607,6.2618,6.2051,0.0,6.1257,6.0438,0.0,0.0,0.0,0.0,0.0,0.0,0.0,0.0,6.2288,6.2477,6.2865,6.3099,6.3194,6.346,6.3657,6.3819,6.4016,6.3676,6.2731,6.2014,6.124,0.0,0.0,0.0,0.0,0.0,0.0,0.0,0.0,0.0,0.0,0.0,0.0,0.0,0.0,0.0,0.0,0.0,0.0,0.0,0.0,0.0,0.0,0.0,5.4015,0.0,0.0,0.0,0.0,0.0,0.0,0.0,0.0,0.0,5.5865,5.7098,5.8701,6.051,6.1595,6.2362,6.2836,0.0,0.0,0.0,0.0,0.0,0.0,0.0,6.1861,6.1918,6.1652,6.0957,5.9498,5.7503,5.5834,5.513,0.0,0.0,5.0406,4.9648,4.8894,4.7255,4.6836,4.6852,4.7192,4.7171,4.7006,0.0,0.0,0.0,0.0,0.0,0.0,0.0,0.0,5.5965,5.6805,0.0,5.8326,0.0,0.0,0.0,0.0,0.0,6.0361,0.0,0.0,6.3812,6.4607,6.542,6.5432,6.4647,6.3162,6.3687,6.3284,6.1962,6.0067,0.0,0.0,0.0,0.0,0.0,0.0,6.2528,6.3026,6.2929,6.2805,6.2818,6.2818,6.3026,6.3531,6.431,6.4521,6.4141,6.3431,6.3112,6.3097,6.0282,0.0,0.0,0.0,0.0,0.0,0.0,0.0,0.0,0.0,0.0,0.0,0.0,0.0,0.0,0.0,0.0,0.0,0.0,0.0,0.0,5.3937,0.0,0.0,0.0,0.0,0.0,0.0,0.0,0.0,0.0,0.0,5.7503,5.8787,6.0237,6.1615,0.0,0.0,0.0,0.0,6.2828,6.3208,6.3364,6.3478,6.3547,6.3072,6.2498,6.1876,0.0,0.0,5.9449,5.7616,5.6187,5.5556,5.4776,5.37,5.1837,5.052,4.9346,4.7948,4.7598,4.759,4.7646,4.765,4.7589,5.8493,0.0,0.0,0.0,0.0,5.62,5.779,6.0351,5.9747,6.024,6.1459,6.0871,0.0,0.0,0.0,0.0,0.0,0.0,6.3174,6.4669,6.4886,6.5107,6.5353,6.5353,6.5096,6.4655,6.4844,6.4451,6.3554,6.3469,6.3144,6.2495,0.0,0.0,0.0,0.0,6.3763,6.3947,6.3309,6.2978,6.3063,6.299,6.3272,6.3923,6.4708,6.5087,6.4971,6.4739,6.4154,6.31,6.2215,0.0,0.0,0.0,0.0,0.0,0.0,0.0,0.0,0.0,0.0,0.0,0.0,0.0,0.0,0.0,0.0,0.0,0.0,0.0,5.5548,5.5204,5.5094,0.0,0.0,0.0,0.0,0.0,0.0,0.0,0.0,0.0,5.8944,5.9563,6.0559,0.0,0.0,6.24,6.2459,6.263,6.2707,6.2654,0.0,0.0,0.0,6.2943,6.2586,6.1607,6.0214,5.9019,5.831,5.7205,5.6335,5.6118,5.4914,5.3506,5.2214,5.0789,4.9432,4.8136,4.7746,4.7817,4.7963,4.8057,4.7736,6.2635,6.122,5.9469,5.929,6.0149,6.0187,6.1433,6.339,6.2921,6.3124,6.3747,6.3282,6.2842,6.2475,6.2463,0.0,0.0,0.0,6.4594,6.5778,6.5765,6.5949,6.6256,6.6256,6.6072,6.5778,6.5962,6.5704,6.5057,6.5741,6.573,6.5103,0.0,0.0,6.4943,6.4795,6.4733,6.4721,6.4204,6.3947,6.4021,6.3947,6.4129,6.4567,6.5325,6.5765,6.5765,6.5778,6.5327,6.4412,6.3419,6.2058,0.0,0.0,0.0,0.0,0.0,0.0,0.0,0.0,0.0,0.0,0.0,5.3351,0.0,0.0,0.0,0.0,5.5497,5.597,5.6447,5.6058,0.0,0.0,0.0,0.0,0.0,0.0,0.0,5.8259,5.9426,6.0166,6.0291,6.0691,6.1332,6.2299,6.2415,6.2415,6.2415,0.0,6.2518,6.24,6.2615,6.2562,6.211,6.2116,6.1843,6.0807,5.9288,5.8126,5.7809,5.6659,5.565,5.5225,5.3759,5.2153,5.1344,5.0132,4.8993,4.8164,4.799,4.7864,4.7508,4.7412,4.7002,6.5888,6.6347,6.3414,6.2782,6.3702,6.3728,6.4412,6.5485,6.5398,6.5398,6.5398,6.5325,6.5325,6.5288,6.5325,0.0,6.5398,6.5398,6.5815,6.6586,6.6599,6.699,6.77,6.77,6.7333,6.6599,6.7037,6.6975,6.6528,6.6988,6.7346,6.758,6.6312,6.5677,6.5677,6.5604,6.554,6.5398,6.5338,6.5288,6.5288,6.5362,6.5398,6.5398,6.6182,6.6586,6.6586,6.6586,6.6549,6.6402,6.4334,6.305,6.2829,0.0,0.0,0.0,0.0,0.0,0.0,0.0,0.0,0.0,0.0,0.0,0.0,0.0,0.0,0.0,5.7219,0.0,5.6794,5.6689,0.0,0.0,0.0,5.73,5.8061,5.8147,5.8599,5.9713,0.0,0.0,6.1431,0.0,6.2415,6.2415,6.2415,6.2415,6.2415,6.2434,6.2415,6.2415,6.2434,6.207,6.1288,6.0903,6.0428,5.9576,5.8685,5.786,5.7379,5.5912,5.4451,5.3814,5.1814,5.0255,4.999,4.9047,4.8172,4.8204,4.8149,4.7717,4.6543,4.6109,4.5585,6.6659,6.7347,6.659,6.6099,6.5801,6.5788,6.6312,6.7076,6.6476,6.6219,6.6182,6.5582,6.5325,6.5325,6.5325,6.5632,6.6219,6.6219,6.6659,6.7407,6.7407,6.7517,6.77,6.77,6.759,6.742,6.7529,6.7221,6.6562,6.7221,6.7295,6.6819,6.7029,6.7203,6.7153,6.6565,6.6245,6.6219,6.5595,6.5325,6.5325,6.5888,6.6219,6.6219,6.7003,6.7407,6.7407,6.7444,6.7113,6.6512,6.5962,6.5044,6.3833,6.2313,0.0,0.0,0.0,0.0,0.0,0.0,0.0,0.0,0.0,5.6893,5.8219,0.0,5.9076,0.0,5.8719,5.8393,5.8791,5.7341,0.0,0.0,5.8117,5.8409,5.9162,5.9585,5.9937,6.0238,6.0766,6.121,6.1322,6.198,6.2415,6.2415,6.2415,6.2415,6.2415,6.2415,6.2415,6.2415,6.2381,6.205,6.1028,5.974,5.8751,5.8277,5.7441,5.6433,5.5295,5.4514,5.3663,5.265,5.1178,5.0076,4.9929,4.9014,4.8257,4.8146,4.7832,4.7143,4.5923,4.5099,4.3949,6.7297,6.77,6.77,6.7444,6.7026,6.7026,6.7297,6.7664,6.721,6.704,6.7003,6.6586,6.6366,6.6366,6.6366,6.6623,6.7026,6.704,6.7297,6.77,6.77,6.77,6.77,6.77,6.77,6.77,6.77,6.748,6.7063,6.748,6.748,6.704,6.748,6.77,6.7664,6.726,6.704,6.704,6.6586,6.6366,6.6366,6.6806,6.704,6.7076,6.748,6.77,6.77,6.77,6.748,6.7076,6.6696,6.6046,6.5063,6.338,6.193,0.0,0.0,0.0,0.0,0.0,0.0,0.0,0.0,0.0,0.0,0.0,6.0324,0.0,5.9871,5.9732,6.0065,5.8855,5.8517,5.9651,5.9429,5.9515,6.0297,6.0593,6.0928,6.1268,6.1579,6.1772,6.1806,6.2144,6.2243,6.185,6.1756,6.1931,6.2322,6.2415,6.2415,6.2415,6.203,6.1235,5.9816,5.8355,5.7423,5.7322,5.6499,5.5549,5.4926,5.3835,5.2812,5.2015,5.0825,4.9895,4.9844,4.8878,4.8039,4.7816,4.6721,4.553,4.4825,4.3802,4.2369,6.77,6.77,6.77,6.77,6.77,6.77,6.77,6.77,6.77,6.77,6.77,6.77,6.77,6.77,6.77,6.77,6.77,6.77,6.77,6.77,6.77,6.77,6.77,6.77,6.77,6.77,6.7811,6.7811,6.77,6.7811,6.7811,6.77,6.77,6.77,6.77,6.77,6.77,6.77,6.77,6.77,6.77,6.77,6.77,6.77,6.77,6.77,6.77,6.77,6.77,6.7664,6.7026,6.657,6.6349,6.3957,6.2536,0.0,6.039,0.0,0.0,0.0,0.0,0.0,0.0,0.0,0.0,6.0618,6.1286,6.0718,6.102,6.1163,6.1099,6.0811,6.088,6.1351,6.0825,6.0689,6.1332,6.1434,6.167,6.2333,6.2415,6.2361,6.2189,6.2223,6.1837,6.1007,6.0952,6.1281,6.1944,6.2031,6.1924,6.2145,6.1447,6.0315,5.8689,5.7418,5.6837,5.6909,5.6068,5.5249,5.5282,5.3527,5.1936,5.1454,5.0585,4.9846,4.9711,4.86,4.7764,4.7452,4.5503,4.3821,4.3388,4.2387,4.0953,6.77,6.77,6.77,6.77,6.77,6.77,6.77,6.77,6.77,6.77,6.77,6.77,6.77,6.77,6.77,6.77,6.77,6.77,6.77,6.77,6.77,6.77,6.77,6.77,6.77,6.7737,6.8348,6.8348,6.77,6.8385,6.8348,6.77,6.77,6.77,6.77,0.0,0.0,0.0,6.77,6.77,6.77,6.77,6.77,6.77,6.77,0.0,6.77,6.77,6.77,6.77,6.7554,0.0,0.0,0.0,0.0,0.0,0.0,0.0,0.0,0.0,0.0,0.0,6.2023,6.2039,6.1742,6.2293,6.2855,6.3281,6.2768,6.26,6.314,6.2489,6.2067,6.2164,6.2042,6.2042,6.2178,6.2158,6.2245,6.24,6.2415,6.2104,6.1491,6.1235,6.0936,6.0163,6.0347,6.0716,6.0903,6.0576,6.0391,6.0783,6.0603,6.0136,5.9521,5.8499,5.7573,5.7406,5.6403,5.5215,5.4119,5.2836,5.1404,5.0533,5.0074,4.952,4.846,4.7951,4.7417,4.6375,4.4892,4.3421,4.2308,4.1081,3.9772,6.8054,0.0,6.77,6.77,0.0,6.77,6.7907,6.8274,6.7884,6.77,6.77,6.77,6.77,6.77,6.77,6.77,6.77,6.77,6.77,6.77,6.77,6.7907,6.8311,6.8311,6.8495,6.8912,6.9302,6.9265,6.8912,6.9302,6.9082,6.8311,6.8274,6.8091,6.77,6.77,6.77,6.77,6.77,6.77,6.77,6.77,6.77,6.77,0.0,0.0,0.0,0.0,0.0,0.0,0.0,0.0,0.0,0.0,0.0,6.4874,6.33,6.2447,6.2611,6.2474,6.2492,6.2662,6.3025,6.3252,6.3364,6.3152,6.3322,6.404,6.3898,6.3931,6.4251,6.3404,6.2915,6.3208,6.2511,6.2004,6.2037,6.1983,6.1983,6.2049,6.2293,6.2298,6.1863,6.1797,6.142,6.055,6.0367,6.0284,5.99,6.0248,6.057,6.0242,5.9918,5.9252,5.8004,5.745,5.6816,5.6032,5.4924,5.4064,5.3566,5.249,5.124,5.0043,4.9891,4.9596,4.8253,4.7423,4.676,4.5961,4.4352,4.2888,4.1968,4.1046,3.993,6.8715,6.8141,6.8104,6.8141,6.8141,6.8141,6.8508,6.9082,0.0,0.0,0.0,6.7921,6.7921,6.7921,6.8068,6.8141,6.8141,6.8141,6.8104,6.8104,6.8141,6.8458,6.9119,6.9119,6.9449,7.0073,7.0257,7.022,7.011,7.022,6.9889,6.9192,6.9119,6.8715,6.7944,6.7921,6.7847,6.77,6.77,6.77,6.77,6.7847,6.7921,6.7921,6.8068,6.8141,6.8141,6.8141,6.8141,6.8141,6.8104,6.8069,6.7915,6.6529,6.5658,6.5502,6.4069,6.3345,6.3673,6.3564,6.3535,6.368,6.3879,6.4122,6.4472,6.3751,6.3582,6.4298,6.4632,6.4898,6.5155,6.4009,6.3485,6.4101,6.284,6.1957,6.1804,6.1911,6.2058,6.2008,6.2497,6.2699,6.2494,6.2471,6.218,6.1291,6.0786,6.0287,5.9756,6.0411,6.0646,5.9892,5.939,5.8374,5.6702,5.5981,5.5439,5.4884,5.3751,5.3063,5.3302,5.2709,5.1442,5.0139,5.0127,4.9611,4.818,4.69,4.603,4.58,4.3947,4.2324,4.2224,4.1644,4.0842,6.9853,6.9779,6.9756,6.9779,6.9779,6.9743,6.9816,6.9853,6.9082,6.8715,6.8752,6.8752,6.8752,6.8788,6.9449,6.9779,6.9743,6.9743,6.9743,0.0,6.9756,6.9816,6.9926,6.9926,7.0,7.0146,7.0807,7.077,7.0257,7.0807,7.072,7.0036,6.9926,6.9522,6.8788,6.8715,6.8385,6.7737,6.77,6.77,6.77,6.8385,6.8752,6.8752,6.9412,6.9743,6.9756,6.9756,6.9779,6.9756,6.9743,6.9768,6.9693,6.8925,6.8531,6.852,6.7727,6.7007,6.6455,6.6382,6.606,6.5259,6.4937,6.4772,6.4812,6.4544,6.4695,6.5352,6.4832,6.4929,6.6163,6.4817,6.3819,6.4089,6.3731,6.3139,6.2538,6.2901,6.32,6.3177,6.3382,6.3108,6.2502,6.2355,6.204,6.1266,6.1328,6.1521,6.1265,6.0562,5.9742,5.9379,5.878,5.8083,5.7149,5.6392,5.5621,5.533,5.4488,5.3846,5.3882,5.325,5.2168,5.0995,5.0556,4.9692,4.7434,4.6468,4.5649,4.4771,4.3727,4.3129,4.272,4.2328,4.1895,7.1138,7.0734,7.0293,7.011,7.011,7.055,7.077,7.0734,7.0353,6.9963,6.9559,6.9559,6.9559,6.9596,6.9926,7.011,7.011,7.011,7.011,7.011,7.011,7.033,7.0734,7.072,7.0991,7.1394,7.1762,7.1762,7.1468,7.1798,7.1527,7.077,7.033,6.9889,6.9559,6.9559,6.9596,6.9633,6.8788,6.8531,6.9022,6.9779,7.0206,7.0206,7.0573,7.055,7.011,7.011,7.011,7.011,6.9748,6.9687,7.0061,6.9072,6.8699,6.9145,6.8532,6.7886,6.7458,6.7204,6.7058,6.695,6.6704,6.6458,6.6338,6.6007,6.5838,6.6019,6.5958,6.6008,6.6215,6.4963,6.4109,6.4223,6.3634,6.3073,6.2802,6.2959,6.3173,6.3179,6.3494,6.3535,6.3126,6.3079,6.2975,6.2478,6.2337,6.1758,6.0606,5.9917,5.9444,5.9391,5.8991,5.7974,5.6694,5.592,5.5194,5.4483,5.3779,5.3223,5.272,5.2116,5.0944,4.9213,4.8916,4.8158,4.6029,4.5493,4.5023,4.4433,4.3811,4.3246,4.2277,4.1085,4.0212,7.2665,7.2041,7.1248,7.0807,7.0697,7.1321,7.1564,7.1564,7.1564,7.1211,7.066,7.0477,7.0367,7.0403,7.055,7.066,7.0624,7.066,7.066,7.066,7.0624,7.0991,7.1527,7.1564,7.1894,7.2459,7.2532,7.2532,7.2532,7.2532,7.2312,7.1784,7.1064,7.0734,7.0895,7.055,7.066,7.1197,7.0059,6.9729,7.0367,7.0977,7.1307,7.1307,7.149,7.1284,7.0697,7.0624,7.0567,7.0411,6.9854,6.9751,7.0087,6.9159,6.8877,6.9488,6.8947,6.8455,6.8247,6.7843,6.7755,6.8043,6.7916,6.7614,6.7153,6.6967,6.6646,6.6321,6.6401,6.6374,6.5756,6.4475,6.3795,6.3948,6.3183,6.2562,6.2579,6.2829,6.3014,6.3075,6.3629,6.3971,6.3587,6.3473,6.3171,6.2683,6.2301,6.099,5.9222,5.9207,5.9392,5.8894,5.8457,5.7258,5.5332,5.4556,5.3971,5.3078,5.2784,5.2162,5.1427,5.0677,4.9572,4.7818,4.7252,4.6811,4.5361,4.4753,4.457,4.4197,4.3494,4.2406,4.0763,3.9424,3.8333,7.461,7.4463,7.3634,7.2936,7.2275,7.2386,7.2386,7.2386,7.2386,7.2349,7.2129,7.149,7.1197,7.1307,7.1908,7.2202,7.2202,7.2275,7.2239,7.2202,7.2275,7.2312,7.2349,7.2386,7.2422,7.2532,7.2532,7.2532,7.2532,7.2532,7.2826,7.3303,7.2679,7.2606,7.3083,7.1908,7.127,7.1307,7.116,7.1087,7.116,7.127,7.1307,7.1307,7.2004,7.2349,7.2122,7.2275,7.1962,7.1345,7.1132,7.088,7.0429,7.022,7.0392,7.0877,7.0285,6.9797,6.9512,6.9327,6.8709,6.7936,6.7665,6.7089,6.616,6.6591,6.6647,6.5966,6.5098,6.5144,6.5528,6.362,6.2685,6.3292,6.2597,6.1902,6.2148,6.2983,6.3691,6.3722,6.4138,6.4234,6.2777,6.246,6.1922,6.0697,6.0559,6.0042,5.9076,5.9087,5.8702,5.7441,5.603,5.5009,5.4345,5.3001,5.2544,5.2098,5.2218,5.182,5.1008,5.0597,5.0284,4.7534,4.7004,4.6385,4.5518,4.4805,4.4239,4.3497,4.2388,4.0744,3.9258,3.8298,3.791,7.5616,7.5542,7.4735,7.3964,7.3266,7.3193,7.2936,7.2532,7.2532,7.2532,7.2496,7.2151,7.2004,7.2055,7.2349,7.2532,7.2532,7.2532,7.2532,7.2532,7.2532,7.2532,7.2532,7.2532,7.2532,7.2532,7.2532,7.2532,7.2569,7.2973,7.3634,7.4294,7.4074,7.4111,7.4294,7.3303,7.2922,7.3399,7.2481,7.2239,7.2679,7.2716,7.2716,7.2753,7.3046,7.2746,7.1964,7.1845,7.1516,7.077,7.0317,7.0204,7.0377,7.0008,6.9985,7.045,7.0006,6.9646,6.954,6.8793,6.8137,6.7673,6.7443,6.6802,6.577,6.6282,6.6312,6.5466,6.5455,6.5428,6.4675,6.361,6.3016,6.2984,6.2602,6.2491,6.2952,6.3418,6.3687,6.3358,6.335,6.287,6.1615,6.111,6.0378,5.9245,5.9218,5.9036,5.761,5.7693,5.7418,5.6097,5.4472,5.3811,5.3989,5.3713,5.3112,5.2893,5.2239,5.1284,5.058,4.9131,4.8017,4.6533,4.6065,4.5542,4.4816,4.4428,4.3936,4.2598,3.9945,3.7834,3.7099,3.6063,3.5231,7.6423,7.6313,7.5579,7.4771,7.4037,7.4037,7.356,7.2863,7.2826,7.2716,7.2532,7.2532,7.2532,7.2532,7.2532,7.2532,7.2532,7.2532,7.2532,7.2532,7.2532,7.2532,7.2532,7.2532,7.2532,7.2532,7.2532,7.2606,7.2863,7.3377,7.4132,7.4787,7.4705,7.4722,7.4785,7.3801,7.3509,7.4041,7.2744,7.2197,7.2619,7.2759,7.2872,7.3008,7.2872,7.2221,7.1167,7.1099,7.0773,7.0024,6.9474,6.9351,6.972,6.9248,6.9121,6.931,6.9088,6.8789,6.8577,6.7677,6.7015,6.6742,6.6477,6.5898,6.5103,6.5224,6.5103,6.4483,6.5027,6.48,6.4093,6.3475,6.2906,6.2177,6.2035,6.211,6.1951,6.2345,6.2318,6.1935,6.1704,6.1171,5.9904,5.907,5.8102,5.7452,5.7732,5.7532,5.5568,5.5508,5.557,5.4304,5.3096,5.2964,5.3551,5.2882,5.3059,5.2672,5.1306,5.0164,4.961,4.7582,4.6262,4.5552,4.4859,4.4134,4.3477,4.3231,4.2406,4.0081,3.7795,3.5873,3.5406,3.4034,3.3419,7.7252,7.7105,7.6387,7.5579,7.483,7.483,7.4404,7.3634,7.367,7.323,7.2606,7.2569,7.2532,7.2532,7.2532,7.2532,7.2532,7.2532,7.2532,7.2532,7.2532,7.2532,7.2532,7.2532,7.2518,7.2519,7.2504,7.2871,7.3545,7.3685,7.4162,7.4892,7.4336,7.4257,7.4546,7.2864,7.2063,7.2631,7.1342,7.0505,7.0524,7.056,7.0861,7.1388,7.0894,7.0541,7.0351,7.0351,7.0007,6.9273,6.9198,6.8898,6.8329,6.8207,6.8037,6.7687,6.7645,6.7341,6.6651,6.6162,6.561,6.4759,6.4539,6.4103,6.3225,6.3251,6.3179,6.2895,6.2991,6.3171,6.3262,6.2438,6.1412,6.0366,6.0084,5.9505,5.832,5.9568,5.9531,5.9461,5.971,5.9231,5.7815,5.6281,5.5598,5.5314,5.5319,5.4752,5.3621,5.3443,5.3163,5.2321,5.1909,5.2185,5.2461,5.1935,5.0624,5.0281,5.0117,4.8611,4.7201,4.6029,4.5299,4.4623,4.414,4.3359,4.2191,4.0919,3.9572,3.7993,3.6757,3.5325,3.4384,3.3829,3.3163,7.7326,7.7289,7.6995,7.6371,7.5726,7.5689,7.5212,7.4463,7.4478,7.4001,7.334,7.3266,7.2973,7.2532,7.2532,7.2532,7.2532,7.2532,7.2532,7.2532,7.2532,7.2532,7.2532,7.2532,7.2541,7.2579,7.2569,7.2951,7.368,7.3771,7.4193,7.483,7.4724,7.4511,7.4101,7.2976,7.2174,7.1834,7.0835,7.03,7.0214,6.9831,6.9761,6.9972,7.0197,7.0076,6.9618,6.96,6.9255,6.8517,6.8497,6.8304,6.7959,6.7658,6.7133,6.6385,6.6168,6.5707,6.4845,6.4031,6.3486,6.3103,6.286,6.2648,6.2346,6.2522,6.2499,6.1786,6.1371,6.1158,6.0623,6.0531,6.0161,5.9022,5.8572,5.8551,5.8782,5.9033,5.8983,5.8398,5.7791,5.6807,5.5992,5.4593,5.3665,5.3569,5.3085,5.2502,5.2124,5.2222,5.2259,5.1765,5.1082,5.0567,5.0689,5.0914,5.0472,4.9889,4.9298,4.8379,4.7166,4.5739,4.4884,4.409,4.3531,4.2525,4.1268,3.8785,3.7396,3.6677,3.5447,3.4547,3.364,3.3167,3.2595,7.6925,7.6925,7.6961,7.6648,7.6204,7.6405,7.6041,7.5344,7.527,7.4845,7.4184,7.4074,7.378,7.3266,7.301,7.3046,7.3179,7.2789,7.2532,7.2532,7.2532,7.2532,7.2452,7.2241,7.2167,7.2187,7.2253,7.2642,7.3387,7.3672,7.408,7.4571,7.4623,7.4244,7.3473,7.2479,7.1667,7.1066,7.0148,6.9565,6.9493,6.9124,6.8844,6.8919,6.9347,6.9383,6.8863,6.8825,6.8651,6.8182,6.8083,6.7865,6.7366,6.6946,6.6201,6.5227,6.4607,6.4054,6.3324,6.2393,6.1828,6.1803,6.1629,6.1427,6.1271,6.1622,6.133,6.0624,6.0232,5.9539,5.8544,5.8667,5.8581,5.7682,5.7415,5.7484,5.7905,5.7877,5.7618,5.6929,5.5637,5.4753,5.4216,5.2975,5.2251,5.2081,5.1558,5.1237,5.076,5.109,5.1201,5.0793,4.9865,4.9268,4.9065,4.907,4.8938,4.8447,4.7722,4.7158,4.6535,4.5233,4.4163,4.3465,4.2584,4.154,3.969,3.7077,3.5891,3.5325,3.4612,3.3747,3.3126,3.2607,3.1813,7.6186,7.6186,7.6203,7.615,7.6161,7.6704,7.6735,7.6075,7.6032,7.5577,7.4925,7.4903,7.4793,7.4595,7.3875,7.403,7.4353,7.3193,7.2504,7.2504,7.2446,7.238,7.2255,7.1656,7.1472,7.1532,7.1504,7.1961,7.278,7.3383,7.376,7.3792,7.3799,7.3447,7.2672,7.1419,7.0557,7.0237,6.9224,6.8433,6.8138,6.834,6.8305,6.8251,6.8295,6.8226,6.8162,6.8162,6.8162,6.8103,6.8024,6.7495,6.6411,6.5853,6.5138,6.4114,6.3036,6.2443,6.2221,6.1455,6.0949,6.0768,6.0773,6.0471,5.9894,5.9887,5.9692,5.9159,5.9059,5.8572,5.7283,5.7034,5.6879,5.6283,5.6531,5.6318,5.5526,5.5392,5.5505,5.5046,5.392,5.2941,5.2504,5.1499,5.062,5.0585,5.058,5.0303,4.941,4.9795,4.9643,4.8852,4.8388,4.8174,4.7656,4.7186,4.6881,4.6496,4.5686,4.4972,4.4598,4.3627,4.2388,4.1561,4.0588,3.9512,3.8112,3.5729,3.4669,3.3992,3.3394,3.3066,3.2428,3.1775,3.0695,7.537,7.537,7.537,7.537,7.5388,7.5617,7.5834,7.6138,7.617,7.599,7.5739,7.5726,7.5432,7.482,7.4097,7.4186,7.474,7.3313,7.2584,7.2476,7.2008,7.1521,7.1087,7.0773,7.0958,7.1372,7.1473,7.1907,7.2574,7.2923,7.3035,7.3045,7.306,7.2617,7.1988,7.1381,7.0967,7.036,6.9966,6.969,6.9621,6.9153,6.8931,6.8862,6.8394,6.8083,6.8083,6.8083,6.8083,6.8044,6.7488,6.653,6.5349,6.4652,6.3905,6.2964,6.2534,6.1922,6.1328,6.0975,6.0372,5.9789,5.9546,5.9042,5.8235,5.8253,5.7946,5.7195,5.7149,5.6805,5.5799,5.5599,5.5616,5.5498,5.5414,5.5509,5.5202,5.5201,5.4679,5.3716,5.3078,5.24,5.1289,4.9973,4.907,4.8943,4.8661,4.8093,4.8143,4.8547,4.8825,4.8243,4.7791,4.6725,4.5853,4.4764,4.3924,4.3854,4.3382,4.3001,4.2622,4.201,4.0802,3.9567,3.8563,3.7414,3.5971,3.4896,3.387,3.3394,3.3271,3.2654,3.1772,3.08,2.9716,7.5028,7.4957,7.4673,7.4531,7.4604,7.4864,7.5263,7.5722,7.5757,7.5877,7.6088,7.6126,7.587,7.5301,7.4591,7.451,7.472,7.3309,7.2601,7.2592,7.2127,7.1567,7.1123,7.0842,7.0796,7.1093,7.1385,7.176,7.2243,7.2554,7.2692,7.2692,7.2692,7.2485,7.1933,7.1636,7.1222,7.0808,7.0518,7.0415,7.0311,6.9966,6.9725,6.9621,6.8946,6.8566,6.8532,6.7942,6.759,6.7387,6.653,6.5282,6.3984,6.3443,6.2802,6.1972,6.1702,6.1424,6.0845,6.0372,5.9868,5.9117,5.86,5.7948,5.7139,5.7051,5.6689,5.6156,5.6215,5.602,5.5327,5.4723,5.4764,5.5129,5.5011,5.4747,5.4694,5.4376,5.3572,5.2356,5.1429,5.0693,4.9759,4.8467,4.7504,4.7336,4.7032,4.6767,4.7168,4.7501,4.7372,4.6858,4.5778,4.4704,4.3657,4.2401,4.1016,4.0977,4.1035,4.0938,4.0762,4.0162,3.9177,3.7729,3.6574,3.5746,3.4425,3.4156,3.3476,3.3312,3.2639,3.1508,3.0386,2.9718,2.856,7.4983,7.4913,7.4212,7.3931,7.3959,7.456,7.4861,7.4902,7.4956,7.5334,7.5925,7.5991,7.6027,7.5882,7.5012,7.4774,7.469,7.3348,7.2734,7.2761,7.2577,7.2315,7.194,7.1387,7.0985,7.0805,7.1229,7.1588,7.1864,7.2416,7.2692,7.2692,7.2692,7.2692,7.2485,7.1912,7.1622,7.1498,7.0967,7.0691,7.0636,7.034,7.0306,7.023,6.9419,6.8891,6.8528,6.7251,6.6445,6.6317,6.5148,6.3914,6.2794,6.2337,6.1778,6.1,6.0845,6.0737,6.0477,5.9762,5.8988,5.8557,5.7727,5.6881,5.6401,5.6263,5.6179,5.5977,5.5957,5.5842,5.5307,5.4458,5.4082,5.4581,5.4534,5.4097,5.2916,5.2676,5.1986,5.0681,4.9259,4.8236,4.8272,4.6942,4.6389,4.621,4.633,4.6225,4.6138,4.5929,4.5577,4.4673,4.347,4.2681,4.1621,4.0093,3.8845,3.8627,3.8603,3.8456,3.8545,3.8025,3.7357,3.5931,3.4977,3.4074,3.3353,3.3066,3.2474,3.173,3.0844,2.983,2.895,2.8236,2.7168,7.4924,7.4889,7.4682,7.4287,7.3878,7.4058,7.4142,7.4107,7.413,7.4657,7.5192,7.5299,7.5299,7.521,7.4521,7.4427,7.4427,7.3339,7.3033,7.335,7.2918,7.1982,7.1161,7.0843,7.0915,7.1208,7.1463,7.1795,7.2347,7.2588,7.2692,7.2692,7.2692,7.2692,7.2623,7.245,7.2381,7.2381,7.2188,7.1994,7.1786,7.0678,7.0104,6.9971,6.8705,6.7724,6.7056,6.5511,6.4492,6.423,6.3576,6.268,6.1728,6.1405,6.1098,6.0794,6.0716,6.0346,5.9603,5.9147,5.8396,5.7139,5.682,5.6307,5.5703,5.555,5.5503,5.5442,5.538,5.4831,5.3861,5.3236,5.2757,5.2025,5.2598,5.2735,5.1569,5.1114,5.0587,4.9151,4.849,4.7822,4.6906,4.6374,4.5943,4.5816,4.5363,4.477,4.4523,4.363,4.2997,4.2033,4.1028,4.0382,3.9442,3.7884,3.6837,3.6517,3.6178,3.5748,3.5863,3.5777,3.5009,3.4033,3.3895,3.3214,3.2433,3.1896,3.1052,3.0303,2.9788,2.9034,2.7548,2.6546,2.5525,7.5408,7.5373,7.5063,7.4649,7.4292,7.4257,7.4279,7.419,7.3944,7.4266,7.4803,7.4617,7.4475,7.4454,7.4033,7.3874,7.3874,7.3101,7.2956,7.3168,7.2894,7.2202,7.1539,7.1381,7.1588,7.1933,7.2002,7.2243,7.2623,7.2692,7.2692,7.2692,7.2692,7.2692,7.2692,7.2692,7.2692,7.2607,7.2318,7.2081,7.1926,7.0625,6.9938,6.9634,6.846,6.7295,6.5843,6.4864,6.4047,6.3325,6.2583,6.1853,6.1129,6.0897,6.0555,6.0163,6.0027,5.9613,5.8764,5.8184,5.7513,5.6742,5.6312,5.5805,5.5422,5.5198,5.5002,5.4315,5.4133,5.3267,5.2238,5.1882,5.0833,4.9271,4.9985,5.0516,4.9688,4.9652,4.89,4.7872,4.7273,4.709,4.6077,4.6002,4.5692,4.5217,4.4264,4.3446,4.2664,4.1424,4.0226,3.9292,3.8551,3.7926,3.7296,3.6008,3.5438,3.5095,3.4637,3.3985,3.3862,3.3912,3.3542,3.3062,3.285,3.2324,3.1345,3.0499,2.9871,2.9244,2.8909,2.7815,2.6163,2.5141,2.4041,7.6223,7.6132,7.5442,7.5098,7.5029,7.5029,7.4934,7.474,7.4239,7.4365,7.4732,7.4152,7.3942,7.3801,7.3682,7.3331,7.2797,7.2776,7.2734,7.2797,7.2692,7.2554,7.2485,7.2416,7.245,7.2554,7.2692,7.2657,7.2692,7.2692,7.2692,7.2692,7.2692,7.2692,7.2692,7.2692,7.2649,7.2296,7.172,7.1221,7.0895,6.9933,6.9324,6.9154,6.826,6.6905,6.553,6.4813,6.4325,6.3089,6.2198,6.1567,6.0997,6.0831,6.0221,5.9366,5.9155,5.8835,5.8059,5.7162,5.6676,5.6753,5.6025,5.5541,5.5519,5.5146,5.4313,5.341,5.2598,5.1668,5.0596,5.0222,4.8912,4.7214,4.758,4.7982,4.8054,4.8054,4.7507,4.6299,4.6077,4.6002,4.5816,4.5698,4.5313,4.3519,4.2601,4.1464,4.0301,3.9019,3.7797,3.6638,3.597,3.5436,3.4851,3.4148,3.403,3.388,3.3467,3.3016,3.2757,3.2716,3.2524,3.2206,3.1751,3.0854,2.9705,2.9005,2.8389,2.7477,2.6588,2.5537,2.4395,2.3783,2.2934,7.6959,7.6959,7.6787,7.6373,7.5891,7.5822,7.5477,7.496,7.4753,7.4731,7.4722,7.4127,7.3767,7.3733,7.3254,7.2859,7.2713,7.2692,7.2692,7.2692,7.2692,7.2692,7.2692,7.2692,7.2692,7.2692,7.2692,7.2692,7.2692,7.2692,7.2692,7.2692,7.2623,7.2692,7.2657,7.2498,7.2253,7.1654,7.1243,7.0657,6.9845,6.8984,6.842,6.8306,6.7114,6.6008,6.5192,6.4555,6.3983,6.3267,6.2703,6.1921,6.1074,6.0886,6.0222,5.9209,5.8897,5.8494,5.7581,5.7097,5.6834,5.6546,5.6368,5.6178,5.6284,5.4939,5.3971,5.3055,5.1891,5.0372,4.8961,4.769,4.6935,4.6307,4.6307,4.6566,4.6537,4.6537,4.6389,4.6151,4.5928,4.5645,4.4746,4.4537,4.3631,4.2037,4.0626,3.932,3.8051,3.6712,3.5776,3.4797,3.4711,3.4466,3.4193,3.3573,3.3071,3.2769,3.2311,3.1717,3.1494,3.1458,3.1304,3.0936,3.0453,2.9405,2.8158,2.714,2.6383,2.5348,2.4407,2.3666,2.2977,2.2427,2.1682,7.7201,7.7201,7.7201,7.6959,7.6649,7.6615,7.6373,7.5856,7.5167,7.4891,7.4649,7.3809,7.3278,7.3244,7.2899,7.2692,7.2692,7.2692,7.2692,7.2692,7.2692,7.2692,7.2692,7.2692,7.2692,7.2692,7.2692,7.2692,7.2692,7.2692,7.2692,7.2623,7.2381,7.2105,7.2036,7.1856,7.1255,7.0656,7.0141,6.9573,6.887,6.7928,6.7375,6.7298,6.6384,6.5634,6.5114,6.4861,6.3995,6.3074,6.2516,6.1951,6.1126,6.0843,5.9966,5.8518,5.8163,5.7765,5.6993,5.6758,5.6757,5.6754,5.6712,5.6208,5.5736,5.4467,5.2984,5.1485,5.0103,4.89,4.7397,4.6684,4.5974,4.5718,4.5675,4.5609,4.5478,4.5718,4.6002,4.5853,4.5459,4.4972,4.431,4.3332,4.1997,4.0376,3.8583,3.7295,3.6137,3.4913,3.4349,3.3726,3.3811,3.3765,3.3705,3.3156,3.2321,3.1817,3.125,3.0439,2.9824,2.9947,3.0097,2.9499,2.8778,2.7736,2.6506,2.5519,2.4652,2.4039,2.3303,2.235,2.1572,2.1115,2.0226,7.7201,7.7201,7.7201,7.7132,7.7028,7.6994,7.6822,7.6546,7.5477,7.4891,7.4649,7.3429,7.3106,7.2899,7.2761,7.2657,7.2485,7.245,7.2347,7.2105,7.2071,7.2071,7.2105,7.2105,7.214,7.2347,7.2588,7.2657,7.2485,7.2485,7.2243,7.2209,7.1864,7.1636,7.1394,7.0925,7.0477,7.0007,6.9157,6.8395,6.7914,6.7104,6.6744,6.6559,6.6369,6.558,6.4946,6.4579,6.3981,6.2171,6.1798,6.1213,6.0571,6.0341,5.9655,5.7362,5.735,5.7138,5.6812,5.66,5.6754,5.7174,5.7174,5.6313,5.5001,5.3928,5.2203,5.0055,4.8374,4.7281,4.5969,4.569,4.5537,4.5303,4.5194,4.4997,4.483,4.5215,4.5218,4.5193,4.4486,4.3826,4.2703,4.1524,4.0144,3.8681,3.6895,3.5429,3.4375,3.3557,3.3176,3.2821,3.2887,3.2586,3.2468,3.1598,3.0895,3.0396,2.9835,2.8915,2.7991,2.7736,2.7657,2.7566,2.6878,2.5902,2.4977,2.4005,2.3294,2.2834,2.222,2.1409,2.0584,1.9821,1.8813,7.7201,7.7201,7.7201,7.6856,7.6304,7.627,7.5925,7.5339,7.5029,7.4891,7.4753,7.3981,7.3485,7.3347,7.2899,7.2381,7.1898,7.1898,7.1657,7.1208,7.1139,7.1105,7.1277,7.1277,7.107,7.1174,7.1933,7.2381,7.1898,7.1691,7.1739,7.1174,7.1291,7.1498,7.1427,7.1122,7.0355,6.9546,6.8606,6.7745,6.7118,6.6744,6.6485,6.6299,6.6166,6.5309,6.4112,6.3663,6.2714,6.0735,6.0443,5.9508,5.8512,5.8443,5.7994,5.7362,5.7004,5.6845,5.6749,5.6875,5.7038,5.7174,5.7,5.6319,5.4942,5.3479,5.1348,4.931,4.7056,4.5574,4.4939,4.4954,4.4845,4.4735,4.4692,4.4576,4.4366,4.4003,4.3494,4.322,4.2883,4.239,4.103,3.9663,3.8246,3.6962,3.5566,3.4609,3.3896,3.3199,3.2702,3.2345,3.1998,3.1528,3.1066,2.9893,2.8998,2.8535,2.7857,2.6878,2.6047,2.537,2.5078,2.5176,2.5118,2.4558,2.3578,2.2566,2.1937,2.152,2.0993,2.0428,1.9249,1.8122,1.751,7.6029,7.6029,7.6029,7.5822,7.5511,7.5477,7.527,7.4891,7.4511,7.4305,7.4119,7.3567,7.2968,7.2623,7.2312,7.1829,7.1657,7.2002,7.1864,7.1553,7.1208,7.1243,7.1346,7.1174,7.1312,7.1691,7.2347,7.2278,7.1622,7.2002,7.176,7.1691,7.1601,7.1498,7.1207,7.0438,6.9816,6.8923,6.8079,6.7259,6.6633,6.6485,6.6272,6.6166,6.579,6.4906,6.3757,6.3186,6.1968,6.0019,5.9024,5.8015,5.7113,5.6482,5.6318,5.6269,5.6273,5.6246,5.6278,5.6278,5.6359,5.6567,5.6052,5.4871,5.3379,5.1591,4.9632,4.7446,4.6289,4.4866,4.4648,4.4561,4.4473,4.4291,4.4211,4.3838,4.3207,4.268,4.1965,4.1224,4.0833,4.0261,3.9184,3.7784,3.6381,3.518,3.4095,3.3573,3.3179,3.2643,3.1989,3.1509,3.1017,3.014,2.9644,2.8791,2.7672,2.7022,2.6506,2.5481,2.4727,2.433,2.3522,2.3043,2.2922,2.2818,2.254,2.1634,2.0934,2.0149,1.9453,1.8671,1.7445,1.646,1.5926,7.4891,7.4891,7.4891,7.4822,7.4684,7.4684,7.458,7.4339,7.383,7.3589,7.3485,7.2968,7.2381,7.1912,7.1774,7.1726,7.1601,7.2174,7.2174,7.1829,7.1415,7.1588,7.1829,7.176,7.1415,7.1622,7.2209,7.214,7.1726,7.2002,7.2278,7.1898,7.1498,7.1352,7.0913,6.9925,6.8985,6.8187,6.7435,6.6818,6.6591,6.6108,6.5758,6.5596,6.4964,6.3815,6.2349,6.1969,6.0664,5.8892,5.7648,5.6778,5.5959,5.5034,5.4615,5.4754,5.4965,5.51,5.506,5.4771,5.4789,5.505,5.4229,5.3022,5.1372,4.9497,4.719,4.5168,4.4501,4.4378,4.4189,4.4255,4.4181,4.3965,4.3635,4.3121,4.2297,4.1514,4.0603,3.9869,3.9143,3.8405,3.7658,3.6794,3.5565,3.4024,3.2917,3.2304,3.1934,3.1554,3.1028,3.0538,2.9867,2.8798,2.8208,2.7903,2.6896,2.607,2.5663,2.5013,2.4292,2.3721,2.2603,2.1281,2.0901,2.0816,2.0711,2.0508,1.9499,1.8581,1.7859,1.6988,1.5942,1.5136,1.4574,7.4891,7.4869,7.4834,7.4511,7.3882,7.3805,7.3511,7.2973,7.2848,7.283,7.2793,7.2761,7.2623,7.2416,7.2416,7.2105,7.1739,7.1739,7.1691,7.1312,7.0912,7.0898,7.0863,7.0601,7.0932,7.1381,7.1657,7.1567,7.167,7.1795,7.1484,7.1174,7.1387,7.1142,7.0515,6.9655,6.9067,6.8166,6.717,6.6591,6.6289,6.5204,6.4512,6.3783,6.287,6.1555,6.0386,6.002,5.8924,5.7256,5.6654,5.5842,5.4894,5.4654,5.367,5.3254,5.3344,5.406,5.38,5.3273,5.2939,5.3127,5.2576,5.157,4.9698,4.7747,4.5957,4.5162,4.4339,4.3777,4.3418,4.3349,4.3521,4.3277,4.2784,4.2535,4.1965,4.0834,3.9876,3.9031,3.8497,3.7519,3.663,3.5765,3.4838,3.3225,3.1863,3.1268,3.0805,3.0524,2.9753,2.9155,2.885,2.7901,2.7643,2.7208,2.6403,2.5395,2.5025,2.4535,2.3159,2.2084,2.08,1.9686,1.9222,1.8616,1.8356,1.8007,1.7551,1.7039,1.6313,1.5472,1.4595,1.3925,1.3335,7.2259,7.2753,7.2169,7.1739,7.1435,7.1435,7.1604,7.1832,7.183,7.183,7.196,7.2501,7.2485,7.2111,7.2036,7.1808,7.1657,7.1967,7.2036,7.1553,7.1312,7.1277,7.1588,7.1312,7.1174,7.1657,7.1967,7.2278,7.2153,7.2098,7.1967,7.169,7.1405,7.1178,7.0232,6.9315,6.865,6.7921,6.7092,6.6156,6.5254,6.4398,6.3469,6.2523,6.1615,6.0387,5.9434,5.9089,5.8348,5.7032,5.6549,5.577,5.4744,5.3983,5.2995,5.1828,5.119,5.1409,5.1793,5.155,5.1485,5.1361,5.0894,4.9405,4.7549,4.6254,4.5005,4.4016,4.3262,4.28,4.255,4.2153,4.2032,4.1944,4.1823,4.1322,4.1008,4.04,3.9453,3.8664,3.7789,3.672,3.5546,3.4362,3.3395,3.214,3.1067,3.0523,3.011,2.9813,2.8789,2.753,2.735,2.7051,2.7076,2.6941,2.6211,2.5393,2.5001,2.4007,2.1651,2.02,1.9061,1.8029,1.7325,1.6761,1.613,1.6085,1.6195,1.5527,1.4775,1.4028,1.3319,1.2788,1.234,6.9462,7.0134,6.9746,6.95,6.9368,6.9533,7.008,7.0736,7.0781,7.0781,7.0963,7.1532,7.164,7.152,7.1486,7.1618,7.1877,7.245,7.2657,7.245,7.2243,7.214,7.2243,7.2071,7.2105,7.2692,7.2519,7.2398,7.2185,7.2142,7.1987,7.2253,7.1074,7.0554,6.9976,6.8976,6.8029,6.7401,6.6359,6.5216,6.4012,6.2797,6.1819,6.0907,6.0156,5.9449,5.878,5.8585,5.792,5.7054,5.6143,5.5264,5.4219,5.327,5.2206,5.1092,5.0301,5.0072,5.0207,5.0049,5.01,4.9801,4.9109,4.7399,4.6168,4.5268,4.4819,4.3806,4.2899,4.2436,4.2007,4.1559,4.1333,4.1211,4.0921,4.0248,3.9624,3.9356,3.8867,3.8043,3.7054,3.5863,3.4588,3.2991,3.1864,3.089,3.0196,2.9671,2.9185,2.8715,2.7964,2.6709,2.6661,2.6515,2.6474,2.6375,2.5733,2.4711,2.4307,2.2702,1.986,1.8512,1.7653,1.6641,1.56,1.4787,1.4178,1.4537,1.482,1.3961,1.315,1.2705,1.2141,1.1725,1.165,6.7305,6.7517,6.893,6.914,6.8644,6.9334,6.9576,6.9694,6.9718,6.9775,6.9859,6.9883,7.044,7.0996,7.1262,7.1703,7.2525,7.2671,7.2692,7.2692,7.2623,7.2567,7.2602,7.2546,7.2533,7.2649,7.2501,7.2016,7.1377,7.0838,7.1008,7.1086,7.008,6.9226,6.8642,6.8122,6.7195,6.6359,6.5227,6.4009,6.247,6.0911,5.9338,5.8762,5.7647,5.6827,5.734,5.7399,5.7139,5.6347,5.5504,5.4463,5.3413,5.2653,5.1572,5.0481,5.014,4.9798,4.9465,4.8834,4.8006,4.747,4.6906,4.6317,4.5782,4.4642,4.417,4.399,4.27,4.2271,4.1998,4.1711,4.0762,4.0541,4.0181,3.974,3.9177,3.8799,3.8256,3.7396,3.6218,3.474,3.3025,3.131,3.0345,2.9397,2.8568,2.8016,2.7442,2.7009,2.684,2.6262,2.6298,2.6158,2.5937,2.5329,2.4119,2.2481,2.1393,1.9599,1.7222,1.6408,1.6077,1.5045,1.3984,1.3078,1.2498,1.3142,1.3272,1.2253,1.168,1.1871,1.1855,1.1702,1.1639,6.5669,6.5048,6.6506,6.6978,6.6817,6.7468,6.8104,6.8642,6.8691,6.9048,6.9504,6.9024,6.9274,7.0126,7.0996,7.1389,7.1851,7.2501,7.2565,7.2692,7.2692,7.2586,7.2565,7.2446,7.2607,7.2296,7.1994,7.1554,7.0906,6.9661,6.9024,6.8838,6.8618,6.8371,6.7852,6.7163,6.62,6.5169,6.4117,6.3031,6.0849,5.9985,5.8699,5.7658,5.74,5.6961,5.7082,5.6497,5.6168,5.5622,5.476,5.3649,5.2667,5.2043,5.1095,5.0019,4.9957,4.9636,4.9304,4.869,4.8314,4.7711,4.7221,4.6542,4.5816,4.4541,4.3724,4.3067,4.203,4.1329,4.0821,4.0105,3.9445,3.956,3.9461,3.9144,3.863,3.8127,3.697,3.585,3.4563,3.3145,3.1321,2.9439,2.8646,2.7906,2.7123,2.645,2.6104,2.5774,2.5778,2.5564,2.55,2.4569,2.4217,2.3345,2.2326,2.0505,1.8644,1.6973,1.5253,1.4802,1.4363,1.3338,1.2744,1.2329,1.2125,1.2215,1.2068,1.1774,1.1699,1.1761,1.1739,1.1656,1.1677,6.45,6.3931,6.4848,6.5284,6.5353,6.6207,6.7,6.7554,6.7656,6.8004,6.8642,6.7978,6.8229,6.9178,6.9822,7.0461,7.0759,7.1277,7.1598,7.1598,7.1488,7.1554,7.1488,7.1321,7.1142,7.1187,7.0827,7.0209,6.9566,6.8164,6.7567,6.7292,6.7112,6.7143,6.7092,6.6173,6.5067,6.412,6.2724,6.1616,5.9338,5.8572,5.8133,5.6949,5.6536,5.644,5.6221,5.5683,5.4963,5.4441,5.367,5.2733,5.1936,5.1289,5.0651,5.0129,4.9744,4.9576,4.9517,4.917,4.8638,4.7585,4.6911,4.6287,4.5519,4.4191,4.2936,4.3241,4.1499,3.9971,3.9855,3.9421,3.8945,3.9042,3.9003,3.8703,3.7813,3.713,3.5568,3.4172,3.2684,3.0978,2.9704,2.7943,2.7256,2.6724,2.6383,2.5934,2.5774,2.5435,2.5169,2.487,2.4525,2.3348,2.2073,2.1009,1.9848,1.808,1.6393,1.5164,1.3898,1.3464,1.3073,1.2405,1.2012,1.1783,1.1834,1.1966,1.1919,1.1792,1.1792,1.1775,1.1775,1.1743,1.1764,6.39,6.4443,6.4506,6.4569,6.4848,6.6017,6.6638,6.6796,6.677,6.6822,6.6974,6.6796,6.7227,6.8054,6.8494,6.9033,6.9633,6.9859,7.0023,7.0126,7.0046,6.9599,6.9481,6.9528,6.9741,6.9256,6.9073,6.8659,6.7971,6.7131,6.6459,6.6178,6.6178,6.621,6.6454,6.5032,6.3977,6.3129,6.0901,5.9523,5.8342,5.7409,5.6863,5.6256,5.5734,5.5655,5.5307,5.4526,5.3808,5.3316,5.2395,5.1563,5.0978,5.0527,5.0159,5.002,5.0394,5.0492,5.0446,4.9592,4.8366,4.6987,4.619,4.5214,4.4653,4.3355,4.2162,4.2555,4.1382,4.0374,3.9924,3.9393,3.8838,3.8481,3.8481,3.7609,3.6672,3.5268,3.3667,3.1985,3.0162,2.8503,2.7519,2.6516,2.5835,2.5452,2.5433,2.5317,2.5061,2.4742,2.4273,2.3292,2.2739,2.1292,1.9877,1.8699,1.7332,1.5594,1.4336,1.3394,1.2696,1.2307,1.1905,1.1548,1.1552,1.1629,1.1683,1.1716,1.1697,1.1713,1.1808,1.1808,1.1819,1.1819,1.1819,6.3615,6.3868,6.4342,6.4784,6.5348,6.6207,6.6586,6.6586,6.6586,6.6586,6.6586,6.6586,6.6717,6.7201,6.7777,6.8246,6.8618,6.9481,6.9599,6.9504,6.9169,6.9145,6.8927,6.8634,6.8634,6.8479,6.8082,6.7535,6.7125,6.6301,6.5965,6.57,6.5646,6.5588,6.5009,6.3893,6.2927,6.1051,5.9655,5.8728,5.7645,5.704,5.6526,5.5883,5.5366,5.4884,5.4433,5.3385,5.2747,5.2366,5.1506,5.0948,5.0638,5.0335,5.0289,5.0313,5.0601,5.0139,4.9413,4.842,4.7732,4.6413,4.5163,4.4007,4.3229,4.1879,4.1498,4.1364,4.0451,3.9529,3.8996,3.8898,3.8521,3.8145,3.7649,3.6092,3.4782,3.2997,3.1309,2.962,2.7844,2.7181,2.6358,2.5525,2.4842,2.4306,2.4263,2.3837,2.3505,2.3279,2.2859,2.1422,2.039,1.8968,1.7632,1.6545,1.5279,1.3704,1.2825,1.2216,1.1638,1.1499,1.151,1.1526,1.1543,1.152,1.1574,1.1623,1.1621,1.1654,1.1726,1.1792,1.1819,1.1819,1.1819,6.364,6.39,6.4595,6.529,6.5954,6.6428,6.6586,6.6586,6.6586,6.6586,6.6586,6.6586,6.6586,6.6822,6.7201,6.758,6.7656,6.8179,6.8519,6.8519,6.8246,6.7878,6.7694,6.7719,6.7234,6.7208,6.6846,6.6301,6.6354,6.5592,6.5378,6.5487,6.532,6.429,6.35,6.2581,6.1674,5.9929,5.878,5.8016,5.7285,5.6763,5.6242,5.5558,5.4801,5.4055,5.3274,5.2485,5.1771,5.1562,5.1201,5.066,5.0625,5.0175,4.9997,4.9854,4.9126,4.8453,4.7462,4.6241,4.537,4.4517,4.3739,4.2922,4.1829,4.0608,4.0413,4.006,3.9193,3.8838,3.864,3.86,3.8066,3.7689,3.6333,3.4765,3.2792,3.1061,2.9704,2.797,2.6813,2.6146,2.5421,2.4629,2.3878,2.347,2.3093,2.2374,2.1725,2.1531,2.0862,1.9255,1.8121,1.694,1.5667,1.4485,1.3173,1.1766,1.1499,1.1499,1.1499,1.1499,1.1499,1.1499,1.1521,1.1532,1.1526,1.1514,1.1563,1.1596,1.1612,1.1688,1.1792,1.1803,1.1786,6.3931,6.4626,6.529,6.5948,6.6523,6.6586,6.6586,6.6586,6.6586,6.6586,6.6586,6.6586,6.6586,6.6586,6.6665,6.6717,6.677,6.6843,6.6921,6.6791,6.6817,6.6396,6.6103,6.5835,6.5965,6.5565,6.5347,6.5696,6.5673,6.5433,6.5269,6.4826,6.4209,6.2986,6.1998,6.1228,6.0355,5.8965,5.8016,5.7372,5.6817,5.617,5.5551,5.4753,5.3683,5.2829,5.2094,5.1457,5.1014,5.0802,5.0696,5.0625,5.0139,4.909,4.8598,4.7872,4.6861,4.6248,4.526,4.4096,4.2899,4.2269,4.1731,4.1307,4.0744,3.9726,3.9569,3.9569,3.9154,3.8838,3.86,3.8026,3.7432,3.6373,3.5049,3.3201,3.1102,2.9537,2.8335,2.7096,2.6188,2.5421,2.4738,2.3943,2.2568,2.1127,2.0341,1.9228,1.8828,1.9525,1.8558,1.6589,1.5587,1.4933,1.3837,1.304,1.247,1.1543,1.1499,1.1499,1.1499,1.1499,1.1499,1.1499,1.1499,1.1504,1.151,1.151,1.1515,1.1543,1.1575,1.1619,1.1672,1.1716,1.1721,6.4626,6.529,6.5506,6.6011,6.6554,6.6586,6.6586,6.6586,6.6586,6.6586,6.6586,6.6586,6.6586,6.6586,6.6586,6.6586,6.6586,6.6586,6.6612,6.6459,6.6188,6.6027,6.5758,6.546,6.5351,6.5378,6.5347,6.5324,6.5592,6.546,6.449,6.3615,6.3216,6.1851,6.0628,5.9804,5.8871,5.8048,5.7243,5.679,5.6236,5.5584,5.4753,5.3513,5.276,5.1921,5.1271,5.0978,5.0696,5.0696,5.066,5.0353,4.891,4.8453,4.8054,4.6677,4.5989,4.5356,4.3832,4.2902,4.1789,4.0413,3.9903,3.9471,3.9175,3.9075,3.8838,3.8956,3.8996,3.8679,3.7986,3.7312,3.6195,3.4749,3.3186,3.1102,2.9119,2.7928,2.6758,2.5951,2.5037,2.4341,2.3697,2.26,2.1135,1.9163,1.7557,1.6478,1.6063,1.6852,1.6545,1.4581,1.3881,1.3483,1.2958,1.2204,1.1899,1.1543,1.1499,1.1499,1.1499,1.1499,1.1499,1.1499,1.1499,1.1499,1.1504,1.1499,1.1499,1.1499,1.1532,1.1554,1.1586,1.1635,1.1544,6.5221,6.56,6.5917,6.6238,6.6554,6.6586,6.6586,6.6586,6.6586,6.6586,6.6586,6.6586,6.6586,6.6586,6.6586,6.6586,6.6586,6.6586,6.6586,6.648,6.6188,6.6161,6.5951,6.5708,6.5596,6.5592,6.5511,6.5433,6.5483,6.4875,6.3954,6.3014,6.2465,6.0779,5.9496,5.8652,5.7729,5.7017,5.6432,5.6138,5.5584,5.4786,5.3376,5.2554,5.2,5.1282,5.0837,5.0696,5.0625,5.0448,5.0353,4.9401,4.7945,4.7265,4.5639,4.4252,4.357,4.2961,4.204,4.1559,4.0568,3.9687,3.9035,3.8917,3.8758,3.8719,3.8679,3.8679,3.856,3.8264,3.7392,3.6414,3.4708,3.3022,3.0922,2.8825,2.7464,2.6261,2.5336,2.4555,2.3783,2.3041,2.2169,2.1078,1.9696,1.7679,1.5906,1.4523,1.4146,1.4455,1.4228,1.2952,1.2603,1.2387,1.1943,1.1766,1.1632,1.1543,1.1499,1.1499,1.1499,1.1499,1.1499,1.1499,1.1499,1.1499,1.1499,1.1499,1.1499,1.1455,1.141,1.1432,1.1487,1.1543,1.1357,6.5617,6.5732,6.6254,6.6316,6.6374,6.6268,6.6321,6.648,6.6401,6.6538,6.6591,6.6586,6.6586,6.6586,6.6586,6.6586,6.6586,6.6586,6.6586,6.6591,6.6401,6.6352,6.6272,6.6139,6.592,6.5731,6.5596,6.5515,6.5098,6.429,6.3215,6.2582,6.0598,5.9155,5.8652,5.7916,5.7017,5.6111,5.5584,5.516,5.4627,5.3513,5.2268,5.199,5.1352,5.0696,5.066,5.059,5.0519,4.9961,4.9126,4.8127,4.6714,4.5079,4.3001,4.21,4.1714,4.1346,4.0958,4.0548,4.004,3.9509,3.9272,3.8917,3.8679,3.86,3.86,3.86,3.856,3.7649,3.6694,3.5251,3.3569,3.1418,2.9202,2.7591,2.6431,2.5251,2.4298,2.344,2.2525,2.1651,1.9864,1.8689,1.758,1.5863,1.4562,1.2996,1.2654,1.2787,1.2476,1.1855,1.1855,1.1899,1.1766,1.1588,1.1543,1.1499,1.1499,1.1499,1.1499,1.1499,1.1499,1.1499,1.1499,1.1499,1.1499,1.1499,1.141,1.1143,1.1143,1.1277,1.1366,1.1455,1.1465,6.5719,6.6286,6.5772,6.518,6.4571,6.4546,6.4961,6.5507,6.5565,6.5915,6.648,6.6591,6.6586,6.6586,6.6586,6.6586,6.6586,6.6586,6.6586,6.6538,6.6459,6.6485,6.6379,6.6134,6.6108,6.6214,6.6081,6.5375,6.4543,6.3329,6.191,6.0839,5.931,5.862,5.7852,5.7174,5.6497,5.5419,5.4627,5.392,5.3069,5.276,5.2025,5.1422,5.0696,5.0696,5.0377,4.9544,4.9162,4.8598,4.7265,4.5989,4.4607,4.2751,4.1773,4.125,4.1055,4.0763,4.047,4.0137,3.9706,3.9312,3.9075,3.8798,3.864,3.86,3.86,3.86,3.8105,3.7032,3.5655,3.4018,3.2201,2.9815,2.7633,2.6516,2.5391,2.4352,2.3311,2.2136,2.1218,1.9647,1.778,1.637,1.522,1.4207,1.3243,1.2254,1.1988,1.1988,1.2077,1.1632,1.1588,1.1588,1.1499,1.1499,1.1499,1.1499,1.1499,1.1499,1.1499,1.1499,1.1499,1.1499,1.1499,1.1499,1.1499,1.1499,1.1321,1.0921,1.1188,1.1499,1.1316,1.1316,1.1455,6.4933,6.5316,6.485,6.4348,6.3956,6.39,6.4181,6.4543,6.4599,6.5125,6.5996,6.6374,6.6559,6.6559,6.6586,6.6533,6.6533,6.6586,6.6586,6.6538,6.6485,6.6512,6.6374,6.6241,6.6347,6.6427,6.5398,6.4488,6.3615,6.1821,6.0234,5.9588,5.884,5.792,5.7109,5.6752,5.598,5.4827,5.3784,5.2726,5.1782,5.1527,5.1387,5.0767,5.0696,5.066,5.0139,4.9234,4.8526,4.7558,4.6137,4.4176,4.2925,4.1811,4.1327,4.1133,4.0958,4.0763,4.0431,4.0001,3.9529,3.9017,3.9035,3.8819,3.864,3.86,3.86,3.8481,3.7352,3.6236,3.4099,3.2325,3.0189,2.783,2.6588,2.5549,2.4481,2.3397,2.1564,1.9482,1.8523,1.7474,1.577,1.4448,1.3521,1.3249,1.2204,1.1943,1.1632,1.1504,1.1504,1.1515,1.1526,1.151,1.1499,1.1499,1.1499,1.1499,1.1499,1.1499,1.1499,1.1499,1.1499,1.1499,1.1499,1.1499,1.1499,1.141,1.0965,1.0476,1.1054,1.1804,1.1494,1.1399,1.2293,6.3645,6.359,6.3674,6.3617,6.359,6.3503,6.3588,6.3702,6.373,6.4209,6.5043,6.5835,6.6241,6.6401,6.6401,6.6401,6.6427,6.6506,6.6533,6.6586,6.6591,6.6591,6.6591,6.6533,6.6427,6.5642,6.4543,6.3445,6.2437,6.0657,5.9462,5.8871,5.8048,5.7109,5.6752,5.6105,5.5153,5.392,5.2829,5.1851,5.1165,5.0696,5.0731,5.0731,5.066,5.059,4.9997,4.9054,4.8127,4.6529,4.4779,4.3057,4.1985,4.1327,4.1288,4.1133,4.0802,4.0431,3.9903,3.9314,3.884,3.8524,3.8682,3.8423,3.7986,3.7867,3.7827,3.729,3.6172,3.4847,3.2694,3.0756,2.8574,2.6673,2.572,2.4652,2.3611,2.2438,2.0047,1.757,1.6298,1.5381,1.419,1.2875,1.2381,1.2109,1.1893,1.1677,1.1504,1.1515,1.1521,1.1504,1.1531,1.1554,1.1515,1.151,1.1515,1.1499,1.1499,1.1499,1.1499,1.1499,1.1499,1.1499,1.1499,1.1455,1.1321,1.1188,1.0654,0.9986,1.0916,1.1627,1.131,1.1571,1.3483,6.235,6.1791,6.2467,6.238,6.1821,6.1761,6.2116,6.2699,6.2786,6.3275,6.4012,6.4323,6.4768,6.5452,6.5452,6.5479,6.5588,6.6023,6.648,6.6586,6.6559,6.6559,6.6506,6.6374,6.6081,6.5016,6.37,6.2728,6.1525,5.9986,5.9118,5.893,5.7757,5.6785,5.5941,5.5253,5.4459,5.3206,5.2381,5.1632,5.0989,5.0696,5.0696,5.0696,5.0696,4.989,4.8766,4.7192,4.5766,4.4252,4.2943,4.183,4.1385,4.1211,4.1211,4.1094,4.0763,3.9728,3.9138,3.821,3.7494,3.5833,3.5672,3.5308,3.5042,3.4985,3.4904,3.4782,3.3871,3.3201,3.146,3.0064,2.8167,2.6558,2.5305,2.4126,2.2955,2.1305,1.9308,1.7044,1.5161,1.4285,1.3407,1.2476,1.2077,1.1849,1.1721,1.1504,1.1504,1.1515,1.1493,1.1542,1.1585,1.1531,1.1526,1.1532,1.1532,1.1515,1.1499,1.1499,1.1499,1.1499,1.1499,1.1499,1.141,1.1366,1.1188,1.0832,1.0204,0.9758,1.0733,1.1305,1.1172,1.2142,1.4367]},{"header":{"parameterUnit":"m.s-1","parameterCategory":1,"la1":31.0,"la2":29.5877,"lo1":-88.7671,"lo2":-86.6584,"dy":0.0162,"dx":0.0185,"nx":115,"ny":88,"refTime":"2024-02-12T12:00:00:Z","depth":0,"parameterNumber":3,"parameterNumberName":"V-component_of_WINDS"},"data":[0.0,0.0,0.0,0.0,0.0,0.0,0.0,0.0,0.0,0.0,0.0,0.0,0.0,0.0,0.0,0.0,0.0,0.0,0.0,0.0,0.0,0.0,0.0,0.0,0.0,0.0,0.0,0.0,0.0,0.0,0.0,0.0,0.0,0.0,0.0,0.0,0.0,0.0,0.0,0.0,0.0,0.0,0.0,0.0,0.0,0.0,0.0,0.0,0.0,0.0,0.0,0.0,0.0,0.0,0.0,0.0,0.0,0.0,0.0,0.0,0.0,0.0,0.0,0.0,0.0,0.0,0.0,0.0,0.0,0.0,0.0,0.0,0.0,0.0,0.0,0.0,0.0,0.0,0.0,0.0,0.0,0.0,0.0,0.0,0.0,0.0,0.0,0.0,0.0,0.0,0.0,0.0,0.0,0.0,0.0,0.0,0.0,0.0,0.0,0.0,0.0,0.0,0.0,0.0,0.0,0.0,0.0,0.0,0.0,0.0,0.0,0.0,0.0,0.0,0.0,0.0,0.0,0.0,0.0,0.0,0.0,0.0,0.0,0.0,0.0,0.0,0.0,0.0,0.0,0.0,0.0,0.0,0.0,0.0,0.0,0.0,0.0,0.0,0.0,0.0,0.0,0.0,0.0,0.0,0.0,0.0,0.0,0.0,0.0,0.0,0.0,0.0,0.0,0.0,0.0,0.0,0.0,0.0,0.0,0.0,0.0,0.0,0.0,0.0,0.0,0.0,0.0,0.0,0.0,0.0,0.0,0.0,0.0,0.0,0.0,0.0,0.0,0.0,0.0,0.0,0.0,0.0,0.0,0.0,0.0,0.0,0.0,0.0,0.0,0.0,0.0,0.0,0.0,0.0,0.0,0.0,0.0,0.0,0.0,0.0,0.0,0.0,0.0,0.0,0.0,0.0,0.0,0.0,0.0,0.0,0.0,0.0,0.0,0.0,0.0,0.0,0.0,0.0,0.0,0.0,0.0,0.0,0.0,0.0,0.0,0.0,0.0,0.0,0.0,0.0,0.0,0.0,0.0,0.0,0.0,0.0,0.0,0.0,0.0,0.0,0.0,0.0,0.0,0.0,0.0,0.0,0.0,0.0,0.0,0.0,0.0,0.0,0.0,0.0,0.0,0.0,0.0,0.0,0.0,0.0,0.0,0.0,0.0,0.0,0.0,0.0,0.0,0.0,0.0,0.0,0.0,0.0,0.0,0.0,0.0,0.0,0.0,0.0,0.0,0.0,0.0,0.0,0.0,0.0,0.0,0.0,0.0,0.0,0.0,0.0,0.0,0.0,0.0,0.0,0.0,0.0,0.0,0.0,0.0,0.0,0.0,0.0,0.0,0.0,0.0,0.0,0.0,0.0,0.0,0.0,0.0,0.0,0.0,0.0,0.0,0.0,0.0,0.0,0.0,0.0,0.0,0.0,0.0,0.0,0.0,0.0,0.0,0.0,0.0,0.0,0.0,0.0,0.0,0.0,0.0,0.0,0.0,0.0,0.0,0.0,0.0,0.0,0.0,0.0,0.0,0.0,0.0,0.0,0.0,0.0,0.0,0.0,0.0,0.0,0.0,0.0,0.0,0.0,0.0,0.0,0.0,0.0,0.0,0.0,0.0,0.0,0.0,0.0,0.0,0.0,0.0,0.0,0.0,0.0,0.0,0.0,0.0,0.0,0.0,0.0,0.0,0.0,0.0,0.0,0.0,0.0,0.0,0.0,0.0,0.0,0.0,0.0,0.0,0.0,0.0,0.0,0.0,0.0,0.0,0.0,0.0,0.0,0.0,0.0,0.0,0.0,0.0,0.0,0.0,0.0,0.0,0.0,0.0,0.0,0.0,0.0,0.0,0.0,0.0,0.0,0.0,0.0,0.0,0.0,0.0,0.0,0.0,0.0,0.0,0.0,0.0,0.0,0.0,0.0,0.0,0.0,0.0,0.0,0.0,0.0,0.0,0.0,0.0,0.0,0.0,0.0,0.0,0.0,0.0,0.0,0.0,0.0,0.0,0.0,0.0,0.0,0.0,0.0,0.0,0.0,0.0,0.0,0.0,0.0,0.0,0.0,0.0,0.0,0.0,0.0,0.0,0.0,0.0,0.0,0.0,0.0,0.0,0.0,0.0,0.0,0.0,0.0,0.0,0.0,0.0,0.0,0.0,0.0,0.0,0.0,0.0,0.0,0.0,0.0,0.0,0.0,0.0,0.0,0.0,0.0,0.0,0.0,0.0,0.0,0.0,0.0,0.0,0.0,0.0,0.0,0.0,0.0,0.0,0.0,0.0,0.0,0.0,0.0,0.0,0.0,0.0,0.0,0.0,0.0,0.0,0.0,0.0,0.0,0.0,0.0,0.0,0.0,0.0,0.0,0.0,0.0,0.0,0.0,0.0,0.0,0.0,0.0,0.0,0.0,0.0,0.0,0.0,0.0,0.0,0.0,0.0,0.0,0.0,0.0,0.0,0.0,0.0,0.0,0.0,0.0,0.0,0.0,0.0,0.0,0.0,0.0,0.0,0.0,0.0,0.0,0.0,0.0,0.0,0.0,0.0,0.0,0.0,0.0,0.0,0.0,0.0,0.0,0.0,0.0,0.0,0.0,0.0,0.0,0.0,0.0,0.0,0.0,0.0,0.0,0.0,0.0,0.0,0.0,0.0,0.0,0.0,0.0,0.0,0.0,0.0,0.0,0.0,0.0,0.0,0.0,0.0,0.0,0.0,0.0,0.0,0.0,0.0,0.0,0.0,0.0,0.0,0.0,0.0,0.0,0.0,0.0,0.0,0.0,0.0,0.0,0.0,0.0,0.0,0.0,0.0,0.0,0.0,0.0,0.0,0.0,0.0,0.0,0.0,0.0,0.0,0.0,0.0,0.0,0.0,0.0,0.0,0.0,0.0,0.0,0.0,0.0,0.0,0.0,0.0,0.0,0.0,0.0,0.0,0.0,0.0,0.0,0.0,0.0,0.0,0.0,0.0,0.0,0.0,0.0,0.0,0.0,0.0,0.0,0.0,0.0,0.0,0.0,0.0,0.0,0.0,0.0,0.0,0.0,0.0,0.0,0.0,0.0,0.0,0.0,0.0,0.0,0.0,0.0,0.0,0.0,0.0,0.0,0.0,0.0,0.0,0.0,0.0,0.0,0.0,0.0,0.0,0.0,0.0,0.0,0.0,0.0,0.0,0.0,0.0,0.0,0.0,0.0,0.0,0.0,0.0,0.0,0.0,0.0,0.0,0.0,0.0,0.0,0.0,0.0,0.0,0.0,0.0,0.0,0.0,0.0,0.0,0.0,0.0,0.0,0.0,0.0,0.0,0.0,0.0,0.0,0.0,0.0,0.0,0.0,0.0,0.0,0.0,0.0,0.0,0.0,0.0,0.0,0.0,0.0,0.0,0.0,0.0,0.0,0.0,0.0,0.0,0.0,0.0,0.0,0.0,0.0,0.0,0.0,0.0,0.0,0.0,0.0,0.0,0.0,0.0,0.0,0.0,0.0,0.0,0.0,0.0,0.0,0.0,0.0,0.0,0.0,0.0,0.0,0.0,0.0,0.0,0.0,0.0,0.0,0.0,0.0,0.0,0.0,0.0,0.0,0.0,0.0,0.0,0.0,0.0,0.0,0.0,0.0,0.0,0.0,0.0,0.0,0.0,0.0,0.0,0.0,0.0,0.0,0.0,0.0,0.0,0.0,0.0,0.0,0.0,0.0,0.0,0.0,0.0,0.0,0.0,0.0,0.0,0.0,0.0,0.0,0.0,0.0,0.0,0.0,0.0,0.0,0.0,0.0,0.0,0.0,0.0,0.0,0.0,0.0,0.0,0.0,0.0,0.0,0.0,0.0,0.0,0.0,0.0,0.0,0.0,0.0,0.0,0.0,0.0,0.0,0.0,0.0,0.0,0.0,0.0,0.0,0.0,0.0,0.0,0.0,0.0,0.0,0.0,0.0,0.0,0.0,0.0,0.0,0.0,0.0,0.0,0.0,0.0,0.0,0.0,0.0,0.0,0.0,0.0,0.0,0.0,0.0,0.0,0.0,0.0,0.0,0.0,0.0,0.0,0.0,0.0,0.0,0.0,0.0,0.0,0.0,0.0,0.0,0.0,0.0,0.0,0.0,0.0,0.0,0.0,0.0,0.0,0.0,0.0,0.0,0.0,0.0,0.0,0.0,0.0,0.0,0.0,0.0,0.0,0.0,0.0,0.0,0.0,0.0,0.0,0.0,0.0,0.0,0.0,0.0,0.0,0.0,0.0,0.0,0.0,0.0,0.0,0.0,0.0,0.0,0.7121,0.0,0.0,0.0,0.0,0.0,0.0,0.0,0.0,0.0,0.0,0.0,0.0,0.0,0.0,0.0,0.0,0.0,0.0,0.0,0.0,0.0,0.0,0.0,0.0,0.0,0.0,0.0,0.0,0.0,0.0,0.0,0.0,0.0,0.0,0.0,0.0,0.0,0.0,0.0,0.0,0.0,0.0,0.0,0.0,0.0,0.0,0.0,0.0,0.0,0.0,0.0,0.0,0.0,0.0,0.0,0.0,0.0,0.0,0.0,0.0,0.0,0.0,0.0,0.0,0.0,0.0,0.0,0.0,0.0,0.0,0.0,0.0,0.0,0.0,0.0,0.0,0.0,0.0,0.0,0.0,0.0,0.0,0.0,0.0,0.0,0.0,0.0,0.0,0.0,0.0,0.0,0.0,0.0,0.0,0.0,0.0,0.0,0.0,0.0,0.0,0.0,0.0,0.0,0.0,0.0,0.0,0.0,0.0,0.0,0.0,0.7362,0.7265,0.7265,0.7224,0.7098,0.0,0.0,0.0,0.0,0.0,0.0,0.0,0.0,0.0,0.0,0.0,0.0,0.0,0.0,0.0,0.0,0.0,0.0,0.0,0.0,0.0,0.0,0.0,0.0,0.0,0.0,0.0,0.0,0.0,0.0,0.0,0.0,0.0,0.0,0.0,0.0,0.0,0.0,0.0,0.0,0.0,0.0,0.0,0.0,0.0,0.0,0.0,0.0,0.0,0.0,0.0,0.0,0.0,0.0,0.0,0.0,0.0,0.0,0.0,0.0,0.0,0.0,0.0,0.0,0.0,0.0,0.0,0.0,0.0,0.0,0.0,0.0,0.0,0.0,0.0,0.0,0.0,0.0,0.0,0.0,0.0,0.0,0.0,0.0,0.0,0.0,0.0,0.0,0.0,0.0,0.0,0.0,0.0,0.0,0.0,0.0,0.0,0.0,0.0,0.0,0.0,0.0,0.0,0.0,0.0,0.0,0.0,0.0,0.0,0.0,0.0,0.0,0.741,0.7299,0.7127,0.0,0.0,0.0,0.0,0.0,0.0,0.0,0.0,0.0,0.0,0.0,0.0,0.0,0.0,0.0,0.0,0.0,0.0,0.0,0.0,0.0,0.0,0.0,0.0,0.0,0.0,0.0,0.0,0.0,0.0,0.0,0.0,0.0,0.0,0.0,0.0,0.0,0.0,0.0,0.0,0.0,0.0,0.0,0.0,0.0,0.0,0.0,0.0,0.0,0.0,0.0,0.0,0.0,0.0,0.0,0.0,0.0,0.0,0.0,0.0,0.0,0.0,0.0,0.0,0.0,0.0,0.0,0.0,0.0,0.0,0.0,0.0,0.0,0.0,0.0,0.0,0.0,0.0,0.0,0.0,0.0,0.0,0.0,0.0,0.0,0.0,0.0,0.0,0.0,0.0,0.0,0.0,0.0,0.0,0.0,0.0,0.0,0.0,0.0,0.0,0.0,0.0,0.0,0.0,0.0,0.0,0.0,0.0,0.0,0.0,0.76,0.7577,0.7464,0.0,0.7141,0.0,0.0,0.0,0.0,0.0,0.0,0.0,0.0,0.0,0.0,0.0,0.0,0.0,0.0,0.0,0.0,0.0,0.0,0.0,0.0,0.0,0.0,0.0,0.0,0.0,0.0,0.0,0.0,0.0,0.0,0.0,0.0,0.0,0.0,0.0,0.0,0.0,0.0,0.0,0.0,0.0,0.0,0.0,0.0,0.0,0.0,0.0,0.0,0.0,0.0,0.0,0.0,0.0,0.0,0.0,0.0,0.0,0.0,0.0,0.0,0.0,0.0,0.0,0.0,0.0,0.0,0.0,0.0,0.0,0.0,0.0,0.0,0.0,0.0,0.0,0.0,0.0,0.0,0.0,0.0,0.0,0.0,0.0,0.0,0.0,0.0,0.0,0.0,0.0,0.0,0.0,0.0,0.0,0.0,0.0,0.0,0.0,0.0,0.0,0.0,0.0,0.0,0.0,0.0,0.0,0.0,0.0,0.0,0.0,0.0,0.7702,0.7702,0.7519,0.7346,0.0,0.0,0.0,0.0,0.0,0.0,0.0,0.0,0.0,0.0,0.0,0.0,0.0,0.0,0.0,0.0,0.0,0.0,0.0,0.0,0.0,0.0,0.0,0.0,0.0,0.0,0.0,0.0,0.0,0.0,0.0,0.0,0.0,0.0,0.0,0.0,0.0,0.0,0.0,0.0,0.0,0.0,0.0,0.0,0.0,0.0,0.0,0.0,0.0,0.0,0.0,0.0,0.0,0.0,0.0,0.0,0.0,0.0,0.0,0.0,0.0,0.0,0.0,0.0,0.0,0.0,0.0,0.0,0.0,0.0,0.0,0.0,0.0,0.0,0.0,0.0,0.0,0.0,0.0,0.0,0.0,0.0,0.0,0.0,0.0,0.0,0.0,0.0,0.0,0.0,0.0,0.0,0.0,0.0,0.0,0.0,0.0,0.0,0.0,0.0,0.0,0.0,0.0,0.0,0.0,0.0,0.0,0.0,0.0,0.0,0.7848,0.7831,0.7801,0.7604,0.7478,0.7396,0.0,0.0,0.0,0.0,0.0,0.0,0.0,0.0,0.0,0.0,0.0,0.0,0.0,0.0,0.0,0.0,0.0,0.0,0.0,0.0,0.0,0.0,0.0,0.0,0.0,0.0,0.0,0.0,0.0,0.0,0.0,0.0,0.0,0.0,0.0,0.0,0.0,0.0,0.0,0.0,0.0,0.0,0.0,0.0,0.0,0.0,0.0,0.0,0.0,0.0,0.0,0.0,0.0,0.0,0.0,0.0,0.0,0.0,0.0,0.0,0.0,0.0,0.0,0.0,0.0,0.0,0.0,0.0,0.0,0.0,0.0,0.0,0.0,0.0,0.0,0.0,0.0,0.0,0.0,0.0,0.0,0.0,0.0,0.0,0.0,0.0,0.0,0.0,0.0,0.0,0.0,0.0,0.0,0.0,0.0,0.0,0.0,0.0,0.0,0.0,0.0,0.0,0.0,0.0,0.0,0.0,0.0,0.0,0.7821,0.7925,0.7932,0.7821,0.7776,0.7658,0.0,0.0,0.0,0.0,0.0,0.0,0.0,0.0,0.0,0.0,0.0,0.0,0.0,0.0,0.0,0.0,0.0,0.0,0.0,0.0,0.0,0.0,0.0,0.0,0.0,0.0,0.0,0.0,0.0,0.0,0.0,0.0,0.0,0.0,0.0,0.0,0.0,0.0,0.0,0.0,0.0,0.0,0.0,0.0,0.0,0.0,0.0,0.0,0.0,0.0,0.0,0.0,0.0,0.0,0.0,0.0,0.0,0.0,0.0,0.0,0.0,0.0,0.0,0.0,0.0,0.0,0.0,0.0,0.0,0.0,0.0,0.0,0.0,0.0,0.0,0.0,0.0,0.0,0.0,0.0,0.0,0.0,0.0,0.0,0.0,0.0,0.0,0.0,0.0,0.0,0.0,0.0,0.0,0.0,0.0,0.0,0.0,0.0,0.0,0.0,0.0,0.0,0.0,0.0,0.0,0.0,0.0,0.0,0.0,0.7907,0.7961,0.7961,0.7932,0.7868,0.776,0.0,0.0,0.0,0.0,0.0,0.0,0.0,0.0,0.0,0.0,0.0,0.0,0.0,0.0,0.0,0.0,0.0,0.0,0.0,0.0,0.0,0.0,0.0,0.0,0.0,0.0,0.0,0.0,0.0,0.0,0.0,0.0,0.0,0.0,0.0,0.0,0.0,0.0,0.0,0.0,0.0,0.0,0.0,0.0,0.0,0.0,0.0,0.0,0.0,0.0,0.0,0.0,0.0,0.0,0.0,0.0,0.0,0.0,0.0,0.0,0.0,0.0,0.0,0.0,0.0,0.0,0.0,0.0,0.0,0.0,0.0,0.0,0.0,0.0,0.0,0.0,0.0,0.0,0.0,0.0,0.0,0.0,0.0,0.0,0.0,0.0,0.0,0.0,0.0,0.0,0.0,0.0,0.0,0.0,0.0,0.0,0.0,0.0,0.0,0.0,0.0,0.0,0.0,0.0,0.0,0.0,0.0,0.0,0.0,0.7982,0.0,0.7988,0.7982,0.7894,0.7837,0.0,0.0,0.0,0.0,0.0,0.0,0.0,0.0,0.0,0.0,0.0,0.0,0.0,0.0,0.0,0.0,0.0,0.0,0.0,0.0,0.0,0.0,0.0,0.0,0.0,0.0,0.0,0.0,0.0,0.0,0.0,0.0,0.0,0.0,0.0,0.0,0.0,0.0,0.0,0.0,0.0,0.0,0.0,0.0,0.0,0.0,0.0,0.0,0.0,0.0,0.0,0.0,0.0,0.0,0.0,0.0,0.0,0.0,0.0,0.0,0.0,0.0,0.0,0.0,0.0,0.0,0.0,0.0,0.0,0.0,0.0,0.0,0.0,0.0,0.0,0.0,0.0,0.0,0.0,0.0,0.0,0.0,0.0,0.0,0.0,0.0,0.0,0.0,0.0,0.0,0.0,0.0,0.0,0.0,0.0,0.0,0.0,0.0,0.0,0.0,0.0,0.0,0.0,0.0,0.0,0.0,0.0,0.0,0.8027,0.7995,0.8027,0.8008,0.7995,0.802,0.7946,0.0,0.0,0.0,0.0,0.0,0.0,0.0,0.0,0.0,0.0,0.0,0.0,0.0,0.0,0.0,0.0,0.0,0.0,0.0,0.0,0.0,0.0,0.0,0.0,0.0,0.0,0.0,0.0,0.0,0.0,0.0,0.0,0.0,0.0,0.0,0.0,0.0,0.0,0.0,0.0,0.0,0.0,0.0,0.0,0.0,0.0,0.0,0.0,0.0,0.0,0.0,0.0,0.0,0.0,0.0,0.0,0.0,0.0,0.0,0.0,0.0,0.0,0.0,0.0,0.0,0.0,0.0,0.0,0.0,0.0,0.0,0.0,0.0,0.0,0.0,0.0,0.0,0.0,0.0,0.0,0.0,0.0,0.0,0.0,0.0,0.0,0.0,0.0,0.0,0.0,0.0,0.0,0.0,0.0,0.0,0.0,0.0,0.0,0.0,0.0,0.0,0.0,0.0,0.0,0.0,0.0,0.0,0.0,0.0,0.835,0.8343,0.8343,0.8343,0.8248,0.8174,0.0,0.0,0.0,0.0,0.0,0.0,0.0,0.0,0.0,0.0,0.0,0.0,0.0,0.0,0.0,0.0,0.0,0.0,0.0,0.0,0.0,0.0,0.0,0.0,0.0,0.0,0.0,0.0,0.0,0.0,0.0,0.0,0.0,0.0,0.0,0.0,0.0,0.0,0.0,0.0,0.0,0.0,0.0,0.0,0.0,0.0,0.0,0.0,0.0,0.0,0.0,0.0,0.0,0.0,0.0,0.0,0.0,0.0,0.0,0.0,0.0,0.0,0.0,0.0,0.0,0.0,0.0,0.0,0.0,0.0,0.0,0.0,0.0,0.0,0.0,0.0,0.0,0.0,0.0,0.0,0.0,0.0,0.0,0.0,0.0,0.0,0.0,0.0,0.0,0.0,0.0,0.0,0.0,0.0,0.0,0.0,0.0,0.0,0.0,0.0,0.0,0.0,0.0,0.0,0.0,0.0,0.0,0.0,0.0,0.8893,0.8737,0.8628,0.8567,0.8479,0.841,0.8294,0.0,0.0,0.0,0.0,0.0,0.0,0.0,0.0,0.0,0.0,0.0,0.0,0.0,0.0,0.0,0.0,0.0,0.0,0.0,0.0,0.0,0.0,0.0,0.0,0.0,0.0,0.0,0.0,0.0,0.0,0.0,0.0,0.0,0.0,0.0,0.0,0.0,0.0,0.0,0.0,0.0,0.0,0.0,0.0,0.0,0.0,0.0,0.0,0.0,0.0,0.0,0.0,0.0,0.0,0.0,0.0,0.0,0.0,0.0,0.0,0.0,0.0,0.0,0.0,0.0,0.0,0.0,0.0,0.0,0.0,0.0,0.0,0.0,0.0,0.0,0.0,0.0,0.0,0.0,0.0,0.0,0.0,0.0,0.0,0.0,0.0,0.0,0.0,0.0,0.0,0.0,0.0,0.0,0.0,0.0,0.0,0.0,0.0,0.0,0.0,0.0,0.0,0.0,0.0,0.0,0.0,0.0,0.0,0.9648,0.9197,0.8912,0.8743,0.875,0.8601,0.0,0.0,0.0,0.0,0.0,0.0,0.0,0.0,0.0,0.0,0.0,0.0,0.0,0.0,0.0,0.0,0.0,0.0,0.0,0.0,0.0,0.0,0.0,0.0,0.0,0.0,0.0,0.0,0.0,0.0,0.0,0.0,0.0,0.0,0.0,0.0,0.0,0.0,0.0,0.0,0.0,0.0,0.0,0.0,0.0,0.0,0.0,0.0,0.0,0.0,0.0,0.0,0.0,0.0,0.0,0.0,0.0,0.0,0.0,0.0,0.0,0.0,0.0,0.0,0.0,0.0,0.0,0.0,0.0,0.0,0.0,0.0,0.0,0.0,0.0,0.0,0.0,0.0,0.0,0.0,0.0,0.0,0.0,0.0,0.0,0.0,0.0,0.0,0.0,0.0,0.0,0.0,0.0,0.0,0.0,0.0,0.0,0.0,0.0,0.0,0.0,0.0,0.0,0.0,0.0,0.0,0.0,0.0,0.0,1.0116,0.9992,0.9754,0.9388,0.9186,0.8981,0.0,0.0,0.0,0.0,0.0,0.0,0.0,0.0,0.0,0.0,0.0,0.0,0.0,0.0,0.0,0.0,0.0,0.0,0.0,0.0,0.0,0.0,0.0,0.0,0.0,0.0,0.0,0.0,0.0,0.0,0.0,0.0,0.0,0.0,0.0,0.0,0.0,0.0,0.0,0.0,0.0,0.0,0.0,0.0,0.0,0.0,0.0,0.0,0.0,0.0,0.0,0.0,0.0,0.0,0.0,0.0,0.0,0.0,0.0,0.0,0.0,0.0,0.0,0.0,0.0,0.0,0.0,0.0,0.0,0.0,0.0,0.0,0.0,0.0,0.0,0.0,0.0,0.0,0.0,0.0,0.0,0.0,0.0,0.0,0.0,0.0,0.0,0.0,0.0,0.0,0.0,0.0,0.0,0.0,0.0,0.0,0.0,0.0,0.0,0.0,0.0,0.0,0.0,0.0,0.0,0.0,0.0,0.0,1.0551,1.0685,1.0503,1.0249,0.9985,0.9625,0.9279,0.0,0.0,0.0,0.0,0.0,0.0,0.0,0.0,0.0,0.0,0.0,0.0,0.0,0.0,0.0,0.0,0.0,0.0,0.0,0.0,0.0,0.0,0.0,0.0,0.0,0.0,0.0,0.0,0.0,0.0,0.0,0.0,0.0,0.0,0.0,0.0,0.0,0.0,0.0,0.0,0.0,0.0,0.0,0.0,0.0,0.0,0.0,0.0,0.0,0.0,0.0,0.0,0.0,0.0,0.0,0.0,0.0,0.0,0.0,0.0,0.0,0.0,0.0,0.0,0.0,0.0,0.0,0.0,0.0,0.0,0.0,0.0,0.0,0.0,0.0,0.0,0.0,0.0,0.0,0.0,0.0,0.0,0.0,0.0,0.0,0.0,0.0,0.0,0.0,0.0,0.0,0.0,0.0,0.0,0.0,0.0,0.0,0.0,0.0,0.0,0.0,0.0,0.0,0.0,0.0,0.0,0.0,0.0,1.1433,1.1395,1.0955,1.067,1.048,1.0073,0.9555,0.0,0.0,0.0,0.0,0.0,0.0,0.0,0.0,0.0,0.0,0.0,0.0,0.0,0.0,0.0,0.0,0.0,0.0,0.0,0.0,0.0,0.0,0.0,0.0,0.0,0.0,0.0,0.0,0.0,0.0,0.0,0.0,0.0,0.0,0.0,0.0,0.0,0.0,0.0,0.0,0.0,0.0,0.0,0.0,0.0,0.0,0.0,0.0,0.0,0.0,0.0,0.0,0.0,0.0,0.0,0.0,0.0,0.0,0.0,0.0,0.0,0.0,0.0,0.0,0.0,0.0,0.0,0.0,0.0,0.0,0.0,0.0,0.0,0.0,0.0,0.0,0.0,0.0,0.0,0.0,0.0,0.0,0.0,0.0,0.0,0.0,0.0,0.0,0.0,0.0,0.0,0.0,0.0,0.0,0.0,0.0,0.0,0.0,0.0,0.0,0.0,0.0,0.0,0.0,0.0,0.0,0.0,0.0,1.2911,1.2707,1.2442,1.1715,1.0526,1.0175,0.9805,0.0,0.0,0.0,0.0,0.0,0.0,0.0,0.0,0.0,0.0,0.0,0.0,0.0,0.0,0.0,0.0,0.0,0.0,0.0,0.0,0.0,0.0,0.0,0.0,0.0,0.0,0.0,0.0,0.0,0.0,0.0,0.0,0.0,0.0,0.0,0.0,0.0,0.0,0.0,0.0,0.0,0.0,0.0,0.0,0.0,0.0,0.0,0.0,1.2584,0.0,0.0,0.0,0.0,0.0,0.0,0.0,0.0,0.0,0.0,0.0,0.0,0.0,0.0,0.0,0.0,0.0,0.0,0.0,0.0,0.0,0.0,0.0,0.0,0.0,0.0,0.0,0.0,0.0,0.0,0.0,0.0,0.0,0.0,0.0,0.0,0.0,0.0,0.0,0.0,0.0,0.0,0.0,0.0,0.0,0.0,0.0,0.0,0.0,0.0,0.0,0.0,0.0,0.0,0.0,0.0,0.0,0.0,0.0,1.4311,1.4281,1.3423,1.2526,1.1602,1.0692,1.0055,0.0,0.0,0.0,0.0,0.0,0.0,0.0,0.0,0.0,0.0,0.0,0.0,0.0,0.0,0.0,0.0,0.0,0.0,0.0,0.0,0.0,0.0,0.0,0.0,0.0,0.0,0.0,0.0,0.0,0.0,0.0,0.0,0.0,0.0,0.0,0.0,0.0,0.0,0.0,0.0,0.0,0.0,0.0,0.0,0.0,0.0,0.0,0.0,0.0,0.0,0.0,0.0,0.0,0.0,0.0,0.0,0.0,0.0,0.0,0.0,0.0,0.0,0.0,0.0,0.0,0.0,0.0,0.0,0.0,0.0,0.0,0.0,0.0,0.0,0.0,0.0,0.0,0.0,0.0,0.0,0.0,0.0,0.0,0.0,0.0,0.0,0.0,0.0,0.0,0.0,0.0,0.0,0.0,0.0,0.0,0.0,0.0,0.0,0.0,0.0,0.0,0.0,0.0,0.0,0.0,0.0,0.0,1.5148,1.5435,1.5795,1.4112,1.3028,1.2791,1.1344,1.0399,0.9965,0.0,0.0,0.0,0.0,0.0,0.0,0.0,0.0,0.0,0.0,0.0,0.0,0.0,0.0,0.0,0.0,0.0,0.0,0.0,0.0,0.0,0.0,0.0,0.0,0.0,0.0,0.0,0.0,0.0,0.0,0.0,0.0,0.0,0.0,0.0,0.0,0.0,0.0,0.7613,0.9748,0.0,0.0,0.0,0.0,0.0,0.0,0.0,0.0,1.4922,0.0,0.0,0.0,0.0,0.0,0.0,0.0,0.0,0.0,0.0,0.0,0.0,0.0,0.0,0.0,0.0,0.0,0.0,0.0,0.0,0.0,0.0,0.0,0.0,0.0,0.0,0.0,0.0,0.0,0.0,0.0,0.0,0.0,0.0,0.0,0.0,0.0,0.0,0.0,0.0,0.0,0.0,0.0,0.0,0.0,0.0,0.0,0.0,0.0,0.0,0.0,0.0,0.0,0.0,0.0,0.0,1.6421,1.5687,1.5854,1.7031,1.4436,1.2961,1.2783,1.1572,1.0816,1.0612,0.0,0.0,0.0,0.0,0.0,0.0,0.0,0.0,0.0,0.0,0.0,0.0,0.0,0.0,0.0,0.0,0.0,0.0,0.0,0.0,0.0,0.0,0.0,0.0,0.0,0.0,0.0,0.0,0.0,0.0,0.0,0.0,0.0,0.0,0.0,0.0,0.0,0.0,0.0,1.1228,1.3033,0.0,0.0,0.0,0.0,0.0,0.0,0.0,0.0,1.6814,0.0,0.0,0.0,0.0,0.0,0.0,0.0,0.0,0.0,0.0,0.0,0.0,0.0,0.0,0.0,0.0,0.0,0.0,0.0,0.0,0.0,0.0,0.0,0.0,0.0,0.0,0.0,0.0,0.0,0.0,0.0,0.0,0.0,0.0,0.0,0.0,0.0,0.0,0.0,0.0,0.0,0.0,0.0,0.0,0.0,0.0,0.0,0.0,0.0,0.0,0.0,0.0,0.0,0.0,0.0,1.6677,1.6278,1.6491,1.7385,1.4792,1.3553,1.3916,1.2211,1.1432,0.0,0.0,0.0,0.0,0.0,0.0,0.0,0.0,0.0,0.0,0.0,0.0,0.0,0.0,0.0,0.0,0.0,0.0,0.0,0.0,0.0,0.0,0.0,0.0,0.0,0.0,0.0,0.0,0.0,0.0,0.0,0.0,0.0,0.0,0.0,0.0,0.0,0.0,0.0,0.0,1.1985,1.4505,1.6508,0.0,0.0,0.0,0.0,0.0,0.0,1.7638,1.7606,0.0,0.0,0.0,0.0,0.0,0.0,0.0,0.0,0.0,0.0,0.0,0.0,0.0,0.0,0.0,0.0,0.0,0.0,0.0,0.0,0.0,0.0,0.0,0.0,0.0,0.0,0.0,0.0,0.0,0.0,0.0,0.0,0.0,0.0,0.0,0.0,0.0,0.0,0.0,0.0,0.0,0.0,0.0,0.0,0.0,0.0,0.0,0.0,0.0,0.0,0.0,0.0,0.0,0.0,0.0,1.6871,1.654,1.6753,1.7488,1.476,1.3692,1.4569,1.2732,1.1949,0.0,0.0,0.0,0.0,0.0,0.0,0.0,0.0,0.0,0.0,0.0,0.0,0.0,0.0,0.0,0.0,0.0,0.0,0.0,0.0,0.0,0.0,0.0,0.0,0.0,0.0,0.0,0.0,0.0,0.0,0.0,0.0,0.0,0.0,0.0,0.0,0.0,0.0,0.0,0.0,0.0,1.5864,1.8384,1.765,0.0,0.0,0.0,0.0,1.8451,1.8359,0.0,0.0,0.0,0.0,0.0,0.0,0.0,0.0,0.0,0.0,0.0,0.0,0.0,0.0,0.0,0.0,0.0,0.0,0.0,0.0,0.0,0.0,0.0,0.0,0.0,0.0,0.0,0.0,0.0,0.0,0.0,0.0,0.0,0.0,0.0,0.0,0.0,0.0,0.0,0.0,0.0,0.0,0.0,0.0,0.0,0.0,0.0,0.0,0.0,0.0,0.0,0.0,0.0,0.0,0.0,0.0,1.7314,1.5836,1.5929,1.7499,1.3765,1.2111,1.303,1.2602,1.2048,0.0,0.0,0.0,0.0,0.0,0.0,0.0,0.0,0.0,0.0,0.0,0.0,0.0,0.0,0.0,0.0,0.0,0.0,0.0,0.0,0.0,0.0,0.0,0.0,0.0,0.0,0.0,0.0,0.0,0.0,0.0,0.0,0.0,0.0,0.0,0.0,0.0,0.0,0.0,0.0,0.0,1.6851,1.96,1.9217,1.8547,0.0,0.0,1.9001,1.8891,1.9677,0.0,0.0,0.0,0.0,0.0,0.0,0.0,0.0,0.0,0.0,0.0,0.0,0.0,0.0,0.0,0.0,0.0,0.0,0.0,0.0,0.0,0.0,0.0,0.0,0.0,0.0,0.0,0.0,0.0,0.0,0.0,0.0,0.0,0.0,0.0,0.0,0.0,0.0,0.0,0.0,0.0,0.0,0.0,0.0,0.0,0.0,0.0,0.0,0.0,0.0,0.0,0.0,0.0,0.0,0.0,1.6773,1.7708,1.7027,1.6706,1.6767,1.421,1.2947,1.3185,1.2812,1.2734,0.0,0.0,0.0,0.0,0.0,0.0,0.0,0.0,0.0,0.0,0.0,0.0,0.0,0.0,0.0,0.0,0.0,0.0,0.0,0.0,0.0,0.0,0.0,0.0,0.0,0.0,0.0,0.0,0.0,0.0,0.0,0.0,0.0,0.0,0.0,0.0,0.0,0.0,0.0,0.0,0.0,0.0,2.0085,2.013,0.0,0.0,0.0,2.0526,2.0217,0.0,0.0,0.0,0.0,0.0,0.0,0.0,0.0,0.0,0.0,0.0,0.0,0.0,0.0,0.0,0.0,0.0,0.0,0.0,0.0,0.0,0.0,0.0,0.0,0.0,0.0,0.0,0.0,0.0,0.0,0.0,0.0,0.0,0.0,0.0,0.0,0.0,0.0,0.0,0.0,0.0,0.0,0.0,0.0,0.0,0.0,0.0,0.0,0.0,0.0,0.0,0.0,0.0,0.0,0.0,0.0,0.0,1.805,1.8011,1.7351,1.6046,1.4628,1.3562,1.2936,1.3085,0.0,0.0,0.0,0.0,0.0,0.0,0.0,0.0,0.0,0.0,0.0,0.0,0.0,0.0,0.0,0.0,0.0,0.0,0.0,0.0,0.0,0.0,0.0,0.0,0.0,0.0,0.0,0.851,0.0,0.0,0.0,0.0,0.0,0.0,0.0,0.0,0.0,0.0,0.0,0.0,0.0,0.0,1.9369,2.1541,2.1624,2.1506,0.0,0.0,2.1695,2.1288,2.1216,2.1254,0.0,0.0,0.0,0.0,0.0,0.0,0.0,0.0,0.0,0.0,0.0,0.0,0.0,0.0,0.0,0.0,0.0,0.0,0.0,0.0,0.0,0.0,0.0,0.0,0.0,0.0,0.0,0.0,0.0,0.0,0.0,0.0,0.0,0.0,0.0,0.0,0.0,0.0,0.0,0.0,0.0,0.0,0.0,0.0,0.0,0.0,0.0,0.0,0.0,0.0,0.0,0.0,0.0,0.0,0.0,1.8239,1.8087,1.7358,1.5961,1.4603,1.3083,1.1462,1.3445,1.4036,0.0,0.0,0.0,0.0,0.0,0.0,0.0,0.0,0.0,0.0,0.0,0.0,0.0,0.0,0.0,0.0,0.0,0.0,0.0,0.0,0.0,0.0,0.0,0.0,0.0,0.0,0.0,0.0,0.0,0.0,0.0,0.0,0.0,0.0,0.0,0.0,0.0,0.0,0.0,0.0,0.0,2.1451,2.5029,2.426,2.345,0.0,0.0,2.2309,2.1652,2.1569,2.1592,2.1661,0.0,0.0,0.0,0.0,0.0,0.0,0.0,0.0,0.0,0.0,0.0,0.0,0.0,0.0,0.0,0.0,0.0,0.0,0.0,0.0,0.0,0.0,0.0,0.0,0.0,0.0,0.0,0.0,0.0,0.0,0.0,0.0,0.0,0.0,0.0,0.0,0.0,0.0,0.0,0.0,0.0,0.0,0.0,0.0,0.0,0.0,0.0,0.0,0.0,0.0,0.0,0.0,0.0,1.8374,1.9277,1.9722,1.9277,1.7809,1.6129,1.4479,1.2911,1.4056,1.4492,0.0,0.0,0.0,0.0,0.0,0.0,0.0,0.0,0.0,0.0,0.0,0.0,0.0,0.0,0.0,0.0,0.0,0.0,0.0,0.0,0.0,0.0,0.0,0.0,0.0,0.0,0.0,0.0,1.1325,1.2219,1.3873,0.0,0.0,0.0,0.0,0.0,0.0,0.0,0.0,0.0,0.0,2.4293,2.6565,2.6473,0.0,0.0,2.4738,2.4283,2.292,2.2935,2.3252,2.3723,2.3892,0.0,0.0,0.0,0.0,0.0,0.0,0.0,0.0,0.0,0.0,0.0,0.0,0.0,0.0,0.0,0.0,0.0,0.0,0.0,0.0,0.0,0.0,0.0,0.0,0.0,0.0,0.0,0.0,0.0,0.0,0.0,0.0,0.0,0.0,0.0,0.0,0.0,0.0,0.0,0.0,0.0,0.0,0.0,0.0,0.0,0.0,0.0,0.0,0.0,0.0,0.0,0.0,1.9078,2.0011,2.0938,2.0641,1.917,1.783,1.6202,1.4369,1.5473,1.586,0.0,0.0,0.0,0.0,0.0,0.0,0.0,0.0,0.0,0.0,0.0,0.0,0.0,0.0,0.0,0.0,0.0,0.0,0.0,0.0,0.0,0.0,0.0,0.0,0.0,0.0,0.0,0.0,1.3194,1.4116,1.5524,0.0,0.0,0.0,0.0,0.0,0.0,0.0,0.0,0.0,0.0,2.7132,2.8544,2.8626,2.8121,2.6796,2.6617,2.6148,2.4753,2.4453,2.4749,2.585,0.0,0.0,0.0,0.0,0.0,0.0,0.0,0.0,0.0,0.0,0.0,0.0,0.0,0.0,0.0,0.0,0.0,0.0,0.0,0.0,0.0,0.0,0.0,0.0,0.0,0.0,0.0,0.0,0.0,0.0,1.6147,0.0,0.0,0.0,0.0,0.0,0.0,0.0,0.0,0.0,0.0,0.0,0.0,0.0,0.0,0.0,0.0,0.0,0.0,0.0,0.0,0.0,0.0,0.0,2.0265,2.1264,2.1057,1.9576,1.9437,1.7959,1.5221,1.7844,1.8445,1.6506,0.0,0.0,0.0,0.0,0.0,0.0,0.0,0.0,0.0,0.0,0.0,0.0,0.0,0.0,0.0,0.0,0.0,0.0,0.0,0.0,0.0,0.0,0.0,0.0,0.0,0.0,1.4972,1.5704,1.6222,0.0,0.0,0.0,0.0,0.0,0.0,0.0,0.0,0.0,0.0,2.8543,2.9932,3.129,3.0857,3.0238,2.9815,2.8667,2.7686,2.7173,2.605,2.5835,0.0,0.0,0.0,0.0,0.0,0.0,0.0,0.0,0.0,0.0,0.0,0.0,0.0,0.0,0.0,0.0,0.0,0.0,0.0,0.0,0.0,0.0,0.0,0.0,0.0,0.0,0.0,1.6482,1.7979,0.0,0.0,0.0,0.0,0.0,0.0,0.0,0.0,0.0,0.0,0.0,1.9163,1.9163,0.0,0.0,0.0,0.0,0.0,0.0,0.0,0.0,0.0,0.0,0.0,0.0,2.0288,2.0641,2.1427,2.1415,2.0641,1.9657,1.867,1.7725,1.8879,1.9565,1.9744,0.0,0.0,0.0,0.0,0.0,0.0,0.0,0.0,0.0,0.0,0.0,0.0,0.0,0.0,0.0,0.0,0.0,0.0,0.0,0.0,0.0,0.0,0.0,0.0,0.0,1.7023,0.0,0.0,0.0,0.0,0.0,0.0,0.0,0.0,0.0,0.0,0.0,2.822,3.008,3.151,3.2697,3.3681,3.3148,3.2388,0.0,0.0,0.0,0.0,0.0,0.0,0.0,0.0,0.0,0.0,0.0,0.0,0.0,0.0,3.5983,3.4803,3.5895,3.7515,3.9068,0.0,0.0,0.0,0.0,0.0,0.0,0.0,0.0,0.0,0.0,0.0,0.0,0.0,0.0,0.0,0.0,1.9297,0.0,0.0,0.0,0.0,0.0,0.0,0.0,0.0,2.0868,2.1077,2.1062,2.1028,2.0875,0.0,1.9535,1.8622,0.0,0.0,0.0,0.0,0.0,0.0,0.0,0.0,2.103,2.1322,2.1876,2.2035,2.176,2.0849,2.0109,1.9588,1.9878,2.069,2.2022,2.1467,2.0714,0.0,0.0,0.0,0.0,0.0,0.0,0.0,0.0,0.0,0.0,0.0,0.0,0.0,0.0,0.0,0.0,0.0,0.0,0.0,0.0,0.0,0.0,0.0,1.9827,0.0,0.0,0.0,0.0,0.0,0.0,0.0,0.0,0.0,2.6236,2.8702,3.1048,3.2471,3.3748,3.4702,3.5055,0.0,0.0,0.0,0.0,0.0,0.0,0.0,3.0969,3.1976,3.2738,3.3529,3.4524,3.8741,4.1504,3.9688,0.0,0.0,3.9029,3.9802,4.1392,4.3254,4.4107,4.4998,4.6274,4.7017,4.7677,0.0,0.0,0.0,0.0,0.0,0.0,0.0,0.0,1.9715,2.0151,0.0,2.0654,0.0,0.0,0.0,0.0,0.0,2.1227,0.0,0.0,2.2832,2.3276,2.3207,2.3171,2.2932,2.2328,2.0272,1.9991,2.126,1.9408,0.0,0.0,0.0,0.0,0.0,0.0,2.1416,2.2242,2.2632,2.2859,2.2825,2.2825,2.2125,2.0757,2.1012,2.1863,2.3187,2.2735,2.2233,2.1803,2.0499,0.0,0.0,0.0,0.0,0.0,0.0,0.0,0.0,0.0,0.0,0.0,0.0,0.0,0.0,0.0,0.0,0.0,0.0,0.0,0.0,2.2791,0.0,0.0,0.0,0.0,0.0,0.0,0.0,0.0,0.0,0.0,2.8591,3.1052,3.3218,3.4197,0.0,0.0,0.0,0.0,3.523,3.4543,3.4091,3.3796,3.3833,3.3228,3.3143,3.421,0.0,0.0,3.8055,4.1717,4.375,4.2198,4.3522,4.4415,4.2683,4.3579,4.502,4.6506,4.7806,4.8746,4.891,4.9721,5.0533,1.75,0.0,0.0,0.0,0.0,1.6016,1.753,2.0047,1.9882,2.0742,2.2217,2.2005,0.0,0.0,0.0,0.0,0.0,0.0,2.2526,2.3219,2.3537,2.3617,2.3625,2.3625,2.3532,2.3373,2.2724,2.2547,2.274,2.2397,2.1665,2.0532,0.0,0.0,0.0,0.0,2.2267,2.2214,2.238,2.2379,2.2138,2.2345,2.2484,2.2519,2.2875,2.3209,2.3647,2.3483,2.3034,2.2268,2.1841,0.0,0.0,0.0,0.0,0.0,0.0,0.0,0.0,0.0,0.0,0.0,0.0,0.0,0.0,0.0,0.0,0.0,0.0,0.0,2.3794,2.534,2.6131,0.0,0.0,0.0,0.0,0.0,0.0,0.0,0.0,0.0,3.1754,3.3144,3.4481,0.0,0.0,3.5982,3.5879,3.566,3.5523,3.5538,0.0,0.0,0.0,3.4621,3.4781,3.6334,3.6002,3.6834,4.0877,4.3451,4.4761,4.4091,4.552,4.6872,4.7324,4.783,4.8843,5.0229,5.0922,5.139,5.2,5.2444,5.2842,2.073,1.9266,1.7228,1.7001,1.796,1.7971,1.937,2.1672,2.1474,2.2082,2.3241,2.3033,2.2756,2.2392,2.2427,0.0,0.0,0.0,2.3311,2.3941,2.3977,2.4044,2.4115,2.4115,2.4048,2.3941,2.3196,2.3106,2.3639,2.3119,2.2793,2.2576,0.0,0.0,2.2322,2.2746,2.2923,2.2839,2.2894,2.2802,2.2592,2.2802,2.3104,2.35,2.3817,2.3977,2.3977,2.3941,2.3696,2.3126,2.277,2.2167,0.0,0.0,0.0,0.0,0.0,0.0,0.0,0.0,0.0,0.0,0.0,2.1861,0.0,0.0,0.0,0.0,2.5073,2.5544,2.6924,2.7988,0.0,0.0,0.0,0.0,0.0,0.0,0.0,3.0207,3.1931,3.3265,3.3764,3.4644,3.541,3.5923,3.6035,3.6035,3.6035,0.0,3.5777,3.5982,3.5606,3.5621,3.6403,3.6316,3.6702,3.832,3.8089,3.8793,4.2049,4.3969,4.5115,4.588,4.6938,4.8315,5.0017,5.0848,5.1571,5.2505,5.2717,5.3042,5.3935,5.4123,5.4428,2.3981,2.3862,1.9577,1.897,2.0736,2.0783,2.1943,2.3834,2.3843,2.3843,2.3843,2.3817,2.3817,2.3803,2.3817,0.0,2.3843,2.3843,2.3955,2.4235,2.4199,2.4382,2.4599,2.4599,2.4466,2.4199,2.2471,2.2532,2.405,2.2495,2.2656,2.4472,2.3727,2.3298,2.3298,2.3272,2.3451,2.3843,2.3781,2.3803,2.3803,2.383,2.3843,2.3843,2.4088,2.4235,2.4235,2.4235,2.4222,2.4168,2.3455,2.2987,2.2907,0.0,0.0,0.0,0.0,0.0,0.0,0.0,0.0,0.0,0.0,0.0,0.0,0.0,0.0,0.0,2.8723,0.0,3.0556,3.042,0.0,0.0,0.0,3.0187,3.0588,3.0674,3.124,3.2548,0.0,0.0,3.4844,0.0,3.6035,3.6035,3.6035,3.6035,3.6035,3.6001,3.6035,3.6035,3.6001,3.6471,3.7696,3.8242,3.8915,4.0138,4.0475,4.1176,4.2896,4.4226,4.5588,4.735,4.8106,4.9064,5.1316,5.2539,5.35,5.3419,5.3416,5.3698,5.4616,5.483,5.5115,2.4262,2.4429,2.3295,2.3042,2.3301,2.3337,2.3727,2.4372,2.4195,2.4102,2.4088,2.391,2.3817,2.3817,2.3817,2.3888,2.4102,2.4102,2.4262,2.4492,2.4492,2.4532,2.4599,2.4599,2.4559,2.4456,2.4038,2.397,2.4186,2.397,2.3996,2.4279,2.4273,2.4253,2.4276,2.4063,2.4029,2.4102,2.3875,2.3817,2.3817,2.3981,2.4102,2.4102,2.4346,2.4492,2.4492,2.4506,2.4386,2.4209,2.4008,2.3674,2.3233,2.3066,0.0,0.0,0.0,0.0,0.0,0.0,0.0,0.0,0.0,2.6341,2.6917,0.0,2.9898,0.0,3.118,3.1212,3.0198,3.0609,0.0,0.0,3.1884,3.2003,3.2416,3.2944,3.3437,3.3778,3.4511,3.5073,3.5271,3.5694,3.6035,3.6035,3.6035,3.6035,3.6035,3.6035,3.6035,3.6035,3.6016,3.6505,3.8042,3.9964,4.1473,4.2002,4.2747,4.3942,4.5734,4.744,4.8691,4.9043,5.0019,5.1013,5.1647,5.2677,5.3477,5.3471,5.3123,5.311,5.4067,5.4045,5.4333,2.4452,2.4599,2.4599,2.4506,2.4396,2.4396,2.4452,2.4586,2.4462,2.4359,2.4346,2.4235,2.4155,2.4155,2.4155,2.4249,2.4396,2.4359,2.4452,2.4599,2.4599,2.4599,2.4599,2.4599,2.4599,2.4599,2.4599,2.4519,2.4409,2.4519,2.4519,2.4359,2.4519,2.4599,2.4586,2.4439,2.4359,2.4359,2.4235,2.4155,2.4155,2.4315,2.4359,2.4372,2.4519,2.4599,2.4599,2.4599,2.4519,2.4372,2.4275,2.412,2.3963,2.3894,2.3967,0.0,0.0,0.0,0.0,0.0,0.0,0.0,0.0,0.0,0.0,0.0,3.1486,0.0,3.2339,3.2432,3.1644,3.2164,3.2855,3.3706,3.3623,3.3629,3.4071,3.45,3.4779,3.4973,3.5373,3.5664,3.5684,3.5879,3.6253,3.6843,3.6924,3.6708,3.6118,3.6035,3.6035,3.6035,3.6539,3.7709,3.9779,4.1961,4.3616,4.4134,4.4491,4.5487,4.7799,5.0976,5.2812,5.1675,5.2574,5.3564,5.3452,5.4284,5.508,5.5067,5.4824,5.4805,5.5232,5.55,5.6162,2.4599,2.4599,2.4599,2.4599,2.4599,2.4599,2.4599,2.4599,2.4599,2.4599,2.4599,2.4599,2.4599,2.4599,2.4599,2.4599,2.4599,2.4599,2.4599,2.4599,2.4599,2.4599,2.4599,2.4599,2.4599,2.4599,2.4639,2.4639,2.4599,2.4639,2.4639,2.4599,2.4599,2.4599,2.4599,2.4599,2.4599,2.4599,2.4599,2.4599,2.4599,2.4599,2.4599,2.4599,2.4599,2.4599,2.4599,2.4599,2.4599,2.4586,2.4396,2.4394,2.4766,2.4791,2.4989,0.0,2.618,0.0,0.0,0.0,0.0,0.0,0.0,0.0,0.0,3.1682,3.2758,3.2497,3.3088,3.3642,3.3999,3.4274,3.4707,3.5377,3.5117,3.5039,3.541,3.5469,3.5605,3.5942,3.6035,3.605,3.6268,3.6287,3.6789,3.8075,3.8458,3.8153,3.699,3.6767,3.6795,3.6652,3.7885,4.0016,4.2299,4.4009,4.526,4.5981,4.627,4.6824,4.9287,5.3644,5.6307,5.4459,5.4842,5.5725,5.5636,5.6403,5.7112,5.7372,5.7591,5.7562,5.7252,5.761,5.8828,2.4599,2.4599,2.4599,2.4599,2.4599,2.4599,2.4599,2.4599,2.4599,2.4599,2.4599,2.4599,2.4599,2.4599,2.4599,2.4599,2.4599,2.4599,2.4599,2.4599,2.4599,2.4599,2.4599,2.4599,2.4599,2.4613,2.4877,2.4877,2.4599,2.489,2.4877,2.4599,2.4599,2.4599,2.4599,0.0,0.0,0.0,2.4599,2.4599,2.4599,2.4599,2.4599,2.4599,2.4599,0.0,2.4599,2.4599,2.4599,2.4599,2.4546,0.0,0.0,0.0,0.0,0.0,0.0,0.0,0.0,0.0,0.0,0.0,3.1687,3.2252,3.2484,3.3691,3.4618,3.4897,3.5017,3.5237,3.5632,3.567,3.5699,3.5845,3.582,3.582,3.5898,3.5932,3.5937,3.5982,3.6035,3.6491,3.7589,3.7709,3.8262,3.968,4.018,4.033,4.012,3.9621,3.9547,4.0088,4.1408,4.2895,4.3943,4.5294,4.6466,4.7165,4.86,4.977,5.1245,5.3942,5.6159,5.5208,5.5309,5.591,5.6677,5.6956,5.7907,5.9291,6.0324,6.0384,5.8634,5.8262,5.855,2.477,0.0,2.4599,2.4599,0.0,2.4599,2.4716,2.485,2.4666,2.4599,2.4599,2.4599,2.4599,2.4599,2.4599,2.4599,2.4599,2.4599,2.4599,2.4599,2.4599,2.4716,2.4863,2.4863,2.493,2.5039,2.5224,2.5211,2.5039,2.5224,2.5144,2.4863,2.485,2.4783,2.4599,2.4599,2.4599,2.4599,2.4599,2.4599,2.4599,2.4599,2.4599,2.4599,0.0,0.0,0.0,0.0,0.0,0.0,0.0,0.0,0.0,0.0,0.0,2.7914,2.9517,3.0753,3.1302,3.1661,3.2056,3.2663,3.3732,3.4298,3.4091,3.4646,3.5145,3.5543,3.5876,3.6216,3.6444,3.7208,3.7803,3.8073,3.8542,3.8839,3.8859,3.8872,3.8872,3.8914,3.9114,3.9545,4.0222,4.0323,4.0894,4.2103,4.2025,4.2212,4.3023,4.1991,4.1386,4.2476,4.3533,4.4954,4.6553,4.7358,4.8418,4.9736,5.0439,5.1473,5.3217,5.5253,5.6783,5.7063,5.7456,5.807,5.9191,6.0156,6.1215,6.2255,6.3268,6.3658,6.2441,6.1648,6.1121,2.501,2.4759,2.4746,2.4759,2.4759,2.4759,2.4893,2.5144,0.0,0.0,0.0,2.4679,2.4679,2.4679,2.4733,2.4759,2.4759,2.4759,2.4746,2.4746,2.4759,2.4917,2.5157,2.5157,2.5277,2.5504,2.5571,2.5558,2.5518,2.5558,2.5438,2.5184,2.5157,2.501,2.473,2.4679,2.4653,2.4599,2.4599,2.4599,2.4599,2.4653,2.4679,2.4679,2.4733,2.4759,2.4759,2.4759,2.4759,2.4759,2.4746,2.507,2.5815,2.7303,2.8464,2.9206,3.0903,3.2189,3.275,3.3045,3.3605,3.4575,3.5591,3.5956,3.5325,3.5338,3.5562,3.5962,3.68,3.728,3.7145,3.8937,4.0153,4.0201,4.1298,4.1987,4.1933,4.2055,4.1908,4.2121,4.2304,4.2841,4.3001,4.3035,4.359,4.4633,4.4265,4.4154,4.5646,4.4447,4.3458,4.4622,4.5674,4.6903,4.8911,4.991,5.0744,5.2197,5.2305,5.2947,5.5015,5.6709,5.8017,5.9096,5.9872,6.0654,6.1945,6.3309,6.4905,6.5258,6.6005,6.6595,6.6519,6.5684,6.4574,2.5424,2.5398,2.5346,2.5398,2.5398,2.5384,2.5411,2.5424,2.5144,2.501,2.5024,2.5024,2.5024,2.5037,2.5277,2.5398,2.5384,2.5384,2.5384,0.0,2.5346,2.5411,2.5451,2.5451,2.5478,2.5531,2.5772,2.5758,2.5571,2.5772,2.5784,2.5491,2.5451,2.5304,2.5037,2.501,2.489,2.4613,2.4599,2.4599,2.4599,2.489,2.5024,2.5024,2.5264,2.5384,2.5346,2.5346,2.5398,2.5346,2.5384,2.6216,2.8025,2.9568,3.1232,3.3004,3.4602,3.5394,3.5103,3.5157,3.5263,3.5433,3.618,3.6553,3.6483,3.6797,3.7164,3.7588,3.8859,3.9303,3.8682,4.0896,4.1941,4.0731,4.1933,4.2889,4.273,4.3029,4.3284,4.3319,4.3156,4.3831,4.4892,4.5096,4.5594,4.6693,4.6741,4.726,4.8352,4.7476,4.6623,4.7021,4.8508,4.9882,5.1007,5.1843,5.2783,5.3257,5.4726,5.5576,5.6409,5.7858,5.9356,6.0572,6.0989,6.1846,6.3594,6.44,6.565,6.7005,6.7737,6.8027,6.8284,6.8069,6.7372,2.5892,2.5745,2.5585,2.5518,2.5518,2.5678,2.5758,2.5745,2.565,2.5464,2.5317,2.5317,2.5317,2.5331,2.5451,2.5518,2.5518,2.5518,2.5518,2.5518,2.5518,2.5598,2.5745,2.5784,2.5838,2.5985,2.6119,2.6119,2.6012,2.6132,2.6078,2.5758,2.5598,2.5438,2.5317,2.5317,2.5331,2.5344,2.5037,2.4943,2.5079,2.5398,2.5596,2.5596,2.573,2.5678,2.5518,2.5518,2.5518,2.5518,2.6381,2.7407,2.8574,3.0888,3.2722,3.3864,3.5344,3.6238,3.6294,3.6679,3.7027,3.7302,3.774,3.8563,3.9614,3.8639,3.854,3.9766,4.0766,4.1497,4.1829,4.3818,4.4785,4.3933,4.539,4.63,4.6206,4.6322,4.6427,4.6484,4.6716,4.7121,4.7731,4.7858,4.7996,4.8704,4.8758,4.9677,5.2279,5.1344,5.0212,5.0334,5.128,5.266,5.4036,5.4892,5.5677,5.6481,5.7044,5.7829,5.8552,5.9558,6.0512,6.2426,6.3105,6.4126,6.5813,6.6659,6.7541,6.8257,6.8936,6.9292,6.9842,7.0097,6.9475,2.6493,2.6265,2.5932,2.5772,2.5732,2.5959,2.6091,2.6091,2.6091,2.5919,2.5718,2.5651,2.5611,2.5625,2.5678,2.5718,2.5705,2.5718,2.5718,2.5718,2.5705,2.5838,2.6078,2.6091,2.6212,2.6373,2.64,2.64,2.64,2.64,2.6319,2.6172,2.5865,2.5745,2.576,2.5678,2.5718,2.5957,2.5543,2.5422,2.5611,2.5877,2.5998,2.5998,2.6065,2.5945,2.5732,2.5705,2.5859,2.6282,2.7516,2.8714,2.9931,3.2203,3.3966,3.493,3.5987,3.683,3.7296,3.7946,3.8578,3.9334,3.9707,4.0677,4.2319,4.1138,4.0691,4.2099,4.2916,4.3672,4.4458,4.6095,4.7098,4.6889,4.8045,4.8659,4.8892,4.9143,4.9287,4.9335,4.9769,5.0092,5.0579,5.0659,5.0474,5.0084,5.062,5.2552,5.5226,5.4611,5.383,5.4085,5.4156,5.4633,5.68,5.7115,5.7561,5.8755,5.8494,5.8893,5.9948,6.0328,6.1491,6.3746,6.5037,6.5931,6.7409,6.8422,6.896,6.9292,6.9689,7.0402,7.1231,7.1491,7.1062,2.7202,2.7148,2.68,2.6547,2.6306,2.6346,2.6346,2.6346,2.6346,2.6333,2.6253,2.6065,2.5957,2.5998,2.6172,2.6279,2.6279,2.6306,2.6293,2.6279,2.6306,2.6319,2.6333,2.6346,2.636,2.64,2.64,2.64,2.64,2.64,2.6507,2.668,2.6453,2.6426,2.66,2.6172,2.5984,2.5998,2.5944,2.5917,2.5944,2.5984,2.5998,2.5998,2.6252,2.6333,2.6384,2.6306,2.704,2.8419,2.8739,3.0361,3.3358,3.4154,3.548,3.7934,3.7963,3.8045,3.8482,3.8974,3.9819,4.1275,4.1719,4.2638,4.4207,4.4547,4.4532,4.4705,4.5688,4.5827,4.4931,4.6808,4.7667,4.6727,4.7654,4.8363,4.8555,4.9263,4.9817,4.9841,5.0449,5.1209,5.256,5.2876,5.2363,5.127,5.3167,5.526,5.6801,5.6563,5.6626,5.7629,5.7266,5.6407,5.6831,5.7024,5.7657,5.7797,5.8058,5.909,6.0253,6.1107,6.1819,6.4977,6.5746,6.6708,6.7962,6.8994,6.9358,6.9779,7.0459,7.1377,7.2116,7.2409,7.1864,2.7522,2.7495,2.7201,2.6921,2.6667,2.664,2.6547,2.64,2.64,2.64,2.6386,2.6305,2.6252,2.6226,2.6333,2.64,2.64,2.64,2.64,2.64,2.64,2.64,2.64,2.64,2.64,2.64,2.64,2.64,2.6413,2.656,2.68,2.7041,2.6961,2.6974,2.7041,2.668,2.6586,2.676,2.6426,2.6293,2.6453,2.6466,2.6466,2.648,2.6587,2.7063,2.7805,2.7894,2.8622,3.0222,3.1261,3.255,3.4278,3.5287,3.6529,3.8152,3.8556,3.8804,3.8994,4.0219,4.1245,4.1928,4.3173,4.4583,4.6159,4.6789,4.7354,4.8056,4.7939,4.7645,4.7748,4.8644,4.8903,4.8112,4.8417,4.8878,4.9239,4.9659,5.0263,5.1363,5.199,5.2813,5.4154,5.4723,5.4544,5.3991,5.5403,5.7011,5.8945,5.8644,5.8749,5.9959,6.0233,5.9829,5.8983,5.8811,5.8987,5.9131,5.9502,6.0378,6.2183,6.3383,6.467,6.6843,6.7261,6.7758,6.8846,6.9237,6.955,7.0286,7.1693,7.2873,7.3206,7.3331,7.3041,2.7816,2.7776,2.7509,2.7215,2.6947,2.6947,2.6774,2.652,2.6507,2.6466,2.64,2.64,2.64,2.64,2.64,2.64,2.64,2.64,2.64,2.64,2.64,2.64,2.64,2.64,2.64,2.64,2.64,2.6426,2.652,2.6707,2.7257,2.7962,2.807,2.8356,2.8848,2.8468,2.8356,2.8607,2.8061,2.785,2.8058,2.8021,2.7836,2.7478,2.7836,2.854,2.9479,2.9541,3.0315,3.1912,3.3184,3.4153,3.4904,3.6,3.6994,3.7877,3.9238,3.9916,3.9893,4.1625,4.2899,4.3395,4.4786,4.6249,4.7626,4.8318,4.9003,4.9816,4.9168,4.8886,4.9682,4.9648,4.9425,4.9402,4.9455,4.9737,5.0616,5.0938,5.1829,5.319,5.3756,5.4597,5.5984,5.6919,5.7409,5.7452,5.7669,5.8802,6.1243,6.1244,6.0977,6.2263,6.3347,6.305,6.1468,6.117,6.1172,6.1196,6.1483,6.2017,6.4,6.4893,6.6222,6.7138,6.8259,6.9193,6.9746,6.9945,7.0402,7.1662,7.2894,7.3858,7.4127,7.4251,7.4187,2.8165,2.8112,2.7802,2.7509,2.7282,2.7282,2.7081,2.68,2.6814,2.6653,2.6426,2.6413,2.64,2.64,2.64,2.64,2.64,2.64,2.64,2.64,2.64,2.64,2.64,2.64,2.6439,2.6664,2.6703,2.6838,2.7041,2.7001,2.7959,3.0069,2.9986,3.0901,3.2317,3.1777,3.1756,3.1628,3.1067,3.0931,3.0986,3.1001,3.0307,2.9251,3.023,3.0947,3.1185,3.1185,3.195,3.36,3.3844,3.4539,3.5902,3.6218,3.6701,3.7665,4.0244,4.1723,4.1648,4.3069,4.4673,4.6033,4.6408,4.7272,4.8569,4.8919,4.9139,4.9249,4.938,4.9466,4.9983,4.9388,4.9233,5.0206,5.0361,5.1103,5.2569,5.3459,5.4431,5.5026,5.5619,5.6639,5.8194,5.9894,6.0475,6.0629,6.0835,6.1817,6.362,6.3974,6.4206,6.5045,6.5773,6.5753,6.357,6.3143,6.3501,6.3425,6.3006,6.2995,6.3426,6.4234,6.5987,6.7338,6.8214,6.9221,7.0304,7.1232,7.1944,7.279,7.3422,7.4165,7.4692,7.4988,7.4815,2.8192,2.8179,2.8072,2.7844,2.7562,2.7549,2.7375,2.7148,2.7108,2.6934,2.6694,2.6667,2.656,2.64,2.64,2.64,2.64,2.64,2.64,2.64,2.64,2.64,2.64,2.64,2.7167,2.827,2.8403,2.9243,3.066,3.0746,3.1255,3.2053,3.2201,3.2495,3.2847,3.2491,3.2181,3.1983,3.1538,3.13,3.1491,3.2331,3.2576,3.2026,3.1529,3.1797,3.288,3.2918,3.3638,3.5288,3.5326,3.5699,3.6516,3.7071,3.7934,3.9152,4.0498,4.1609,4.2514,4.4007,4.5127,4.5794,4.7046,4.7909,4.8492,4.8902,4.9436,5.0201,5.0646,5.1147,5.172,5.0679,5.0147,5.1364,5.1877,5.2604,5.3687,5.4569,5.5425,5.6827,5.8107,5.9341,6.011,6.1436,6.1939,6.1556,6.2846,6.4546,6.5602,6.5873,6.5994,6.6481,6.7253,6.7641,6.6962,6.5609,6.5112,6.487,6.4683,6.4935,6.5293,6.6395,6.8055,6.8711,6.9159,6.9736,7.103,7.2372,7.3099,7.3462,7.4107,7.4617,7.5116,7.5155,7.4851,2.9048,2.9048,2.9062,2.8896,2.8634,2.8093,2.7724,2.7469,2.7443,2.7241,2.7001,2.6961,2.6854,2.6667,2.6573,2.6587,2.668,2.6493,2.64,2.64,2.64,2.64,2.6505,2.6965,2.7928,2.9257,3.0021,3.1209,3.2626,3.2945,3.3468,3.418,3.4254,3.4423,3.4505,3.4232,3.3848,3.3564,3.3131,3.2902,3.3053,3.3995,3.4559,3.4409,3.3449,3.3373,3.4521,3.4597,3.5027,3.6015,3.6201,3.6608,3.7438,3.8263,3.9385,4.0758,4.1806,4.2648,4.3725,4.5176,4.6012,4.6046,4.7183,4.8209,4.8847,4.9346,5.0388,5.1778,5.2532,5.3257,5.4177,5.3465,5.2862,5.3613,5.407,5.4849,5.6102,5.669,5.7618,5.8952,6.0386,6.1346,6.1821,6.2785,6.3034,6.2413,6.4455,6.6248,6.8131,6.803,6.7946,6.8252,6.9029,6.9552,6.9265,6.8398,6.7434,6.7066,6.6673,6.6882,6.708,6.8339,6.9406,6.9983,7.0523,7.0962,7.1879,7.3261,7.3893,7.4165,7.4544,7.5025,7.5173,7.5102,7.506,3.0829,3.0829,3.0788,3.0815,3.0578,2.93,2.8214,2.7971,2.7861,2.7741,2.7363,2.7309,2.7269,2.7243,2.7163,2.7082,2.7108,2.7093,2.6928,2.6703,2.6637,2.6702,2.6925,2.8271,2.9149,2.9721,3.1183,3.2274,3.3024,3.3491,3.4444,3.5742,3.5994,3.662,3.8387,3.7327,3.7122,3.6807,3.6132,3.5957,3.6182,3.605,3.6032,3.6051,3.5884,3.5848,3.6052,3.6052,3.6052,3.6163,3.6312,3.7125,3.8876,3.9813,4.09,4.2487,4.4138,4.5108,4.5414,4.6573,4.7298,4.753,4.7588,4.8533,4.9979,5.0474,5.1604,5.3795,5.4713,5.5461,5.6847,5.7097,5.6755,5.6467,5.6716,5.7749,5.9155,6.0186,6.0772,6.1135,6.2028,6.2814,6.3129,6.3951,6.45,6.4528,6.5472,6.7594,7.0647,7.0376,7.0244,7.0749,7.0736,7.0504,7.0902,7.1122,7.0246,6.9422,6.9023,6.8838,6.8429,6.9145,7.0459,7.1176,7.1556,7.2022,7.2728,7.3971,7.456,7.4914,7.5225,7.537,7.5477,7.5542,7.5735,3.2577,3.2577,3.2577,3.2577,3.2535,3.2,3.1073,2.9896,2.9812,2.898,2.7754,2.7562,2.7455,2.7649,2.8351,2.8338,2.7527,2.9388,2.9834,2.864,2.8229,2.8715,2.9672,3.0315,3.1454,3.3187,3.515,3.6293,3.6531,3.6706,3.7263,3.7671,3.7729,3.7903,3.8176,3.7904,3.7684,3.7411,3.7153,3.7006,3.697,3.6769,3.6603,3.6566,3.6366,3.6201,3.6201,3.6201,3.6201,3.6275,3.7217,3.875,4.0636,4.1735,4.2801,4.4241,4.4914,4.582,4.6741,4.7265,4.7969,4.8632,4.8868,4.9597,5.0958,5.1765,5.2923,5.4812,5.6038,5.749,5.8736,5.9622,5.9446,5.8483,5.8778,5.9332,6.0308,6.0838,6.1464,6.2204,6.2698,6.3215,6.412,6.52,6.5638,6.5245,6.6669,6.9326,7.1375,7.1384,7.0958,7.1355,7.1188,7.1099,7.12,7.1291,7.0894,7.0523,7.0448,7.0086,6.9723,7.0002,7.1299,7.2214,7.2623,7.3134,7.3854,7.4411,7.497,7.5225,7.528,7.555,7.5883,7.6114,7.6292,3.4588,3.4556,3.4425,3.4359,3.4294,3.3724,3.2823,3.185,3.1768,3.0656,2.916,2.8841,2.8745,2.8811,2.9665,2.9868,2.9763,3.1733,3.2182,3.1423,3.0523,3.084,3.1852,3.2471,3.3768,3.5737,3.7309,3.8105,3.8362,3.8527,3.86,3.86,3.86,3.849,3.8197,3.8089,3.7869,3.7649,3.7446,3.7391,3.7336,3.7153,3.7024,3.697,3.6659,3.6457,3.6439,3.6794,3.7033,3.7401,3.875,4.0743,4.2753,4.3552,4.4538,4.5752,4.618,4.655,4.7431,4.7969,4.8534,4.9386,4.9938,5.0931,5.2301,5.3201,5.4267,5.6648,5.7958,5.9227,6.0511,6.1582,6.1493,6.0163,6.0165,6.0669,6.1346,6.1732,6.238,6.3302,6.4008,6.4592,6.5363,6.6327,6.6829,6.6516,6.7876,6.9335,7.0759,7.1006,7.1233,7.1385,7.1341,7.1282,7.1242,7.127,7.1311,7.1424,7.1525,7.1086,7.0691,7.1258,7.2249,7.306,7.3557,7.4006,7.4673,7.484,7.5189,7.5262,7.5514,7.595,7.6406,7.6668,7.6899,3.6774,3.674,3.6396,3.6258,3.6022,3.4669,3.3919,3.3544,3.352,3.2561,3.1159,3.0895,3.091,3.0851,3.1119,3.1788,3.3059,3.3378,3.3965,3.4365,3.3747,3.3195,3.3355,3.4433,3.5779,3.7154,3.7773,3.8014,3.816,3.8453,3.86,3.86,3.86,3.86,3.849,3.8236,3.8032,3.8016,3.7684,3.7537,3.7558,3.7696,3.7678,3.7736,3.7594,3.7502,3.7596,3.8437,3.8895,3.9113,4.0957,4.2857,4.4482,4.5187,4.6079,4.7232,4.7431,4.7506,4.7837,4.8665,4.9661,5.0289,5.1298,5.2465,5.4229,5.4988,5.624,5.9052,5.9876,6.0675,6.1898,6.2854,6.2765,6.176,6.1436,6.1821,6.2784,6.2986,6.3556,6.4651,6.5741,6.6544,6.6517,6.751,6.7892,6.8108,6.8687,6.9181,6.9707,7.0639,7.1284,7.1578,7.1813,7.174,7.1819,7.2237,7.2295,7.2456,7.2602,7.2326,7.1924,7.2465,7.3119,7.3874,7.4373,7.4877,7.5244,7.537,7.5585,7.59,7.6222,7.6583,7.692,7.7185,7.7526,3.9055,3.9037,3.8929,3.8671,3.8356,3.7836,3.6714,3.5447,3.5308,3.4368,3.2987,3.2741,3.2741,3.2848,3.3912,3.4213,3.4213,3.5869,3.6313,3.6023,3.6804,3.6578,3.6209,3.6487,3.7113,3.7812,3.7998,3.8124,3.8417,3.8545,3.86,3.86,3.86,3.86,3.8563,3.8472,3.8435,3.8435,3.8383,3.833,3.8471,3.9278,3.9663,3.9739,4.0369,4.0492,4.0391,4.1334,4.1982,4.2312,4.3288,4.4709,4.6147,4.664,4.7041,4.7497,4.7597,4.8002,4.886,4.9411,5.0595,5.2819,5.3334,5.4494,5.6437,5.7461,5.8425,5.9715,6.0304,6.1433,6.244,6.3025,6.3223,6.3676,6.3102,6.2987,6.3895,6.4259,6.4675,6.5822,6.6359,6.689,6.7535,6.7949,6.8194,6.8326,6.8862,6.9853,7.0565,7.0937,7.1825,7.2347,7.2609,7.2478,7.2549,7.3067,7.3382,7.3542,7.3666,7.3702,7.3429,7.3557,7.4229,7.4896,7.4916,7.5262,7.5602,7.5831,7.6138,7.6439,7.6599,7.6888,7.7391,7.7782,7.8123,4.0148,4.0129,3.9964,3.9744,3.9502,3.9483,3.877,3.7751,3.7372,3.6373,3.4981,3.4547,3.4481,3.462,3.5511,3.5931,3.5931,3.7649,3.7928,3.7432,3.8047,3.8189,3.7938,3.7904,3.8014,3.8197,3.8234,3.8362,3.8563,3.86,3.86,3.86,3.86,3.86,3.86,3.86,3.86,3.8758,3.9214,3.9647,3.9767,4.1032,4.1661,4.1789,4.2364,4.246,4.2555,4.3545,4.4121,4.4135,4.4846,4.5978,4.7065,4.7364,4.7738,4.8232,4.8338,4.9032,5.0467,5.1194,5.2528,5.4437,5.5217,5.6171,5.7204,5.823,5.879,6.0059,6.0851,6.2024,6.3299,6.3641,6.4482,6.5683,6.5142,6.473,6.5417,6.5444,6.6009,6.6806,6.7279,6.7407,6.8151,6.8201,6.8221,6.8397,6.9064,7.0638,7.2159,7.2293,7.2476,7.303,7.3468,7.3441,7.3894,7.4444,7.4717,7.4835,7.4704,7.4789,7.4844,7.4736,7.5117,7.5585,7.555,7.5691,7.6144,7.6445,7.6567,7.6808,7.6935,7.7338,7.7912,7.8247,7.8633,4.0529,4.0533,4.0166,3.9983,3.9946,3.9946,3.9791,3.974,3.9266,3.8352,3.7107,3.6517,3.6414,3.6345,3.6586,3.7112,3.8402,3.8441,3.8521,3.8402,3.86,3.8527,3.849,3.8453,3.8472,3.8527,3.86,3.8582,3.86,3.86,3.86,3.86,3.86,3.86,3.86,3.86,3.8679,3.9254,4.0217,4.1016,4.15,4.2803,4.3635,4.3686,4.3853,4.4074,4.4513,4.5278,4.5565,4.4742,4.5972,4.7136,4.7871,4.7955,4.8657,4.9758,5.019,5.0864,5.2449,5.3655,5.4731,5.5771,5.6887,5.7577,5.787,5.8494,5.9533,6.0969,6.1517,6.2958,6.447,6.5009,6.5951,6.7272,6.7014,6.6727,6.6675,6.6675,6.7066,6.8,6.8151,6.8201,6.8326,6.8311,6.838,6.889,6.969,7.1278,7.2612,7.2999,7.3288,7.3787,7.4159,7.4502,7.5165,7.5916,7.6097,7.6207,7.5834,7.5818,7.6016,7.6033,7.6158,7.6336,7.6653,7.685,7.7008,7.7191,7.7212,7.7458,7.7768,7.816,7.8565,7.8712,7.9004,4.0974,4.0974,4.0882,4.0662,4.0405,4.0368,4.0185,3.9909,3.9799,3.9422,3.9105,3.864,3.8401,3.8383,3.8032,3.8282,3.856,3.86,3.86,3.86,3.86,3.86,3.86,3.86,3.86,3.86,3.86,3.86,3.86,3.86,3.86,3.86,3.8563,3.86,3.8582,3.8548,3.9333,4.0334,4.0977,4.1828,4.3169,4.4532,4.5394,4.5425,4.6072,4.6703,4.7039,4.7118,4.7237,4.7675,4.8222,4.9034,4.99,5.019,5.0925,5.2039,5.251,5.3133,5.4463,5.5138,5.5912,5.7416,5.7864,5.8428,5.9246,6.0284,6.1204,6.2257,6.323,6.4546,6.5866,6.6936,6.742,6.7852,6.7852,6.7675,6.779,6.779,6.7892,6.8101,6.8251,6.8394,6.8985,6.9074,6.9235,6.953,7.0544,7.1949,7.2804,7.3532,7.3862,7.4199,7.4756,7.5085,7.5466,7.63,7.6859,7.72,7.7054,7.7047,7.7223,7.7617,7.7848,7.7911,7.7933,7.8126,7.8293,7.7991,7.8002,7.8304,7.8602,7.8788,7.8991,7.919,7.9357,4.1102,4.1102,4.1102,4.0974,4.0809,4.079,4.0662,4.0387,4.0019,3.9872,3.9744,3.9245,3.8911,3.8893,3.871,3.86,3.86,3.86,3.86,3.86,3.86,3.86,3.86,3.86,3.86,3.86,3.86,3.86,3.86,3.86,3.86,3.8563,3.8435,3.8289,3.8252,3.8257,3.9041,4.0588,4.1626,4.2791,4.4565,4.6196,4.7067,4.7177,4.779,4.829,4.8072,4.8544,4.9105,4.9779,5.023,5.0616,5.1064,5.128,5.2243,5.3917,5.4357,5.5177,5.6252,5.682,5.7317,5.8578,5.8727,5.9425,6.0295,6.1496,6.2726,6.3863,6.5001,6.6009,6.7143,6.7689,6.8079,6.778,6.7715,6.7618,6.7424,6.778,6.8201,6.8301,6.8518,6.8838,6.922,6.9514,7.0329,7.0733,7.106,7.2316,7.3077,7.3712,7.3977,7.4434,7.5167,7.5616,7.5814,7.6482,7.7431,7.7893,7.8206,7.84,7.8719,7.9174,7.9702,7.9425,7.9066,7.9562,7.9651,7.9275,7.8935,7.9246,7.9466,7.9415,7.9468,7.9671,7.9821,4.1102,4.1102,4.1102,4.1066,4.1011,4.0992,4.0901,4.0754,4.0185,3.9872,3.9744,3.9043,3.882,3.871,3.8637,3.8582,3.849,3.8472,3.8417,3.8289,3.827,3.827,3.8289,3.8289,3.8307,3.8417,3.8545,3.8582,3.849,3.849,3.8362,3.8343,3.816,3.8089,3.7961,3.8259,3.9318,4.1237,4.2796,4.4363,4.6078,4.7589,4.8159,4.8414,4.8608,4.9083,4.9275,4.9946,5.0836,5.1822,5.2085,5.2051,5.1961,5.2108,5.3069,5.5819,5.6112,5.6827,5.7812,5.8292,5.8578,5.9205,5.9205,5.9863,6.1018,6.1969,6.3327,6.494,6.6201,6.6747,6.7752,6.7658,6.7431,6.7165,6.7003,6.6711,6.6542,6.7271,6.7833,6.8038,6.8176,6.8463,6.9261,6.9883,7.0954,7.1895,7.2215,7.2641,7.3404,7.3954,7.4296,7.4923,7.5747,7.6768,7.7073,7.7476,7.8305,7.8416,7.9007,7.9307,7.9596,7.9562,7.9755,8.0199,8.0185,8.0465,8.0593,8.0236,8.0079,8.0293,8.0465,8.0603,8.0496,8.0244,8.0487,4.1102,4.1102,4.1102,4.0919,4.0625,4.0607,4.0423,4.0111,3.9946,3.9872,3.9799,3.9336,3.9021,3.8948,3.871,3.8435,3.8179,3.8179,3.805,3.7812,3.7776,3.7757,3.7849,3.7849,3.7739,3.7794,3.8197,3.8435,3.8179,3.8069,3.8144,3.7794,3.7906,3.8016,3.848,3.9525,4.0876,4.2462,4.4182,4.591,4.7434,4.8159,4.8582,4.8835,4.9016,4.9831,5.1111,5.1669,5.2391,5.3439,5.3593,5.3934,5.4384,5.4858,5.6065,5.7487,5.8007,5.8162,5.8637,5.8896,5.9064,5.9205,5.9155,5.9804,6.1019,6.2202,6.3622,6.5214,6.6428,6.6934,6.6468,6.6647,6.6485,6.6323,6.6258,6.6242,6.6242,6.6718,6.7376,6.7598,6.772,6.8168,6.9222,7.0373,7.1553,7.2444,7.2922,7.3381,7.4057,7.4457,7.4762,7.5512,7.6423,7.7547,7.8489,7.8902,7.9402,7.9071,7.9354,7.9608,7.972,7.9405,7.9538,7.9999,8.0427,8.064,8.0729,8.0855,8.0987,8.1019,8.1358,8.1744,8.1548,8.1325,8.1939,4.0478,4.0478,4.0478,4.0368,4.0203,4.0185,4.0074,3.9872,3.9671,3.956,3.941,3.9116,3.8747,3.8563,3.8398,3.8142,3.805,3.8234,3.816,3.7995,3.7812,3.7831,3.7886,3.7794,3.7867,3.8069,3.8417,3.838,3.8032,3.8234,3.8105,3.8069,3.8071,3.8016,3.8311,3.9548,4.1484,4.3172,4.4847,4.6551,4.8245,4.8582,4.8871,4.9016,4.952,5.0482,5.1802,5.2435,5.3572,5.4997,5.498,5.5537,5.6186,5.6544,5.6873,5.8015,5.8336,5.8308,5.8278,5.8278,5.8362,5.8705,5.8873,5.9816,6.1203,6.2516,6.3884,6.5379,6.6108,6.6517,6.6193,6.6064,6.5934,6.5586,6.5546,6.5608,6.5745,6.6274,6.6914,6.7602,6.8294,6.895,6.9612,7.0781,7.2081,7.2935,7.3535,7.4204,7.4851,7.5299,7.5706,7.6541,7.75,7.839,7.9288,7.9643,8.008,7.989,7.9651,7.9902,8.0098,7.9893,7.9727,7.9867,8.0268,8.0906,8.1106,8.1271,8.1495,8.1572,8.1419,8.1482,8.2073,8.2515,8.2898,3.9872,3.9872,3.9872,3.9836,3.9762,3.9762,3.9707,3.9579,3.9205,3.9076,3.9021,3.8747,3.8435,3.8236,3.8163,3.8087,3.8071,3.8325,3.8325,3.8142,3.7922,3.8014,3.8142,3.8105,3.7922,3.8032,3.8343,3.8307,3.8087,3.8234,3.838,3.8179,3.8016,3.8289,3.8854,4.0371,4.1655,4.3387,4.5112,4.6841,4.8104,4.9029,4.9496,4.9711,5.0471,5.1792,5.3428,5.3868,5.5043,5.6315,5.6589,5.6469,5.7444,5.6927,5.6679,5.7196,5.748,5.7622,5.7768,5.8096,5.8561,5.8905,5.8921,6.0062,6.1631,6.2998,6.4212,6.5413,6.5821,6.5716,6.5513,6.561,6.5424,6.5335,6.5227,6.5381,6.5916,6.6597,6.7658,6.8364,6.9097,6.9733,7.0361,7.1344,7.2618,7.3697,7.4369,7.553,7.6153,7.665,7.7159,7.79,7.8703,7.9391,7.9934,8.0041,8.0385,8.0534,8.0172,8.0091,8.0394,8.0565,8.048,8.0476,8.0817,8.1404,8.1552,8.1683,8.181,8.1703,8.1184,8.145,8.2497,8.2927,8.3186,3.9872,3.9913,3.9895,3.9671,3.9439,3.9501,3.9138,3.8903,3.8887,3.8673,3.8909,3.8637,3.8563,3.8453,3.8453,3.8289,3.8144,3.8144,3.8069,3.7867,3.7704,3.7647,3.7629,3.7539,3.7666,3.7904,3.805,3.8053,3.8108,3.8124,3.7959,3.7794,3.8307,3.8677,4.0048,4.1905,4.3895,4.5493,4.7088,4.8104,4.8717,5.0032,5.0857,5.1708,5.2813,5.434,5.5637,5.6031,5.6902,5.7758,5.7967,5.7449,5.6845,5.6534,5.6556,5.7108,5.7771,5.8546,5.852,5.8842,5.9248,5.9393,5.9622,6.0648,6.1991,6.3506,6.4429,6.4274,6.4892,6.5132,6.4902,6.4572,6.4598,6.523,6.5881,6.6367,6.6914,6.7792,6.8721,6.9429,7.0262,7.0656,7.1121,7.2127,7.3142,7.4189,7.5293,7.6429,7.7458,7.7989,7.8662,7.9427,8.0079,8.0745,8.0999,8.1022,8.0959,8.1159,8.0905,8.0565,8.0931,8.1353,8.1529,8.1604,8.1835,8.1855,8.1954,8.2071,8.213,8.1918,8.1548,8.2229,8.3301,8.3495,8.3314,4.1404,4.0691,4.1562,4.1837,4.166,4.166,4.0977,4.0177,4.0021,4.0021,3.9786,3.8956,3.849,3.8443,3.8252,3.8181,3.805,3.8215,3.8252,3.7995,3.7867,3.7849,3.8014,3.7867,3.7794,3.805,3.8215,3.838,3.8365,3.8386,3.8215,3.8319,3.9174,4.0066,4.1318,4.3576,4.4902,4.6137,4.7471,4.8897,4.9902,5.0939,5.203,5.3164,5.4213,5.5578,5.6709,5.7124,5.7715,5.8417,5.8559,5.8386,5.8068,5.7764,5.7455,5.8196,5.8758,5.8879,5.8541,5.8911,5.9227,5.9541,5.9787,6.0469,6.2038,6.3155,6.4051,6.4119,6.5053,6.5358,6.5521,6.6009,6.6456,6.6881,6.7094,6.7679,6.8417,6.9275,7.0089,7.0749,7.1353,7.1777,7.2279,7.3065,7.4027,7.492,7.6174,7.7486,7.8568,7.9475,8.0184,8.0955,8.1593,8.2186,8.226,8.2304,8.1884,8.1936,8.1934,8.1702,8.1873,8.2162,8.2153,8.2386,8.2617,8.2614,8.25,8.2031,8.1651,8.1781,8.196,8.2448,8.2921,8.3084,8.3191,4.3194,4.2245,4.3107,4.3428,4.3346,4.3449,4.2787,4.1771,4.1693,4.1693,4.1384,4.0471,3.9558,3.8883,3.8864,3.8784,3.8218,3.8472,3.8582,3.8472,3.8362,3.8307,3.8362,3.827,3.8289,3.86,3.8508,3.8901,3.9295,3.9374,3.9494,3.9333,4.088,4.1923,4.2882,4.4473,4.6048,4.703,4.849,4.976,5.086,5.217,5.3385,5.4481,5.5425,5.6353,5.7386,5.7697,5.8364,5.8504,5.884,5.8812,5.8718,5.8581,5.8749,5.936,5.988,6.0071,5.9703,5.958,5.918,5.9483,6.0106,6.1217,6.2393,6.2809,6.3417,6.4641,6.5666,6.6292,6.6657,6.7488,6.7947,6.8249,6.8696,6.9274,6.9857,7.0635,7.1306,7.1926,7.2528,7.3124,7.3649,7.4208,7.4953,7.574,7.7027,7.8443,7.9375,8.0252,8.064,8.1147,8.145,8.1909,8.2086,8.2241,8.224,8.243,8.2387,8.256,8.2526,8.2439,8.2388,8.2717,8.3159,8.3069,8.2779,8.1923,8.1197,8.1785,8.2157,8.1951,8.2154,8.2452,8.2896,4.5025,4.4848,4.3966,4.3414,4.3102,4.3325,4.3528,4.3339,4.3301,4.3283,4.3072,4.3034,4.2116,4.1093,4.0472,3.9848,3.8664,3.864,3.86,3.86,3.8563,3.8585,3.8603,3.8624,3.8566,3.8679,3.8956,3.9765,4.0744,4.1519,4.1307,4.1249,4.2787,4.4155,4.5057,4.5841,4.7324,4.849,4.9938,5.0801,5.2013,5.3476,5.5273,5.5885,5.7146,5.8398,5.8989,5.8986,5.8912,5.8861,5.939,5.9501,5.9452,5.971,6.0184,6.0696,6.1028,6.1358,6.1426,6.0982,6.0691,6.0964,6.1546,6.238,6.3449,6.4351,6.5102,6.5835,6.6865,6.7321,6.7538,6.7899,6.9199,6.9691,7.0214,7.0689,7.1225,7.1832,7.252,7.3099,7.3646,7.4182,7.4833,7.5356,7.5581,7.6332,7.7437,7.8842,7.9416,8.0141,8.0363,8.0677,8.0788,8.0957,8.1028,8.1261,8.1751,8.1932,8.1981,8.2428,8.2798,8.2724,8.2471,8.2943,8.3287,8.3157,8.3009,8.2396,8.2058,8.2296,8.2458,8.251,8.2394,8.2613,8.2819,4.6303,4.5759,4.5922,4.5925,4.5815,4.6315,4.5937,4.5057,4.4982,4.436,4.3642,4.4398,4.4079,4.2711,4.1404,4.0802,3.9982,3.8956,3.8838,3.86,3.86,3.8798,3.8838,3.8977,3.8758,3.9254,3.9805,4.0432,4.1403,4.3318,4.4398,4.4757,4.5095,4.5468,4.6307,4.7302,4.8707,4.9949,5.123,5.2132,5.4429,5.5207,5.6685,5.791,5.822,5.8921,5.9239,5.9797,5.9839,5.9974,6.0551,6.0706,6.0787,6.1272,6.1709,6.2184,6.2384,6.254,6.2753,6.239,6.2188,6.2602,6.3021,6.3621,6.453,6.5417,6.6059,6.6954,6.8253,6.8953,6.93,7.0258,7.1345,7.146,7.1649,7.2,7.2366,7.2853,7.3447,7.3913,7.4437,7.4994,7.5732,7.6441,7.6617,7.6931,7.8079,7.9051,7.9454,7.9767,7.993,8.0163,8.0265,8.0678,8.0784,8.1081,8.1367,8.1483,8.1568,8.2052,8.2548,8.263,8.2509,8.3037,8.3407,8.343,8.3302,8.2973,8.2915,8.3115,8.3244,8.3354,8.3199,8.2935,8.3089,4.6862,4.6449,4.7115,4.7377,4.7482,4.8102,4.7735,4.681,4.6662,4.6085,4.5057,4.6122,4.5751,4.423,4.3207,4.2233,4.1732,4.0841,4.0354,4.0354,4.0549,4.0432,4.0549,4.0763,4.1074,4.0996,4.1616,4.2499,4.347,4.5707,4.6655,4.7118,4.7375,4.7397,4.7471,4.8743,5.021,5.1289,5.2866,5.3857,5.6187,5.6872,5.7377,5.8716,5.9059,5.9475,5.9896,6.0502,6.0842,6.0996,6.1468,6.2222,6.2585,6.2915,6.318,6.3445,6.3598,6.3383,6.3379,6.3006,6.3172,6.3579,6.4126,6.4818,6.5692,6.6687,6.764,6.7956,6.958,7.0828,7.0893,7.167,7.2197,7.2189,7.221,7.2504,7.2928,7.3366,7.4049,7.466,7.5281,7.5957,7.6506,7.7167,7.7371,7.7473,7.8002,7.8647,7.874,7.9015,7.9223,7.9481,7.9751,8.0267,8.0789,8.087,8.0922,8.1135,8.1253,8.1571,8.1955,8.2106,8.2249,8.2391,8.2844,8.3509,8.3541,8.3167,8.3489,8.3902,8.3902,8.3786,8.3786,8.3554,8.3708,4.6426,4.6874,4.692,4.6966,4.7115,4.7964,4.8305,4.8086,4.8123,4.805,4.7772,4.8086,4.7347,4.6011,4.5282,4.4457,4.3511,4.3072,4.2805,4.2711,4.2767,4.3491,4.368,4.3604,4.3263,4.3962,4.4323,4.4961,4.6063,4.7279,4.8286,4.8802,4.8802,4.8825,4.8559,5.0127,5.1405,5.2504,5.4956,5.5933,5.6773,5.7661,5.8308,5.8894,5.9442,5.9944,6.0688,6.1495,6.1763,6.1672,6.2304,6.269,6.2463,6.3379,6.377,6.3879,6.4429,6.47,6.4786,6.3618,6.3821,6.4747,6.5509,6.6328,6.7224,6.83,6.9226,6.9443,7.0692,7.1452,7.1839,7.2176,7.2565,7.2755,7.2755,7.3121,7.3552,7.4149,7.4847,7.5581,7.6327,7.7003,7.7443,7.7834,7.8062,7.8188,7.8276,7.8355,7.8437,7.862,7.893,7.9266,7.9629,7.9988,8.0472,8.0393,8.0459,8.0694,8.1046,8.1405,8.1596,8.1735,8.1794,8.1845,8.22,8.2741,8.3128,8.336,8.356,8.3676,8.4018,8.4018,8.4095,8.4095,8.4095,4.6219,4.6403,4.6747,4.7069,4.7423,4.8102,4.8377,4.8377,4.8377,4.8377,4.8377,4.8377,4.8196,4.7383,4.6418,4.5655,4.5095,4.368,4.3491,4.3642,4.4172,4.4209,4.4548,4.4998,4.4998,4.5164,4.576,4.6632,4.722,4.8503,4.909,4.9509,4.958,4.9592,5.0222,5.1509,5.2685,5.479,5.6363,5.7273,5.8087,5.8681,5.9177,5.9731,6.0157,6.0755,6.1525,6.2437,6.2722,6.2685,6.3393,6.3693,6.359,6.4426,6.4512,6.4542,6.4912,6.5269,6.5723,6.5586,6.5848,6.6593,6.7353,6.8253,6.9348,7.0217,7.0715,7.0929,7.1588,7.2146,7.248,7.2488,7.2734,7.2887,7.3101,7.3795,7.4378,7.5102,7.5821,7.6539,7.7286,7.7563,7.7928,7.8123,7.8343,7.8429,7.8442,7.8736,7.8877,7.8903,7.9066,7.9427,7.9739,7.9968,8.0154,8.0425,8.0715,8.1076,8.126,8.1432,8.1517,8.1497,8.1575,8.1691,8.1807,8.1968,8.2355,8.2703,8.3018,8.3251,8.3438,8.3902,8.4095,8.4095,8.4095,4.6184,4.6426,4.6931,4.7436,4.7918,4.8263,4.8377,4.8377,4.8377,4.8377,4.8377,4.8377,4.8377,4.805,4.7383,4.6773,4.6662,4.5825,4.5244,4.5244,4.5655,4.627,4.647,4.6433,4.7133,4.7169,4.7681,4.8503,4.843,4.9652,4.9997,4.9854,5.0009,5.1138,5.2055,5.3096,5.4146,5.6129,5.7386,5.827,5.8933,5.949,5.9983,6.0565,6.1198,6.191,6.2583,6.3246,6.3932,6.4101,6.444,6.4915,6.4943,6.5242,6.5378,6.5487,6.5938,6.6385,6.7002,6.7756,6.8061,6.8715,6.949,7.0043,7.0747,7.141,7.152,7.1808,7.2373,7.2565,7.2671,7.2692,7.2929,7.308,7.3677,7.4343,7.5192,7.5923,7.6506,7.724,7.7732,7.8,7.8239,7.841,7.8561,7.8602,7.8591,7.9002,7.9345,7.9317,7.9415,7.982,8.0085,8.0343,8.0601,8.0861,8.1164,8.1459,8.1497,8.1497,8.1497,8.1497,8.1497,8.1497,8.1652,8.1729,8.1691,8.1929,8.2277,8.2509,8.2625,8.3167,8.3902,8.3979,8.3863,4.6449,4.6954,4.7436,4.7859,4.8331,4.8377,4.8377,4.8377,4.8377,4.8377,4.8377,4.8377,4.8377,4.8377,4.8268,4.8196,4.8123,4.7954,4.7845,4.8027,4.7991,4.8572,4.8969,4.9329,4.909,4.9688,4.9973,4.9449,4.9544,4.9926,5.0139,5.0648,5.1303,5.2676,5.3775,5.4708,5.567,5.7253,5.827,5.8958,5.9547,6.0104,6.0624,6.1346,6.2233,6.2959,6.3619,6.4186,6.4638,6.4805,6.4888,6.4943,6.5269,6.5965,6.628,6.6806,6.7471,6.7845,6.8462,6.9217,6.992,7.0348,7.0669,7.1008,7.1377,7.2038,7.2124,7.2124,7.2395,7.2565,7.2692,7.295,7.3168,7.3657,7.421,7.5012,7.5906,7.6571,7.7065,7.7592,7.7986,7.8239,7.8458,7.8622,7.8866,7.9021,7.9187,7.9706,7.9961,7.9794,7.9985,8.0416,8.0656,8.0819,8.1054,8.1186,8.1315,8.1491,8.1497,8.1497,8.1497,8.1497,8.1497,8.1497,8.1497,8.1536,8.1575,8.1575,8.1613,8.1807,8.2039,8.2348,8.3051,8.336,8.3399,4.6954,4.7436,4.7538,4.7905,4.8354,4.8377,4.8377,4.8377,4.8377,4.8377,4.8377,4.8377,4.8377,4.8377,4.8377,4.8377,4.8377,4.8377,4.8341,4.8618,4.892,4.9137,4.9496,4.989,5.0033,4.9997,4.9973,5.0068,4.9652,4.989,5.1011,5.1976,5.246,5.4004,5.5373,5.6319,5.735,5.8238,5.9083,5.9519,6.0043,6.0593,6.1346,6.2379,6.3017,6.3761,6.4384,6.4666,6.4888,6.4888,6.4915,6.5105,6.6098,6.6385,6.6675,6.7599,6.8021,6.8445,6.9385,7.001,7.0679,7.152,7.1895,7.2133,7.2339,7.2437,7.2565,7.2501,7.248,7.2649,7.297,7.3229,7.3701,7.4308,7.4976,7.5906,7.6731,7.7255,7.771,7.7983,7.8363,7.8541,7.8738,7.8978,7.9221,7.944,7.981,8.0319,8.0523,8.0361,8.0425,8.0884,8.1046,8.1113,8.1239,8.1355,8.144,8.1491,8.1497,8.1497,8.1497,8.1497,8.1497,8.1497,8.1497,8.1497,8.1536,8.1497,8.1497,8.1497,8.1729,8.1884,8.2116,8.2464,8.2793,4.7332,4.7607,4.7836,4.8125,4.8354,4.8377,4.8377,4.8377,4.8377,4.8377,4.8377,4.8377,4.8377,4.8377,4.8377,4.8377,4.8377,4.8377,4.8377,4.8523,4.892,4.8957,4.9304,4.9627,4.9711,4.9652,4.9759,4.9926,4.9795,5.0458,5.1558,5.2641,5.3292,5.5207,5.6645,5.7574,5.8554,5.9301,5.9858,6.0135,6.0593,6.1316,6.2496,6.3189,6.3645,6.4326,6.4777,6.4888,6.4943,6.5081,6.5105,6.5781,6.6753,6.7189,6.8304,6.9211,6.9642,7.0019,7.0576,7.0906,7.1522,7.2059,7.2459,7.2523,7.2607,7.2628,7.2649,7.2649,7.2713,7.2825,7.3189,7.3637,7.4326,7.5048,7.5938,7.6841,7.7421,7.792,7.8267,7.8474,7.8712,7.8891,7.91,7.9358,7.9551,7.9743,8.0195,8.0815,8.1,8.0946,8.0946,8.12,8.1294,8.1367,8.1433,8.1459,8.1478,8.1491,8.1497,8.1497,8.1497,8.1497,8.1497,8.1497,8.1497,8.1497,8.1497,8.1497,8.1497,8.1504,8.151,8.1664,8.1736,8.1807,8.2109,4.7783,4.7757,4.8302,4.8681,4.8667,4.8812,4.874,4.8523,4.8631,4.8509,4.8437,4.8377,4.8377,4.8377,4.8377,4.8377,4.8377,4.8377,4.8377,4.8437,4.8631,4.8763,4.8871,4.9052,4.9281,4.9532,4.9711,4.9818,5.0234,5.1138,5.24,5.3155,5.5406,5.7,5.7574,5.8424,5.9301,6.0106,6.0593,6.0927,6.1406,6.2379,6.3476,6.3704,6.427,6.4888,6.4915,6.497,6.5026,6.5406,6.5938,6.6622,6.7573,6.8675,7.0086,7.0676,7.0905,7.1075,7.13,7.1578,7.1864,7.2202,7.2331,7.2523,7.2649,7.2692,7.2692,7.2692,7.2713,7.3101,7.3497,7.4114,7.4848,7.5734,7.6699,7.7376,7.7863,7.8294,7.8554,7.8815,7.904,7.9244,7.967,7.9954,8.0125,8.0204,8.053,8.1193,8.1326,8.1305,8.1353,8.1446,8.1446,8.144,8.1459,8.1485,8.1491,8.1497,8.1497,8.1497,8.1497,8.1497,8.1497,8.1497,8.1497,8.1497,8.1497,8.1497,8.151,8.1547,8.1547,8.1528,8.1516,8.1504,8.1581,4.8963,4.8325,4.9282,5.0127,5.0846,5.0941,5.0411,4.97,4.9688,4.9221,4.8523,4.8437,4.8377,4.8377,4.8377,4.8377,4.8377,4.8377,4.8377,4.8509,4.8618,4.8582,4.8727,4.8993,4.9029,4.8884,4.9065,4.9938,5.0882,5.2262,5.3877,5.5141,5.6839,5.7606,5.8487,5.9205,5.9797,6.0745,6.1406,6.2028,6.2757,6.3017,6.3676,6.4214,6.4888,6.4888,6.5136,6.5673,6.5911,6.628,6.7189,6.8021,6.8936,7.0193,7.0916,7.1267,7.1379,7.1501,7.1622,7.1854,7.2094,7.2309,7.2437,7.2586,7.2671,7.2692,7.2692,7.2692,7.2908,7.3371,7.392,7.4645,7.5404,7.6421,7.7361,7.7834,7.829,7.8578,7.8853,7.915,7.9361,7.9724,8.0201,8.0461,8.0646,8.0831,8.1034,8.1387,8.1427,8.1427,8.1414,8.1478,8.1485,8.1485,8.1497,8.1497,8.1497,8.1497,8.1497,8.1497,8.1497,8.1497,8.1497,8.1497,8.1497,8.1497,8.1497,8.1497,8.1522,8.1577,8.1541,8.1497,8.1483,8.1483,8.1504,5.0447,4.9949,5.0553,5.1128,5.1618,5.1687,5.1338,5.0882,5.0811,5.0198,4.9114,4.8667,4.8414,4.8414,4.8377,4.845,4.845,4.8377,4.8377,4.8509,4.8582,4.8546,4.8667,4.8848,4.8704,4.8595,4.9842,5.0952,5.1976,5.3978,5.5802,5.6547,5.7382,5.8364,5.9267,5.9609,6.0228,6.1227,6.2145,6.3045,6.3874,6.4129,6.4242,6.4832,6.4888,6.4915,6.5269,6.5857,6.6332,6.6982,6.7921,6.9259,7.0133,7.0893,7.1222,7.1334,7.139,7.1501,7.1644,7.1886,7.2146,7.2424,7.2459,7.253,7.2671,7.2692,7.2692,7.2755,7.3209,7.3681,7.4608,7.5351,7.6274,7.7249,7.7768,7.8197,7.8538,7.8828,7.9267,7.9805,8.0033,8.0268,8.066,8.0907,8.1068,8.1073,8.1355,8.1433,8.1478,8.1536,8.1536,8.1613,8.1691,8.1575,8.1497,8.1497,8.1497,8.1497,8.1497,8.1497,8.1497,8.1497,8.1497,8.1497,8.1497,8.1497,8.1497,8.151,8.1571,8.1635,8.1559,8.1414,8.1459,8.1432,8.1342,5.2,5.2129,5.1966,5.2035,5.2129,5.2174,5.207,5.1931,5.1896,5.1303,5.0305,4.9329,4.8848,4.8631,4.8631,4.8631,4.8595,4.8486,4.845,4.8377,4.8437,4.8437,4.8437,4.845,4.8595,4.9521,5.0882,5.2184,5.3385,5.5399,5.6736,5.735,5.8238,5.9267,5.9609,6.0165,6.0986,6.2028,6.2959,6.3817,6.4468,6.4888,6.486,6.486,6.4915,6.497,6.5378,6.5991,6.6622,6.7701,6.8871,7.0006,7.0745,7.1222,7.1244,7.1334,7.1479,7.1644,7.1895,7.2219,7.2475,7.2644,7.2559,7.2741,7.297,7.3032,7.3053,7.3285,7.3756,7.4305,7.5192,7.6005,7.6935,7.7739,7.8141,7.8485,7.8763,7.9065,7.9665,8.0287,8.0555,8.0775,8.0993,8.1291,8.1328,8.133,8.1401,8.1472,8.1536,8.1613,8.1652,8.1852,8.2045,8.1884,8.1613,8.1575,8.1613,8.1497,8.1497,8.1497,8.1497,8.1497,8.1497,8.1497,8.1497,8.1504,8.1522,8.1541,8.1612,8.1696,8.1538,8.144,8.1445,8.1369,8.1113,5.3606,5.4368,5.347,5.3572,5.4335,5.4402,5.3937,5.3137,5.3035,5.245,5.1548,5.1222,5.0659,4.9771,4.9771,4.9735,4.9592,4.9078,4.8523,4.8377,4.8414,4.8414,4.8486,4.8667,4.9065,5.034,5.1871,5.3103,5.4493,5.6183,5.7151,5.7345,5.8581,5.9578,6.0318,6.0896,6.1555,6.2641,6.3332,6.4045,6.4607,6.4888,6.4888,6.4888,6.4888,6.546,6.6205,6.724,6.8172,6.9211,7.0076,7.0837,7.1143,7.1289,7.1289,7.1356,7.1501,7.1948,7.227,7.2721,7.3093,7.3878,7.3956,7.413,7.4299,7.4283,7.4321,7.4378,7.4755,7.5012,7.5716,7.6323,7.7127,7.7819,7.8318,7.8607,7.8916,7.9338,7.9847,8.0401,8.0817,8.1016,8.1205,8.1353,8.1414,8.1408,8.1466,8.1536,8.1536,8.1613,8.1774,8.2122,8.2432,8.2045,8.1691,8.1729,8.1729,8.1613,8.1497,8.1497,8.1497,8.1497,8.1497,8.1497,8.151,8.1516,8.1541,8.1589,8.163,8.1685,8.1523,8.1406,8.1424,8.1246,8.0962]}]]